[[[{"header":{"parameterUnit":"kt","parameterCategory":2,"dx":1,"dy":1,"la1":29.587661999999998,"la2":31.0,"lo1":-88.76705300000003,"lo2":-86.6583820000003,"nx":115,"ny":88,"refTime":"2022-09-20T00:00:00:Z","depth":0,"parameterNumber":1,"parameterNumberName":"U-component_of_WINDS"},"data":[6.1292,5.8608,5.6636,5.5722,5.5173,5.3658,5.2412,5.1332,5.0198,4.9018,4.7446,4.5708,4.3069,3.886,4.0107,4.1011,4.2463,4.3443,4.4548,4.5491,4.5511,4.551,4.5229,4.4771,4.5176,4.3679,4.1856,4.067,3.8785,3.6996,3.5473,3.4802,3.4827,3.4637,3.4637,3.4448,3.4728,3.4728,3.4588,3.4134,3.2715,3.0438,2.8017,2.6727,2.5792,2.6096,2.6248,2.5628,2.5157,2.5004,2.4814,2.4968,2.4956,2.4779,2.4614,2.4755,2.4767,2.492,2.4908,2.4543,2.4696,2.6034,2.6839,2.6663,2.6525,2.723,2.6714,2.5719,2.2978,1.9345,1.7849,1.7867,1.7199,1.6699,1.6359,1.6197,1.6035,1.6027,1.6027,1.6027,1.6205,1.6715,1.7046,1.7232,1.707,1.8104,1.8265,1.9086,1.8951,1.9492,2.0416,1.9711,1.8975,1.9617,1.9451,1.8153,1.8351,1.8979,1.8764,1.7681,1.7134,1.7332,1.7731,1.7986,1.8676,1.9686,2.0058,1.9691,2.063,2.0698,2.1715,2.2367,2.1647,2.0633,1.9216,5.8161,5.3479,5.1327,5.006,4.9159,4.8074,4.7269,4.6226,4.4758,4.3403,4.1647,4.0277,3.8598,3.7259,3.7087,3.6916,3.6951,3.7483,3.8823,3.9518,3.9636,3.9802,3.9746,3.9606,3.9181,3.7797,3.5796,3.473,3.3776,3.2261,3.1685,3.2886,3.2761,3.2239,3.2366,3.2034,3.1397,3.1397,3.1238,3.0758,2.8328,2.5895,2.3564,2.2069,2.1423,2.1413,2.158,2.1423,2.1423,2.1098,2.0783,2.0961,2.0793,2.0309,2.0131,2.0467,2.0477,2.0487,2.0299,2.0299,2.028,2.1119,2.208,2.208,2.1276,2.1119,2.0606,1.9224,1.6796,1.4269,1.3096,1.2259,1.1241,1.0559,1.0392,1.0052,1.0052,1.0052,1.0052,1.0052,1.0402,1.0924,1.144,1.2134,1.3,1.4379,1.5471,1.646,1.6932,1.6502,1.6057,1.5484,1.4614,1.3135,1.2224,1.2067,1.2824,1.3817,1.5174,1.3636,1.3067,1.4433,1.5212,1.5006,1.5148,1.5788,1.6205,1.6917,1.6394,1.6101,1.735,1.8442,1.7955,1.7593,1.6516,5.2637,5.1023,4.8599,4.7362,4.6924,4.5469,4.3978,4.2307,3.9783,3.6717,3.3783,3.525,3.4285,3.0626,3.0626,3.0452,3.0771,3.0915,3.215,3.2481,3.2331,3.3249,3.3254,3.2671,3.2594,3.268,3.0669,2.9005,2.8392,2.7022,2.6173,2.6827,2.7762,2.7705,2.7868,2.8382,2.8247,2.822,2.8233,2.5731,2.1402,1.9905,1.8061,1.8096,1.7943,1.8317,1.8317,1.8317,1.8308,1.7969,1.7451,1.7782,1.7451,1.6778,1.6965,1.7127,1.7297,1.768,1.7509,1.7151,1.6445,1.8557,1.9926,1.9681,1.8692,1.3969,1.3457,1.3096,1.0685,1.0171,0.8995,0.8659,0.7804,0.7461,0.7292,0.7119,0.7119,0.7119,0.7122,0.7122,0.7468,0.7988,0.8511,0.9207,0.9735,1.1112,1.1107,1.1863,1.2037,1.18,1.1417,1.0934,1.0127,0.873,0.7809,0.8007,0.8198,0.9568,1.1511,1.0734,1.0341,1.171,1.3067,1.3812,1.3963,1.3357,1.3405,1.4281,1.4011,1.3936,1.4403,1.5021,1.4597,1.4597,1.3898,4.5654,4.5738,4.3868,4.2328,4.1375,3.9835,3.8193,3.7047,3.2203,2.7688,2.6085,2.9349,2.9526,2.5105,2.4566,2.5105,2.5457,2.5784,2.562,2.6261,2.5796,2.65,2.642,2.6124,2.6021,2.6348,2.6018,2.4344,2.28,2.1532,2.084,2.1931,2.1932,2.2671,2.2857,2.2693,2.2978,2.2944,2.2789,2.0635,1.6568,1.4529,1.3159,1.2816,1.2993,1.3356,1.3362,1.354,1.3719,1.3897,1.3897,1.3897,1.3904,1.3719,1.3891,1.3897,1.3534,1.3719,1.3547,1.2668,1.2846,1.4956,1.6203,1.6555,1.4433,0.9034,0.6076,0.5897,0.5548,0.5721,0.5551,0.5554,0.5556,0.5556,0.5556,0.5383,0.5383,0.5556,0.5559,0.5559,0.5559,0.6079,0.6599,0.6952,0.7139,0.7326,0.7511,0.7413,0.7721,0.6769,0.6216,0.555,0.4858,0.5067,0.4681,0.449,0.4297,0.5468,0.6247,0.703,0.7809,0.7822,0.7832,1.0324,1.2685,1.2251,1.2005,1.2443,1.2652,1.2811,1.3302,1.4111,1.3664,1.2192,1.1461,3.6995,3.4115,3.4126,3.1903,2.771,2.7977,2.7884,2.7197,1.9316,1.6134,1.8179,2.2923,2.2933,1.9968,1.891,1.9634,2.0714,2.0724,2.1018,2.2802,2.1185,2.035,2.0241,1.955,1.9183,1.8549,1.8098,1.7475,1.6396,1.5898,1.6272,1.8593,1.7586,1.7767,1.8346,1.8258,1.7644,1.7326,1.6398,1.5562,1.2312,1.0762,0.9903,0.7302,0.6782,0.6785,0.6785,0.6615,0.6441,0.6615,0.6615,0.6435,0.6435,0.6432,0.6432,0.6605,0.6942,0.7292,0.7115,0.6766,0.798,0.9203,1.0614,0.9544,0.7091,0.2595,0.052,-0.0,-0.0,-0.0,0.0526,0.0704,0.1058,0.1059,0.1583,0.193,0.2099,0.2091,0.209,0.2087,0.2087,0.2609,0.3305,0.3507,0.3514,0.4969,0.5009,0.4355,0.3507,0.1504,0.0575,-0.0194,-0.0,0.0586,0.0782,0.1368,0.0782,0.0391,0.0391,0.1369,0.3713,0.3724,0.2756,0.5706,0.8657,0.9397,1.0048,1.0701,1.091,1.1192,1.1627,1.2718,1.2179,1.0308,0.9247,2.2968,2.3016,2.5512,2.448,2.1321,2.0666,1.7508,1.2666,0.7104,0.7135,1.0603,1.3686,1.4059,1.3052,1.2882,1.3759,1.5888,1.5695,1.585,1.649,1.5695,1.497,1.4092,1.3261,1.2578,1.1441,1.0768,1.0737,1.0157,1.0091,1.049,1.1909,1.2239,1.3362,1.4598,1.4343,1.307,1.1006,0.9716,0.9034,0.7299,0.5388,0.4175,0.2438,0.2441,0.2441,0.2442,0.2442,0.2266,0.2265,-0.0523,-0.1046,-0.1043,-0.1044,-0.1045,-0.0869,-0.0521,-0.0521,-0.0347,-0.052,-0.0174,0.0521,0.1041,0.052,-0.1728,-0.3108,-0.4326,-0.5214,-0.5396,-0.5424,-0.4788,-0.4302,-0.3953,-0.3599,-0.2682,-0.1777,-0.1589,-0.1579,-0.1574,-0.157,-0.122,-0.0697,-0.035,-0.0353,0.0178,0.1258,0.1455,0.074,-0.0754,-0.23,-0.3108,-0.3524,-0.3331,-0.294,-0.2351,-0.1567,-0.1371,-0.1175,-0.196,-0.1568,-0.0392,0.0588,0.1373,0.2956,0.4959,0.536,0.5964,0.7341,0.8748,0.8767,0.9207,0.9039,0.8125,0.7191,0.6812,0.9891,1.2236,1.5403,1.4959,1.2068,0.9216,0.5231,0.0342,-0.2574,-0.1546,0.3266,0.4821,0.6205,0.6232,0.624,0.8314,0.9707,1.0579,1.0412,1.0229,1.0387,0.9181,0.8314,0.7785,0.6926,0.6187,0.5768,0.5827,0.5413,0.547,0.5899,0.5841,0.7137,0.8471,0.9791,1.0747,0.7673,0.501,0.2952,0.2259,0.1216,-0.0,-0.087,-0.1568,-0.1568,-0.1568,-0.1569,-0.1569,-0.1568,-0.2265,-0.5239,-0.5939,-0.627,-0.6618,-0.7142,-0.7306,-0.7999,-0.8172,-0.8346,-0.8346,-0.7468,-0.5894,-0.6759,-0.8138,-0.9159,-0.9494,-0.9358,-0.9616,-0.9676,-0.9301,-0.8892,-0.8372,-0.8013,-0.7072,-0.5934,-0.5185,-0.4801,-0.4413,-0.332,-0.3315,-0.3315,-0.2792,-0.2099,-0.2298,-0.3058,-0.2727,-0.2766,-0.3383,-0.421,-0.4845,-0.5486,-0.5293,-0.5099,-0.4707,-0.4117,-0.4114,-0.3527,-0.2744,-0.294,-0.2744,-0.2351,-0.1959,-0.0391,0.059,0.1192,0.1787,0.2373,0.3984,0.5627,0.6114,0.6032,0.5086,0.4319,0.4306,0.411,-0.1162,0.2194,0.3039,0.1524,-0.239,-0.8361,-1.0307,-0.8647,-1.0224,-0.9004,-0.5543,-0.2251,-0.0521,0.0693,0.1394,0.331,0.5909,0.5391,0.5212,0.5034,0.5024,0.3989,0.3298,0.2777,0.2081,0.2415,0.2048,0.101,0.2349,0.1634,0.1938,0.257,0.2822,0.2738,0.1989,0.1684,0.034,-0.1036,-0.2955,-0.4171,-0.4865,-0.5743,-0.5746,-0.5401,-0.5403,-0.5403,-0.5403,-0.5403,-0.5401,-0.645,-0.8555,-0.7852,-0.8014,-0.9038,-1.0254,-1.1468,-1.2858,-1.3203,-1.3375,-1.3375,-1.2318,-1.1128,-1.2662,-1.4036,-1.4598,-1.4336,-1.3953,-1.39,-1.3488,-1.3173,-1.2632,-1.2258,-1.1699,-1.0675,-0.9299,-0.8479,-0.7896,-0.7081,-0.5954,-0.5754,-0.5754,-0.5604,-0.5094,-0.5168,-0.6173,-0.5893,-0.6197,-0.6878,-0.753,-0.8021,-0.7829,-0.764,-0.7249,-0.6665,-0.647,-0.6852,-0.6266,-0.5486,-0.529,-0.4899,-0.5297,-0.5099,-0.3331,-0.2164,-0.1989,-0.1,0.0599,0.1805,0.2825,0.3021,0.298,0.2191,0.1598,0.159,0.1394,-1.8098,-1.151,-1.0357,-1.0054,-1.1266,-1.7756,-1.9494,-1.7807,-1.7782,-1.6244,-1.2614,-0.8568,-0.6502,-0.6007,-0.4819,-0.2331,-0.0,-0.0176,-0.0352,-0.0173,-0.0173,-0.1389,-0.2258,-0.2773,-0.2961,-0.4505,-0.4638,-0.4224,-0.3483,-0.393,-0.3387,-0.222,-0.1563,-0.2582,-0.5152,-0.6608,-0.7344,-0.6939,-0.7515,-0.9438,-1.0838,-1.1186,-1.066,-0.9621,-0.9268,-0.9268,-0.926,-0.9251,-0.9251,-0.9425,-1.0129,-1.0133,-0.9936,-1.0273,-1.0803,-1.1144,-1.2175,-1.3031,-1.4234,-1.4921,-1.6257,-1.5633,-1.7271,-1.8281,-1.83,-1.8434,-1.8111,-1.7767,-1.7403,-1.7095,-1.6756,-1.4765,-1.4348,-1.3684,-1.2383,-1.1021,-1.035,-0.9897,-0.8891,-0.922,-0.9229,-0.9317,-0.9215,-0.9198,-0.9201,-0.9569,-0.9742,-1.0415,-1.0905,-1.0929,-1.0938,-1.0743,-1.0545,-0.9966,-0.9771,-0.9584,-0.8812,-0.8425,-0.7836,-0.7246,-0.7448,-0.7445,-0.5882,-0.4715,-0.4731,-0.4161,-0.1997,-0.06,-0.0,0.0199,-0.0401,-0.101,-0.1016,-0.1426,-0.1634,-2.9305,-2.2331,-2.0595,-2.0419,-2.1693,-2.5579,-2.6398,-2.4933,-2.4397,-2.2618,-1.9103,-1.3804,-1.1961,-1.2211,-1.0887,-0.9081,-0.7542,-0.7174,-0.7154,-0.7045,-0.7227,-0.7919,-0.8121,-0.8324,-0.8289,-0.9129,-0.858,-0.7755,-0.8316,-0.7281,-0.6949,-0.667,-0.5298,-0.7566,-1.1757,-1.1662,-1.2227,-1.1504,-1.1702,-1.2423,-1.4423,-1.4436,-1.3907,-1.3017,-1.284,-1.2846,-1.2852,-1.2858,-1.2858,-1.3029,-1.2891,-1.2903,-1.2909,-1.3381,-1.3388,-1.3381,-1.4056,-1.4386,-1.5242,-1.6914,-1.8821,-2.0317,-2.1714,-2.2341,-2.2051,-2.2121,-2.1978,-2.1971,-2.2251,-2.1949,-2.1008,-1.9186,-1.8047,-1.7369,-1.5216,-1.3792,-1.3149,-1.2617,-1.2186,-1.2335,-1.1397,-1.0987,-1.0942,-1.0574,-1.2154,-1.2991,-1.2912,-1.342,-1.3255,-1.326,-1.3067,-1.3067,-1.3061,-1.2674,-1.2297,-1.1535,-1.0771,-1.0368,-0.9974,-0.9584,-0.9195,-0.9191,-0.8411,-0.8212,-0.7826,-0.7243,-0.5907,-0.4545,-0.3537,-0.3565,-0.5241,-0.6121,-0.4715,-0.4331,-0.4364,-3.4692,-3.0046,-2.7964,-2.9885,-3.349,-3.3161,-3.2117,-3.1051,-2.9837,-2.7995,-2.5162,-1.9161,-1.725,-1.8071,-1.6198,-1.4897,-1.4461,-1.4623,-1.4743,-1.4324,-1.4081,-1.4723,-1.4557,-1.3612,-1.2965,-1.18,-1.1585,-1.0961,-0.9684,-1.0557,-1.0114,-0.9664,-1.0492,-1.2752,-1.9251,-1.4843,-1.2192,-1.2014,-1.2326,-1.3391,-1.4649,-1.4998,-1.5519,-1.5318,-1.5491,-1.547,-1.547,-1.547,-1.5456,-1.5442,-1.5295,-1.5253,-1.526,-1.5843,-1.6165,-1.6298,-1.7638,-1.8487,-1.9371,-2.1632,-2.2733,-2.3482,-2.4632,-2.543,-2.6103,-2.6161,-2.5881,-2.5414,-2.5824,-2.6025,-2.5483,-2.4173,-2.2851,-2.1377,-1.8381,-1.6563,-1.6082,-1.572,-1.5243,-1.5092,-1.3391,-1.2183,-1.234,-1.3109,-1.5371,-1.6197,-1.6129,-1.5791,-1.5399,-1.5013,-1.4233,-1.4227,-1.4415,-1.4421,-1.4433,-1.3488,-1.2906,-1.269,-1.2292,-1.1904,-1.1516,-1.0933,-1.1127,-1.1899,-1.1127,-0.9771,-0.8996,-0.8422,-0.8327,-0.8021,-0.9786,-0.9711,-0.8079,-0.6871,-0.6309,-3.9259,-3.4856,-3.3626,-3.6313,-4.0486,-3.8458,-3.7223,-3.6452,-3.4328,-3.237,-3.0843,-2.6444,-2.4286,-2.3335,-2.1476,-1.9846,-1.9989,-1.9918,-1.9605,-1.9509,-1.962,-1.9208,-1.9028,-1.8488,-1.7956,-1.8022,-1.7234,-1.6731,-1.6047,-1.6641,-1.6874,-1.7045,-1.77,-1.863,-2.1565,-1.9755,-1.8349,-1.7461,-1.6917,-1.6917,-1.694,-1.7137,-1.7311,-1.6773,-1.7152,-1.7152,-1.7523,-1.7721,-1.7342,-1.7287,-1.703,-1.6586,-1.6459,-1.6448,-1.6356,-1.6367,-1.6445,-1.677,-1.8978,-2.1966,-2.5658,-2.606,-2.7072,-2.7286,-2.7342,-2.73,-2.7888,-2.8017,-2.7488,-2.7003,-2.6711,-2.6229,-2.5292,-2.48,-2.192,-2.0221,-1.9684,-1.888,-1.8535,-1.7935,-1.9046,-1.8978,-1.8908,-1.8372,-1.9958,-2.0061,-1.9401,-1.8285,-1.8085,-1.7702,-1.6734,-1.6727,-1.6712,-1.6734,-1.6755,-1.637,-1.617,-1.5764,-1.4807,-1.4227,-1.3454,-1.248,-1.2287,-1.3277,-1.3283,-1.2108,-1.156,-1.1422,-1.1982,-1.26,-1.2203,-1.178,-1.0544,-0.996,-0.9183,-4.4907,-4.1732,-4.2109,-4.3585,-4.5415,-4.3937,-4.2644,-4.1416,-3.9865,-3.8539,-3.6903,-3.2198,-2.9659,-2.8787,-2.6643,-2.5669,-2.5623,-2.5568,-2.5597,-2.5216,-2.4969,-2.4798,-2.3891,-2.373,-2.2689,-2.1855,-2.1083,-2.0896,-2.0718,-1.9744,-2.1695,-2.3482,-2.292,-2.3496,-2.2433,-2.141,-1.9927,-1.8994,-1.8068,-1.8238,-1.8608,-1.8793,-1.9146,-1.9489,-1.9673,-2.0041,-2.0556,-2.0758,-2.0758,-2.1097,-2.1167,-2.1167,-2.1311,-2.0878,-2.0888,-2.0801,-2.0667,-2.084,-2.2363,-2.4444,-2.7322,-2.8068,-2.9195,-2.9943,-3.0345,-3.0106,-3.0144,-2.9959,-2.9934,-3.008,-2.922,-2.8466,-2.7664,-2.713,-2.6212,-2.4603,-2.3681,-2.2527,-2.1853,-2.1205,-2.2445,-2.3862,-2.3567,-2.3214,-2.3599,-2.3547,-2.2074,-2.097,-2.1151,-2.0952,-2.0943,-2.0934,-2.0881,-2.0881,-2.0744,-2.019,-1.9234,-1.8285,-1.7325,-1.6755,-1.5984,-1.4826,-1.4694,-1.4876,-1.527,-1.4592,-1.4462,-1.4492,-1.5102,-1.6074,-1.5746,-1.4484,-1.3743,-1.3178,-1.1674,-5.1076,-5.0137,-5.1794,-5.0802,-4.8626,-4.9228,-4.7718,-4.515,-4.5687,-4.4422,-4.1757,-3.7361,-3.4107,-3.2894,-3.1771,-3.1091,-3.1825,-3.2245,-3.1365,-3.1365,-3.2035,-3.0371,-2.9022,-2.7476,-2.6115,-2.4714,-2.3539,-2.2414,-2.1787,-2.2869,-2.5122,-2.7432,-2.7072,-2.5394,-2.4447,-2.4291,-2.2628,-2.0748,-1.9829,-1.988,-2.0096,-2.0493,-2.1251,-2.3329,-2.431,-2.5491,-2.7152,-2.6643,-2.6401,-2.6193,-2.5914,-2.5813,-2.5253,-2.5153,-2.4907,-2.4847,-2.4673,-2.5322,-2.6456,-2.8003,-2.9019,-3.0627,-3.2144,-3.3564,-3.3984,-3.4013,-3.4027,-3.3998,-3.397,-3.3817,-3.2922,-3.1838,-3.1051,-3.0293,-2.9195,-2.7979,-2.6787,-2.5928,-2.5185,-2.4387,-2.4653,-2.5679,-2.5768,-2.6337,-2.6536,-2.5844,-2.4561,-2.3428,-2.3806,-2.3239,-2.3806,-2.4184,-2.431,-2.4321,-2.4184,-2.3408,-2.2083,-2.0943,-2.0701,-1.9959,-1.8995,-1.8881,-1.8594,-1.8414,-1.775,-1.7413,-1.7094,-1.736,-1.8043,-1.9554,-1.9521,-1.7968,-1.7039,-1.6032,-1.4311,-5.4794,-5.552,-5.4788,-5.3436,-5.1614,-5.0819,-4.93,-4.7484,-4.6412,-4.5178,-4.3451,-4.1825,-3.8975,-3.6326,-3.3664,-3.2612,-3.2429,-3.2245,-3.2245,-3.2245,-3.2245,-3.2035,-3.1288,-3.0182,-2.8973,-2.8494,-2.6541,-2.5908,-2.6578,-2.7898,-2.9227,-3.1091,-3.0195,-2.98,-2.9615,-2.8664,-2.7339,-2.5437,-2.4707,-2.3975,-2.3428,-2.3229,-2.3249,-2.3249,-2.3806,-2.4927,-2.5678,-2.6989,-2.7921,-2.8107,-2.8101,-2.8225,-2.8041,-2.7804,-2.7597,-2.7556,-2.7409,-2.8351,-3.0342,-3.1715,-3.3019,-3.4352,-3.5773,-3.5998,-3.7056,-3.793,-3.7737,-3.7397,-3.7381,-3.7559,-3.7381,-3.5788,-3.4512,-3.3227,-3.1992,-3.1018,-3.0,-2.9093,-2.8299,-2.7687,-2.769,-2.8251,-2.9032,-2.9306,-2.9047,-2.8142,-2.721,-2.6263,-2.5313,-2.4561,-2.4781,-2.541,-2.5566,-2.5588,-2.5242,-2.4833,-2.4383,-2.3667,-2.3947,-2.3701,-2.2634,-2.2142,-2.1224,-2.0595,-2.0162,-1.9841,-1.9523,-1.9953,-2.0547,-2.0547,-2.0359,-2.0044,-1.9656,-1.8838,-1.7352,-5.7956,-5.8685,-5.7739,-5.6506,-5.4815,-5.3161,-5.1435,-4.9905,-4.7973,-4.6284,-4.4875,-4.4366,-4.2118,-3.8285,-3.5474,-3.4237,-3.407,-3.4237,-3.4056,-3.4237,-3.4237,-3.386,-3.3118,-3.2374,-3.1288,-3.088,-3.0195,-2.9455,-3.001,-3.1274,-3.2245,-3.2049,-3.1838,-3.1838,-3.071,-3.1091,-3.0328,-2.9577,-2.8466,-2.735,-2.6428,-2.6053,-2.5866,-2.5855,-2.679,-2.7909,-2.8849,-2.9775,-3.0328,-3.0328,-3.0328,-3.029,-3.0174,-3.0008,-2.9983,-2.9917,-2.9596,-3.0919,-3.3341,-3.4332,-3.4527,-3.5459,-3.5983,-3.7251,-3.793,-3.8622,-3.9151,-3.9361,-3.9344,-3.9151,-3.8799,-3.7575,-3.6878,-3.58,-3.3616,-3.247,-3.1729,-3.1452,-3.1438,-3.1211,-3.0973,-3.1936,-3.2741,-3.3062,-3.2698,-3.1641,-3.0367,-2.9282,-2.8003,-2.6938,-2.7029,-2.7097,-2.7153,-2.7176,-2.7031,-2.6718,-2.6729,-2.6659,-2.6968,-2.6103,-2.5413,-2.4093,-2.2144,-2.1283,-2.1505,-2.1701,-2.1872,-2.1902,-2.1886,-2.1342,-2.0784,-2.0555,-2.0326,-1.9716,-1.9288,-6.0379,-6.0233,-6.0233,-5.9302,-5.7414,-5.5387,-5.3498,-5.1821,-4.96,-4.7787,-4.5889,-4.5552,-4.3683,-4.0571,-3.8317,-3.7639,-3.7282,-3.7266,-3.7088,-3.6746,-3.6746,-3.6028,-3.4752,-3.4571,-3.33,-3.257,-3.2232,-3.2429,-3.2781,-3.2963,-3.2963,-3.2963,-3.257,-3.1628,-3.236,-3.1811,-2.9762,-2.9393,-2.9405,-2.9035,-2.8664,-2.8293,-2.8664,-2.9393,-3.0144,-3.0697,-3.1641,-3.2374,-3.2935,-3.3118,-3.3314,-3.3496,-3.3692,-3.3692,-3.3692,-3.4208,-3.4208,-3.439,-3.4903,-3.5983,-3.6699,-3.652,-3.6668,-3.7266,-3.919,-4.0318,-4.1091,-4.0233,-4.0409,-4.0812,-4.067,-3.872,-3.7591,-3.6853,-3.5896,-3.4622,-3.3811,-3.4267,-3.3738,-3.3452,-3.4267,-3.5264,-3.6089,-3.6223,-3.6193,-3.4781,-3.3384,-3.217,-3.1142,-3.0441,-3.0027,-3.006,-2.998,-3.0066,-2.9936,-2.9683,-2.9561,-2.9669,-2.8855,-2.7783,-2.7496,-2.6793,-2.4368,-2.3265,-2.2242,-2.2667,-2.358,-2.3908,-2.3432,-2.3292,-2.3503,-2.2665,-2.1407,-2.0776,-2.0562,-6.1288,-6.0233,-6.0233,-5.9302,-5.7565,-5.5541,-5.3677,-5.1821,-4.96,-4.8305,-4.7807,-4.7308,-4.5947,-4.4214,-4.3169,-4.2326,-4.1129,-4.0955,-3.9905,-3.9201,-3.8848,-3.7801,-3.6193,-3.5113,-3.439,-3.4027,-3.3496,-3.351,-3.5308,-3.5849,-3.5684,-3.5669,-3.5503,-3.5308,-3.5128,-3.4194,-3.4419,-3.386,-3.3496,-3.2935,-3.2191,-3.0894,-2.9775,-2.8478,-2.9959,-3.088,-3.1825,-3.2935,-3.3496,-3.3692,-3.3692,-3.3692,-3.3692,-3.3692,-3.5098,-3.7559,-3.8108,-3.8092,-3.814,-3.8704,-3.9124,-3.919,-4.0013,-4.1758,-4.3182,-4.3718,-4.4819,-4.5598,-4.5161,-4.4524,-4.3816,-4.2371,-4.1199,-4.0362,-3.9036,-3.7706,-3.7128,-3.6566,-3.6003,-3.6774,-3.7448,-3.8027,-3.8478,-3.869,-3.8444,-3.7196,-3.6316,-3.5073,-3.4046,-3.3332,-3.3131,-3.3032,-3.29,-3.3006,-3.2436,-3.2,-3.1668,-3.152,-3.0798,-2.9893,-2.9619,-2.9115,-2.9285,-2.8544,-2.7053,-2.5756,-2.6084,-2.6623,-2.5804,-2.5594,-2.6014,-2.5594,-2.4339,-2.3503,-2.2241,-6.1975,-6.1288,-6.0499,-5.9622,-5.8387,-5.6506,-5.4947,-5.3723,-5.1501,-5.0393,-5.0393,-5.0068,-4.8717,-4.6708,-4.6186,-4.4536,-4.2671,-4.2171,-4.1633,-4.1129,-4.0763,-3.9713,-3.7962,-3.7235,-3.6357,-3.5833,-3.6699,-3.8124,-3.9218,-3.9218,-3.9377,-3.9025,-3.8333,-3.7978,-3.7817,-3.6956,-3.5879,-3.5157,-3.4796,-3.4252,-3.3496,-3.2753,-3.1825,-3.1077,-3.1641,-3.2008,-3.2388,-3.3314,-3.3496,-3.386,-3.4571,-3.4918,-3.5278,-3.6028,-3.7555,-3.9193,-3.9367,-3.9594,-4.0866,-4.1292,-4.0868,-4.1166,-4.2281,-4.3811,-4.5027,-4.5962,-4.5913,-4.6872,-4.6944,-4.6679,-4.6318,-4.4064,-4.2738,-4.1948,-4.038,-3.9135,-3.8799,-3.8622,-3.9487,-4.0554,-4.1091,-4.1418,-4.143,-4.1029,-4.0737,-3.9998,-3.9126,-3.791,-3.6665,-3.6438,-3.6381,-3.6174,-3.5607,-3.5075,-3.3689,-3.3339,-3.3176,-3.3164,-3.2786,-3.2063,-3.1538,-3.0515,-3.0897,-3.1877,-3.1671,-3.0118,-2.998,-2.9138,-2.8316,-2.7689,-2.748,-2.7261,-2.6633,-2.5594,-2.3917,-6.2654,-6.2231,-6.0933,-5.994,-5.9352,-5.7463,-5.6225,-5.5658,-5.3408,-5.2596,-5.2596,-5.2596,-5.0631,-4.8471,-4.7832,-4.6186,-4.4233,-4.372,-4.3206,-4.2671,-4.2499,-4.1633,-4.0239,-3.9696,-3.9025,-3.8688,-3.9905,-4.1286,-4.1825,-4.2171,-4.1477,-4.1633,-4.0414,-3.9713,-3.9201,-3.8156,-3.7119,-3.6746,-3.5849,-3.5143,-3.4404,-3.3678,-3.3132,-3.3132,-3.3132,-3.3314,-3.351,-3.351,-3.386,-3.4208,-3.5623,-3.6839,-3.8364,-4.0022,-4.1183,-4.2011,-4.1803,-4.2351,-4.3517,-4.3864,-4.2659,-4.1957,-4.3441,-4.5344,-4.558,-4.5853,-4.6837,-4.7637,-4.7799,-4.7609,-4.6774,-4.5245,-4.3731,-4.2738,-4.1774,-4.0554,-4.0606,-4.0936,-4.2021,-4.3804,-4.4551,-4.4985,-4.4689,-4.4332,-4.3178,-4.1741,-4.1206,-4.0348,-3.8759,-3.8486,-3.8785,-3.8767,-3.8335,-3.6764,-3.5349,-3.5255,-3.4605,-3.4702,-3.3917,-3.3383,-3.2807,-3.1635,-3.1865,-3.2919,-3.3138,-3.2714,-3.229,-3.1659,-3.082,-3.0406,-2.9565,-2.8722,-2.8733,-2.8524,-2.6433,-6.3463,-6.2231,-6.0933,-6.0087,-5.9352,-5.7512,-5.6473,-5.5859,-5.3566,-5.325,-5.2776,-5.2754,-5.1909,-5.0068,-4.9784,-4.8614,-4.7221,-4.6609,-4.5802,-4.4687,-4.463,-4.3359,-4.2225,-4.2122,-4.2037,-4.1477,-4.2505,-4.2678,-4.2678,-4.2189,-4.317,-4.2433,-4.153,-4.1548,-4.1059,-4.0131,-3.9239,-3.8917,-3.7487,-3.6211,-3.6346,-3.4898,-3.4367,-3.4382,-3.4396,-3.4396,-3.4411,-3.4382,-3.4658,-3.5998,-3.6341,-3.9113,-4.2426,-4.5053,-4.6297,-4.608,-4.5734,-4.5739,-4.6289,-4.6539,-4.657,-4.6427,-4.723,-4.7769,-4.8021,-4.8374,-4.8558,-4.8748,-4.8805,-4.8919,-4.833,-4.6524,-4.5698,-4.5168,-4.4607,-4.4155,-4.4211,-4.4751,-4.5198,-4.6599,-4.6655,-4.6843,-4.6869,-4.6893,-4.5125,-4.3756,-4.3216,-4.2506,-4.077,-3.9958,-4.0714,-4.0833,-4.0511,-3.9175,-3.8725,-3.8495,-3.6282,-3.5647,-3.4494,-3.4112,-3.3933,-3.3523,-3.3523,-3.4381,-3.419,-3.3972,-3.3548,-3.3125,-3.3125,-3.3536,-3.2701,-3.1659,-3.1246,-3.1039,-3.0199,-6.5344,-6.4398,-6.209,-6.0882,-6.0258,-5.8979,-5.8208,-5.7616,-5.6661,-5.6582,-5.6612,-5.4896,-5.3881,-5.3081,-5.1538,-5.0292,-4.931,-4.909,-4.8316,-4.7309,-4.6499,-4.531,-4.4137,-4.5327,-4.6591,-4.661,-4.6398,-4.6591,-4.6572,-4.6629,-4.6321,-4.6398,-4.5384,-4.4551,-4.4661,-4.2219,-4.1559,-4.1542,-3.9086,-3.8353,-3.9419,-3.7969,-3.7063,-3.8122,-3.8122,-3.7938,-3.7723,-3.7923,-3.8489,-3.9402,-4.0344,-4.2694,-4.5669,-4.6899,-4.7704,-4.7913,-4.7799,-4.778,-4.8444,-4.8463,-4.8254,-4.862,-4.9103,-4.9103,-4.9008,-4.9465,-4.9465,-4.9161,-4.8938,-4.8786,-4.7533,-4.6508,-4.6033,-4.5654,-4.5198,-4.5217,-4.5673,-4.6394,-4.7088,-4.7437,-4.7826,-4.8147,-4.8322,-4.8586,-4.7304,-4.6544,-4.6146,-4.5647,-4.3709,-4.3145,-4.3671,-4.3313,-4.2807,-4.2202,-4.1921,-4.0551,-3.8324,-3.7146,-3.6176,-3.5769,-3.5376,-3.5376,-3.5376,-3.4777,-3.4381,-3.4381,-3.419,-3.419,-3.3972,-3.4177,-3.3972,-3.4177,-3.3548,-3.2083,-3.1452,-6.7488,-6.7089,-6.3908,-6.225,-6.1705,-6.0752,-6.0124,-5.9838,-5.9658,-5.9866,-6.0133,-5.8011,-5.662,-5.6088,-5.4235,-5.2437,-5.177,-5.1618,-5.0997,-4.9916,-4.8844,-4.7419,-4.7012,-4.8605,-5.0021,-5.0021,-5.0277,-5.0257,-5.0041,-4.9745,-5.0277,-4.9845,-4.8257,-4.7956,-4.7522,-4.5035,-4.394,-4.4288,-4.1693,-4.1425,-4.2665,-4.1206,-4.0463,-4.156,-4.1576,-4.1626,-4.1677,-4.1677,-4.2418,-4.3586,-4.5005,-4.6146,-4.7612,-4.7977,-4.8425,-4.871,-4.8311,-4.8311,-4.9222,-4.8843,-4.8729,-4.9109,-4.9203,-4.9374,-4.8653,-4.9165,-4.9146,-4.8425,-4.8349,-4.7837,-4.6736,-4.6451,-4.6318,-4.5995,-4.5749,-4.6131,-4.7188,-4.772,-4.7788,-4.8134,-4.8677,-4.8998,-4.9114,-4.9359,-4.9434,-4.9566,-4.9016,-4.8654,-4.7854,-4.7015,-4.6702,-4.6105,-4.5421,-4.4417,-4.3917,-4.2725,-4.113,-3.9969,-3.8769,-3.7981,-3.7376,-3.7188,-3.6986,-3.6176,-3.4981,-3.4381,-3.419,-3.419,-3.419,-3.419,-3.419,-3.419,-3.3972,-3.2919,-3.2083,-6.9917,-6.9363,-6.6313,-6.4565,-6.3636,-6.2226,-6.1204,-6.0863,-6.0863,-6.0985,-6.0875,-6.0656,-5.9076,-5.8225,-5.724,-5.6608,-5.5263,-5.5146,-5.4249,-5.2563,-5.1059,-5.0169,-4.982,-5.0498,-5.0599,-5.0578,-5.0357,-5.0458,-5.0619,-5.0498,-5.0397,-5.0422,-5.0028,-4.9574,-4.9236,-4.8583,-4.825,-4.7846,-4.5342,-4.459,-4.4957,-4.3465,-4.2554,-4.2909,-4.2892,-4.2689,-4.2452,-4.2435,-4.4149,-4.885,-4.9189,-4.9057,-4.9339,-4.964,-4.9678,-4.945,-4.8805,-4.8444,-4.8691,-4.8159,-4.7761,-4.7989,-4.8577,-4.8482,-4.7989,-4.8349,-4.8292,-4.6944,-4.7191,-4.7134,-4.6546,-4.7046,-4.7318,-4.7691,-4.7331,-4.8467,-5.0007,-4.9616,-4.8919,-4.9509,-4.9623,-4.9887,-4.9812,-4.9641,-4.9243,-4.9622,-4.9053,-4.8863,-4.8463,-4.8081,-4.789,-4.768,-4.7087,-4.6456,-4.5684,-4.4731,-4.3542,-4.256,-4.1375,-4.0383,-3.9785,-3.9585,-3.8985,-3.7779,-3.6581,-3.5579,-3.4981,-3.4381,-3.419,-3.419,-3.419,-3.419,-3.419,-3.3343,-3.2919,-7.103,-6.9614,-6.7218,-6.5301,-6.3893,-6.2759,-6.2122,-6.1937,-6.1751,-6.2043,-6.21,-5.9856,-5.9113,-5.9857,-5.8531,-5.7688,-5.7523,-5.7568,-5.6223,-5.412,-5.3141,-5.3082,-5.3141,-5.2187,-5.1866,-5.1846,-5.1866,-5.2007,-5.1986,-5.1846,-5.1846,-5.1806,-5.1705,-5.1705,-5.1463,-5.041,-4.9859,-5.0207,-4.7564,-4.6986,-4.853,-4.6442,-4.5843,-4.6781,-4.663,-4.6442,-4.6442,-4.6442,-4.7026,-4.8412,-4.8799,-4.8596,-4.9039,-4.8799,-4.8539,-4.852,-4.8216,-4.7989,-4.7913,-4.7704,-4.7476,-4.7533,-4.7723,-4.7552,-4.7115,-4.7495,-4.7609,-4.6451,-4.6546,-4.6793,-4.7046,-4.7811,-4.9037,-5.0101,-4.9603,-4.946,-5.0489,-4.9991,-4.9678,-4.9887,-5.002,-5.002,-5.002,-4.9831,-4.9641,-4.9433,-4.9072,-4.9053,-4.8844,-4.8272,-4.8081,-4.7698,-4.7279,-4.6894,-4.6316,-4.593,-4.5154,-4.4959,-4.3967,-4.3379,-4.297,-4.3166,-4.1771,-3.9785,-3.8182,-3.6986,-3.5986,-3.5185,-3.479,-3.4177,-3.419,-3.419,-3.419,-3.3767,-3.3767,-7.2716,-7.1128,-6.9303,-6.7218,-6.5124,-6.4073,-6.3525,-6.306,-6.2822,-6.3426,-6.3386,-6.0149,-6.0337,-6.1799,-6.01,-5.9486,-6.014,-6.0323,-5.87,-5.6598,-5.6336,-5.6442,-5.6247,-5.509,-5.4523,-5.4664,-5.4741,-5.424,-5.3874,-5.3751,-5.3404,-5.3178,-5.2852,-5.2912,-5.2808,-5.1387,-5.1298,-5.1317,-4.8752,-4.8714,-5.047,-4.9131,-4.9034,-5.0359,-4.9963,-4.9774,-4.9812,-4.983,-4.9199,-4.8301,-4.7693,-4.7693,-4.8064,-4.7827,-4.7628,-4.7552,-4.7343,-4.7134,-4.7096,-4.6888,-4.6774,-4.6812,-4.6944,-4.6774,-4.6033,-4.6703,-4.6798,-4.6451,-4.6318,-4.666,-4.735,-4.8161,-4.9466,-5.1613,-5.3107,-5.3119,-5.1946,-5.0755,-5.002,-5.002,-5.002,-5.002,-5.002,-4.9831,-4.9831,-4.9831,-4.9641,-4.9433,-4.9243,-4.8863,-4.8272,-4.789,-4.7507,-4.7333,-4.714,-4.7158,-4.6966,-4.6755,-4.6263,-4.5308,-4.5538,-4.5486,-4.3838,-4.2017,-4.0628,-3.8784,-3.7578,-3.6406,-3.5185,-3.4381,-3.4177,-3.419,-3.419,-3.4177,-3.4177,-7.5782,-7.4871,-7.3162,-7.0855,-6.8444,-6.7041,-6.5497,-6.43,-6.4133,-6.4158,-6.4255,-6.3508,-6.3702,-6.4015,-6.3416,-6.3223,-6.3921,-6.3585,-6.2403,-6.1115,-6.0553,-5.9621,-5.8467,-5.8115,-5.7674,-5.7718,-5.7696,-5.7028,-5.5124,-5.4964,-5.4768,-5.3137,-5.2912,-5.2767,-5.2337,-5.227,-5.1858,-5.1407,-5.0697,-5.0151,-5.0547,-4.9982,-4.9812,-4.9944,-4.9982,-4.9944,-4.9697,-4.9052,-4.8311,-4.7609,-4.7305,-4.721,-4.7381,-4.7438,-4.7305,-4.7229,-4.6698,-4.6394,-4.6147,-4.5787,-4.535,-4.5445,-4.6093,-4.5938,-4.5673,-4.6359,-4.6992,-4.6882,-4.6725,-4.6969,-4.772,-4.8471,-4.8859,-4.9979,-5.5177,-5.7319,-5.557,-5.2171,-5.0904,-5.0378,-5.002,-5.002,-5.0209,-5.002,-5.002,-5.002,-4.9831,-4.9831,-4.9641,-4.9072,-4.8463,-4.8081,-4.7507,-4.7333,-4.714,-4.6966,-4.6966,-4.6879,-4.7146,-4.6809,-4.7057,-4.6686,-4.5767,-4.4313,-4.2887,-4.0811,-3.9385,-3.824,-3.7042,-3.6,-3.5185,-3.4381,-3.419,-3.4177,-3.4177,-7.5243,-7.3854,-7.2942,-7.0651,-6.7752,-6.7161,-6.5911,-6.4471,-6.4304,-6.4304,-6.4304,-6.4304,-6.4304,-6.4304,-6.4304,-6.4304,-6.4304,-6.4304,-6.3945,-6.3416,-6.3223,-6.178,-5.969,-5.945,-5.8664,-5.7061,-5.6838,-5.6054,-5.4808,-5.3735,-5.3139,-5.2956,-5.2429,-5.1966,-5.1437,-5.1953,-5.1583,-5.047,-5.0633,-5.0566,-5.019,-5.002,-4.9773,-4.9374,-4.9735,-4.9469,-4.8406,-4.7609,-4.702,-4.6698,-4.6166,-4.5919,-4.59,-4.5919,-4.59,-4.5843,-4.5616,-4.5464,-4.5426,-4.5179,-4.4989,-4.5178,-4.6258,-4.6934,-4.6925,-4.7994,-4.9107,-4.9575,-4.9542,-5.0263,-5.1798,-5.279,-5.3383,-5.3338,-5.6476,-5.6984,-5.629,-5.4502,-5.3608,-5.3241,-5.2502,-5.1966,-5.1446,-5.0904,-5.002,-5.002,-5.002,-5.002,-4.9831,-4.928,-4.8863,-4.8291,-4.7898,-4.7584,-4.7248,-4.7073,-4.7055,-4.7393,-4.7786,-4.7928,-4.8035,-4.7875,-4.7696,-4.6269,-4.5078,-4.303,-4.1564,-4.0382,-3.9133,-3.824,-3.7376,-3.6392,-3.5593,-3.5185,-3.4228,-7.5071,-7.3708,-7.3266,-7.1289,-6.8574,-6.7752,-6.665,-6.5277,-6.4471,-6.4304,-6.4304,-6.4304,-6.4304,-6.4304,-6.4304,-6.4304,-6.428,-6.3914,-6.3987,-6.4255,-6.4304,-6.3198,-6.1524,-6.0954,-5.984,-5.8386,-5.8077,-5.7298,-5.603,-5.4661,-5.3435,-5.3297,-5.2523,-5.1721,-5.1123,-5.1056,-5.0848,-4.9685,-4.9607,-4.9728,-4.9789,-4.9621,-4.9336,-4.9046,-4.9279,-4.8672,-4.6831,-4.6413,-4.6128,-4.5843,-4.5293,-4.4989,-4.4989,-4.4989,-4.4989,-4.4989,-4.4989,-4.4989,-4.497,-4.5479,-4.5798,-4.6135,-4.7435,-4.8264,-4.8594,-4.9453,-5.0634,-5.1865,-5.2077,-5.2991,-5.4679,-5.6204,-5.6817,-5.7496,-5.7847,-5.8157,-5.7115,-5.667,-5.6469,-5.575,-5.4664,-5.3934,-5.3588,-5.2872,-5.1985,-5.1652,-5.1111,-5.0739,-5.0513,-4.971,-4.906,-4.9006,-4.8477,-4.8143,-4.8178,-4.814,-4.8249,-4.8356,-4.8623,-4.8802,-4.8837,-4.8748,-4.8588,-4.783,-4.6754,-4.5484,-4.4155,-4.2782,-4.1491,-4.0382,-3.8932,-3.788,-3.7216,-3.6258,-3.4923,-7.5671,-7.5272,-7.5013,-7.3322,-7.1164,-6.9595,-6.8179,-6.6412,-6.5013,-6.4251,-6.3889,-6.4349,-6.4202,-6.4109,-6.3914,-6.4158,-6.3962,-6.3206,-6.3328,-6.4231,-6.4304,-6.4206,-6.3772,-6.2707,-6.2469,-6.322,-6.2731,-6.126,-5.9381,-5.7996,-5.6333,-5.4418,-5.3253,-5.2138,-5.0922,-4.9906,-4.9408,-4.9136,-4.8379,-4.8379,-4.9184,-4.9027,-4.897,-4.9184,-4.9058,-4.7647,-4.5312,-4.5825,-4.5825,-4.516,-4.4989,-4.4989,-4.4989,-4.4989,-4.4989,-4.4989,-4.4989,-4.4989,-4.514,-4.6452,-4.7141,-4.7767,-4.9087,-4.9884,-5.0188,-5.0524,-5.1536,-5.3283,-5.3546,-5.408,-5.5776,-5.6692,-5.7937,-6.0969,-6.1894,-6.1279,-5.9645,-5.8735,-5.816,-5.6864,-5.6229,-5.5814,-5.5814,-5.5341,-5.457,-5.3852,-5.2902,-5.2013,-5.1642,-5.0226,-4.94,-4.9709,-4.9309,-4.8984,-4.9009,-4.94,-4.9408,-4.9318,-4.9568,-4.9782,-4.9853,-4.9532,-4.9372,-4.9229,-4.8139,-4.7439,-4.6092,-4.5586,-4.4187,-4.3089,-4.0163,-3.8892,-3.8501,-3.7895,-3.6188,-7.5594,-7.5071,-7.455,-7.335,-7.162,-6.9879,-6.7895,-6.5745,-6.4785,-6.3525,-6.2651,-6.3716,-6.3455,-6.2318,-6.2059,-6.2449,-6.306,-6.2815,-6.323,-6.4231,-6.4304,-6.3889,-6.3206,-6.2791,-6.2815,-6.2937,-6.2059,-6.0941,-5.9791,-5.8386,-5.6701,-5.4862,-5.4237,-5.2283,-4.9709,-5.0273,-4.9771,-4.8542,-4.8767,-4.9279,-4.9675,-4.9218,-4.8646,-4.8151,-4.8236,-4.7567,-4.5938,-4.554,-4.5236,-4.5027,-4.4989,-4.4989,-4.4989,-4.4989,-4.4989,-4.4989,-4.4989,-4.546,-4.6471,-4.6116,-4.6787,-4.9067,-4.9863,-5.0695,-5.2069,-5.3654,-5.5245,-5.6494,-5.7335,-5.8266,-5.9606,-6.0992,-6.235,-6.3384,-6.3998,-6.3842,-6.298,-6.2709,-6.2304,-6.1493,-5.9974,-5.8916,-5.8612,-5.71,-5.5971,-5.5295,-5.4168,-5.3284,-5.2759,-5.146,-5.0236,-5.0072,-4.983,-4.955,-4.9675,-5.0181,-5.0602,-5.062,-5.0816,-5.0976,-5.0994,-5.0441,-5.012,-4.9996,-4.956,-4.8851,-4.8534,-4.7981,-4.7439,-4.6801,-4.4229,-4.1524,-4.1407,-4.0245,-3.8965,-7.5338,-7.4243,-7.4235,-7.3645,-7.2346,-6.9734,-6.7634,-6.5844,-6.3305,-6.162,-6.1339,-6.2576,-6.2343,-6.0985,-6.0668,-6.0863,-6.1522,-6.2303,-6.2986,-6.3645,-6.4109,-6.3914,-6.3206,-6.2791,-6.2791,-6.2986,-6.2108,-6.1315,-6.0693,-5.9344,-5.7982,-5.6882,-5.6267,-5.4166,-5.1276,-5.1224,-5.0558,-4.8628,-4.8799,-4.9241,-4.9599,-4.9403,-4.8665,-4.7932,-4.772,-4.7146,-4.6261,-4.5426,-4.4989,-4.4989,-4.4989,-4.4989,-4.4989,-4.4989,-4.4989,-4.4989,-4.4989,-4.5383,-4.6383,-4.6649,-4.8058,-5.0448,-5.1457,-5.2662,-5.3927,-5.5673,-5.7586,-5.8903,-5.9931,-6.124,-6.2596,-6.4208,-6.5097,-6.4839,-6.5003,-6.5097,-6.4816,-6.4699,-6.4699,-6.4518,-6.3176,-6.1636,-6.0924,-5.9351,-5.7898,-5.7324,-5.6342,-5.5104,-5.4162,-5.2705,-5.1482,-5.0887,-5.038,-5.0156,-5.0174,-5.1136,-5.1671,-5.1671,-5.1671,-5.1618,-5.16,-5.1065,-5.0887,-5.078,-5.0691,-5.0252,-4.9956,-4.9567,-4.9116,-4.8437,-4.6772,-4.4973,-4.614,-4.2984,-4.1332,-7.4948,-7.3332,-7.3896,-7.4259,-7.3854,-6.9768,-6.7793,-6.7199,-6.1149,-5.937,-6.0826,-6.0972,-6.0888,-6.0814,-5.9838,-5.9545,-6.0009,-6.1595,-6.2474,-6.2986,-6.3743,-6.4231,-6.4206,-6.323,-6.3255,-6.4011,-6.3133,-6.2742,-6.253,-6.163,-6.0701,-5.9833,-5.8945,-5.7235,-5.429,-5.2665,-5.1331,-5.018,-4.8743,-4.8284,-4.928,-4.9946,-4.9888,-4.8886,-4.7547,-4.6725,-4.6147,-4.5426,-4.4989,-4.4989,-4.4989,-4.4989,-4.4989,-4.4989,-4.4989,-4.4989,-4.4989,-4.495,-4.5775,-4.7978,-5.0469,-5.2123,-5.3791,-5.5203,-5.5342,-5.6716,-5.8376,-5.9983,-6.1247,-6.2712,-6.4559,-6.5728,-6.5868,-6.5237,-6.5751,-6.5774,-6.505,-6.5167,-6.4886,-6.498,-6.4915,-6.423,-6.345,-6.237,-6.1268,-6.0349,-5.9061,-5.7587,-5.598,-5.4165,-5.2833,-5.2101,-5.1722,-5.1653,-5.1635,-5.1671,-5.1671,-5.1689,-5.1689,-5.1671,-5.1671,-5.1689,-5.1635,-5.1564,-5.1386,-5.1315,-5.1422,-5.1065,-5.0334,-4.9567,-4.8106,-4.7402,-4.7864,-4.5329,-4.4139,-7.4433,-7.2936,-7.3779,-7.4259,-7.4,-7.0811,-6.8889,-6.7503,-6.3174,-6.0905,-6.0303,-5.9172,-5.9179,-5.9692,-5.8813,-5.9667,-6.1449,-6.079,-6.1595,-6.3645,-6.3279,-6.3548,-6.4231,-6.3962,-6.4011,-6.4206,-6.3962,-6.384,-6.3792,-6.3499,-6.2479,-6.0742,-6.0579,-5.8801,-5.5289,-5.4105,-5.283,-5.1304,-4.9887,-4.9431,-5.0144,-5.3221,-5.3797,-5.1184,-5.0125,-4.8744,-4.6417,-4.5426,-4.4989,-4.4989,-4.4989,-4.4989,-4.4989,-4.4989,-4.4989,-4.4989,-4.4989,-4.6057,-4.8553,-4.8491,-5.0026,-5.3768,-5.4472,-5.5201,-5.6597,-5.8856,-6.045,-6.1364,-6.2817,-6.4705,-6.6406,-6.713,-6.7177,-6.6966,-6.7083,-6.72,-6.6896,-6.6896,-6.6803,-6.6873,-6.65,-6.6499,-6.5323,-6.4284,-6.3475,-6.3114,-6.1589,-6.0035,-5.8986,-5.6401,-5.4238,-5.344,-5.2499,-5.1883,-5.1689,-5.1883,-5.1689,-5.1689,-5.1689,-5.1689,-5.1689,-5.1689,-5.1689,-5.1689,-5.1689,-5.1653,-5.16,-5.16,-5.1172,-5.1065,-5.061,-5.0155,-4.9718,-4.8287,-4.7272,-7.425,-7.1889,-7.3554,-7.4005,-7.3011,-7.0012,-6.8139,-6.7511,-6.5222,-6.2625,-6.0131,-5.8536,-5.8472,-5.9497,-5.9301,-5.9911,-6.1278,-6.0961,-6.1839,-6.345,-6.3426,-6.3645,-6.4255,-6.4304,-6.4304,-6.4304,-6.4304,-6.4304,-6.4304,-6.4304,-6.3585,-6.2304,-6.2498,-6.0975,-5.7993,-5.7056,-5.5654,-5.3873,-5.2977,-5.2727,-5.3241,-5.575,-5.5811,-5.2932,-5.1936,-5.0221,-4.7284,-4.5938,-4.5331,-4.5008,-4.4989,-4.4989,-4.4989,-4.4989,-4.4989,-4.497,-4.5629,-4.7394,-5.0567,-5.0188,-5.1362,-5.5086,-5.5383,-5.598,-5.7456,-5.97,-6.1622,-6.2736,-6.4355,-6.601,-6.7411,-6.7668,-6.7691,-6.7691,-6.7691,-6.7479,-6.7099,-6.6932,-6.6742,-6.636,-6.636,-6.5931,-6.4991,-6.4626,-6.4648,-6.426,-6.363,-6.2322,-6.1376,-5.9377,-5.7164,-5.5274,-5.5087,-5.4483,-5.3458,-5.3267,-5.2884,-5.2077,-5.1689,-5.1689,-5.1689,-5.1689,-5.1689,-5.1689,-5.1689,-5.1689,-5.1689,-5.1689,-5.1689,-5.16,-5.1653,-5.1689,-5.1689,-5.0591,-4.9933,-7.3983,-7.0984,-7.2877,-7.33,-7.1973,-6.8386,-6.6807,-6.6807,-6.6777,-6.4327,-6.0396,-5.8857,-5.8828,-5.9667,-6.0448,-6.0546,-6.0351,-6.1717,-6.2571,-6.2774,-6.3743,-6.4206,-6.4112,-6.4304,-6.4304,-6.4304,-6.4304,-6.4304,-6.4304,-6.4304,-6.4304,-6.4304,-6.4304,-6.3392,-6.1622,-6.0566,-5.9127,-5.7518,-5.7162,-5.7184,-5.7718,-5.7518,-5.6426,-5.4622,-5.3051,-5.1023,-4.8346,-4.6912,-4.59,-4.5179,-4.5027,-4.4989,-4.4989,-4.4989,-4.4989,-4.497,-4.6452,-4.8512,-5.1145,-5.2392,-5.3476,-5.5179,-5.6314,-5.7523,-5.8365,-5.9536,-6.1481,-6.4115,-6.5611,-6.6476,-6.7411,-6.7621,-6.7691,-6.7691,-6.7691,-6.7312,-6.6551,-6.6169,-6.5977,-6.5014,-6.5229,-6.441,-6.3998,-6.4215,-6.4454,-6.4454,-6.426,-6.3825,-6.2584,-6.1773,-6.0317,-5.788,-5.8083,-5.8285,-5.5855,-5.5423,-5.4256,-5.2288,-5.1689,-5.1689,-5.1689,-5.1689,-5.1689,-5.1689,-5.1689,-5.1689,-5.1689,-5.1689,-5.1689,-5.1689,-5.1689,-5.1689,-5.1689,-5.1459,-5.1459,-7.1856,-6.9293,-7.0789,-7.1268,-7.0873,-6.9105,-6.8323,-6.8131,-6.725,-6.5047,-6.1922,-6.0847,-6.0449,-6.0654,-6.0082,-6.1083,-6.284,-6.1961,-6.2117,-6.322,-6.2808,-6.2836,-6.3247,-6.3609,-6.3777,-6.3753,-6.4137,-6.4304,-6.4304,-6.4304,-6.4304,-6.4304,-6.4304,-6.3945,-6.3054,-6.1427,-6.0173,-5.9522,-6.1106,-6.184,-6.1692,-6.0242,-5.8425,-5.6362,-5.341,-5.0943,-4.9318,-4.7394,-4.6147,-4.5938,-4.5331,-4.4989,-4.4989,-4.4989,-4.4989,-4.4989,-4.531,-4.6432,-4.8553,-5.1179,-5.3634,-5.5311,-5.7103,-5.8225,-5.8575,-6.0262,-6.2455,-6.526,-6.5915,-6.6195,-6.6522,-6.7153,-6.7691,-6.7691,-6.7691,-6.7409,-6.7312,-6.7312,-6.7123,-6.6932,-6.6146,-6.5547,-6.5377,-6.482,-6.4626,-6.4432,-6.4454,-6.4432,-6.402,-6.2977,-6.2146,-6.1135,-6.1135,-5.9938,-5.5294,-5.5048,-5.4464,-5.2077,-5.1689,-5.1689,-5.1689,-5.1689,-5.1689,-5.1689,-5.1689,-5.1689,-5.1689,-5.1689,-5.1689,-5.1689,-5.1689,-5.1689,-5.1689,-5.1689,-5.1689,-7.0505,-6.9034,-7.0083,-7.0253,-6.966,-6.904,-6.8419,-6.7883,-6.7133,-6.5461,-6.3111,-6.1676,-6.0802,-6.0229,-5.9765,-6.0473,-6.2083,-6.1216,-6.159,-6.3095,-6.2739,-6.2886,-6.3247,-6.3416,-6.344,-6.3295,-6.3609,-6.3801,-6.3801,-6.3969,-6.3945,-6.3945,-6.4304,-6.4112,-6.3945,-6.2692,-6.1964,-6.1645,-6.2739,-6.2887,-6.2288,-6.0989,-5.8983,-5.6225,-5.3585,-5.1079,-4.8665,-4.6516,-4.5273,-4.5103,-4.4306,-4.4002,-4.4416,-4.4363,-4.4591,-4.4951,-4.5648,-4.6619,-4.7621,-5.0878,-5.3634,-5.5288,-5.6892,-5.778,-5.778,-5.965,-6.1754,-6.3811,-6.4536,-6.498,-6.547,-6.5985,-6.6335,-6.6335,-6.5941,-6.5359,-6.4985,-6.4587,-6.4203,-6.4205,-6.372,-6.3705,-6.4514,-6.4215,-6.402,-6.4432,-6.4454,-6.482,-6.5207,-6.4193,-6.3195,-6.3216,-6.3238,-6.1042,-5.694,-5.6363,-5.5182,-5.2306,-5.1689,-5.1689,-5.1689,-5.1689,-5.1689,-5.1689,-5.1689,-5.1689,-5.1689,-5.1689,-5.1689,-5.1689,-5.1689,-5.1689,-5.1689,-5.1689,-5.1689,-6.9455,-6.856,-6.9632,-6.9435,-6.8475,-6.8475,-6.7883,-6.682,-6.6877,-6.5651,-6.3679,-6.1545,-6.0252,-5.9521,-5.9366,-5.9439,-5.9789,-6.0193,-6.1041,-6.2287,-6.286,-6.3223,-6.3055,-6.3368,-6.3271,-6.2957,-6.2957,-6.2957,-6.2981,-6.3295,-6.3416,-6.3633,-6.4115,-6.438,-6.4356,-6.3995,-6.3729,-6.3874,-6.3558,-6.2981,-6.2097,-6.1354,-5.9206,-5.5661,-5.3581,-5.0937,-4.7806,-4.5508,-4.4086,-4.3755,-4.2996,-4.293,-4.3588,-4.3654,-4.3907,-4.474,-4.6098,-4.7154,-4.7565,-5.0363,-5.2868,-5.4822,-5.6197,-5.6962,-5.7009,-5.8692,-6.0235,-6.1263,-6.2572,-6.3507,-6.4138,-6.4378,-6.4705,-6.4616,-6.3816,-6.292,-6.2492,-6.193,-6.1506,-6.1287,-6.0662,-6.1632,-6.3086,-6.3129,-6.3064,-6.4197,-6.398,-6.4432,-6.5184,-6.5014,-6.4626,-6.426,-6.437,-6.2559,-5.9034,-5.81,-5.648,-5.271,-5.1883,-5.1689,-5.1689,-5.1689,-5.1689,-5.1689,-5.1689,-5.1689,-5.1689,-5.1689,-5.1689,-5.1689,-5.1689,-5.1689,-5.1689,-5.1689,-5.1689,-6.8808,-6.7234,-6.746,-6.7431,-6.7234,-6.7206,-6.7093,-6.6895,0.0,0.0,0.0,-5.9757,-5.8782,-5.9497,-5.8744,-5.9359,-6.0766,-6.0508,-6.0381,-6.0461,-6.1306,-6.1286,-6.0832,-6.2382,-6.2787,-6.2447,-6.3102,-6.3271,-6.2981,-6.2957,-6.315,-6.3222,-6.4013,-6.442,-6.442,-6.442,-6.4851,-6.5489,-6.5537,-6.5466,-6.5298,-6.3229,-6.0881,-5.8221,-5.4567,-5.112,-4.8402,-4.5637,-4.4067,-4.3736,-4.2996,-4.2597,-4.2854,-4.3034,-4.3271,-4.3425,-4.407,-4.5169,-4.698,-4.7666,-4.9583,-5.3115,-5.5541,-5.6962,-5.6962,-5.8061,-5.9183,-6.0211,-6.2058,-6.2853,-6.2175,-6.2865,-6.3679,-6.4527,-6.3638,-6.3365,-6.3934,-6.4475,-6.4363,-6.3927,-6.3495,-6.3958,-6.3978,-6.2706,-6.2313,-6.3736,-6.3301,-6.2649,-6.4237,-6.4476,-6.4109,-6.3434,-6.3238,-6.2254,-5.964,-5.8447,-5.6979,-5.3895,-5.2481,-5.1689,-5.1689,-5.1689,-5.1689,-5.1689,-5.1689,-5.1689,-5.1689,-5.1689,-5.1689,-5.1689,-5.1689,-5.1689,-5.1689,-5.1689,-5.1689,-6.8235,0.0,-6.6895,-6.6895,0.0,-6.6895,-6.6895,-6.6895,-6.6018,-6.448,-6.2205,-6.0218,-5.955,-5.9653,-5.8313,-5.8296,-5.9089,-5.902,-5.8991,-5.9086,-5.988,-5.9865,-5.956,-6.0574,-6.0835,-6.0383,-6.138,-6.1902,-6.2252,-6.2992,-6.3686,-6.4209,-6.4884,-6.5059,-6.4582,-6.5059,-6.567,-6.6514,-6.6147,-6.58,-6.4922,-6.3454,-6.1645,-5.9263,-5.4685,0.0,0.0,0.0,0.0,0.0,0.0,0.0,0.0,0.0,0.0,-4.3232,-4.2978,-4.3617,-4.5218,-4.6369,-4.8029,-5.0331,-5.29,-5.4087,-5.3401,-5.4769,-5.5931,-5.6832,-5.8284,-5.9275,-5.9629,-5.9484,-6.0515,-6.2627,-6.1854,-6.1317,-6.2084,-6.2751,-6.2973,-6.2323,-6.2194,-6.265,-6.3521,-6.2292,-6.2093,-6.3453,-6.2908,-6.2451,-6.2889,-6.3478,-6.3366,-6.2319,-6.2232,-6.1241,-5.8386,-5.7453,-5.6354,-5.3667,-5.2288,-5.1671,-5.1689,-5.1689,-5.1689,-5.1689,-5.1689,-5.1689,-5.1689,-5.1689,-5.1689,-5.1689,-5.1689,-5.1689,-5.1689,-5.1689,-5.1689,-6.8008,-6.6895,-6.6895,-6.6895,-6.6895,-6.6895,-6.6895,-6.6764,-6.5158,-6.374,-6.2372,-6.1129,-6.0207,-5.9471,-5.8039,-5.7312,-5.7106,-5.7151,-5.7674,-5.8611,-5.9094,-5.9504,-5.9694,-5.9694,-5.9487,-5.9113,-5.9864,-6.0707,-6.1567,-6.2756,-6.3778,-6.4603,-6.5362,-6.5326,-6.4566,0.0,0.0,0.0,-6.6039,-6.5255,-6.392,-6.3544,-6.2255,-5.9742,-5.5536,0.0,-5.084,-4.6549,-4.3948,-4.3471,-4.2882,0.0,0.0,0.0,0.0,0.0,0.0,0.0,0.0,0.0,0.0,0.0,-4.9184,-5.0083,-4.9695,-5.1123,-5.2473,-5.3339,-5.4494,-5.5744,-5.6841,-5.629,-5.7044,-5.9962,-5.9177,-5.871,-5.9524,-6.011,-6.042,-6.0187,-6.051,-6.122,-6.2692,-6.2099,-6.1944,-6.3171,-6.3106,-6.271,-6.1979,-6.2649,-6.2597,-6.1907,-6.1589,-6.0443,-5.798,-5.7374,-5.6334,-5.344,-5.2499,-5.2077,-5.1883,-5.1689,-5.1689,-5.1689,-5.1689,-5.1689,-5.1689,-5.1689,-5.1689,-5.1689,-5.1689,-5.1689,-5.1689,-5.1689,-5.1689,-6.849,-6.6895,-6.6895,-6.6895,-6.6895,-6.6895,-6.6895,-6.6764,-6.5158,-6.374,-6.2372,-6.0516,-5.8808,-5.7614,-5.8039,-5.7589,-5.6625,-5.6261,-5.727,-5.9317,-6.0364,-6.1017,-6.1701,-6.1888,-6.1737,-6.127,-6.0856,-6.0853,-6.1715,-6.1856,-6.1997,-6.2208,-6.3989,-6.4833,-6.4692,-6.4809,-6.4505,-6.3755,-6.4505,-6.4809,-6.4669,-6.4512,-6.3175,-6.0379,-5.8732,-5.5365,-4.9709,-4.8055,-4.599,-4.2892,-4.2616,-4.2569,-4.2602,-4.2007,-4.1434,0.0,-4.0363,0.0,0.0,0.0,0.0,0.0,0.0,0.0,0.0,-4.9451,-5.05,-5.2581,-5.4223,-5.4857,-5.4155,-5.4852,-5.5337,-5.5498,-5.6027,-5.6666,-5.757,-5.9884,-6.1134,-6.0254,-6.1544,-6.2602,-6.2777,-6.2192,-6.22,-6.3622,-6.3329,-6.264,-6.2831,-6.2813,-6.2663,-6.2916,-6.2034,-6.1051,-6.0454,-5.9315,-5.786,-5.608,-5.4389,-5.3286,-5.1794,-5.16,-5.1635,-5.1635,-5.16,-5.1635,-5.1689,-5.1671,-5.1671,-5.1689,-5.1689,-5.1689,-5.1725,-5.176,-5.1689,-6.8588,-6.6895,-6.6895,-6.6895,-6.6736,-6.6018,-6.5589,-6.5427,-6.302,-6.2487,-6.296,-6.0516,-5.8932,-5.8064,-5.7288,-5.673,-5.6296,-5.6578,-5.7146,-5.8264,-6.0058,-6.0639,-6.018,-6.0944,-6.085,-6.0004,-6.0122,-6.0684,-6.1692,-6.2175,-6.2736,-6.332,-6.4232,-6.4294,-6.3391,-6.3885,-6.4237,-6.4355,-6.5183,-6.5575,-6.573,-6.573,-6.4923,-6.3073,-6.0645,-5.7493,-5.375,-5.0459,-4.7669,-4.5556,-4.4366,-4.3616,-4.2907,-4.1774,-4.0775,0.0,0.0,0.0,0.0,0.0,0.0,0.0,0.0,0.0,0.0,0.0,-4.7614,-4.9085,-5.0929,-5.1898,-5.1727,-5.1887,-5.2394,-5.3047,-5.3933,-5.4963,-5.6233,-5.8426,-5.9263,-5.8169,-5.9194,-5.9998,-6.0533,-6.0275,-6.0659,-6.2506,-6.205,-6.1164,-6.0718,-6.1089,-6.122,-6.0591,-6.023,-5.9954,-5.9933,-5.7959,-5.5342,-5.3145,-5.196,-5.1159,-5.0577,-5.0388,-5.037,-5.0406,-5.0726,-5.0994,-5.1029,-5.1332,-5.1671,-5.1689,-5.1689,-5.1832,-5.2224,-5.2331,-5.2491,-6.849,-6.6839,-6.6116,-6.5901,-6.5759,-6.4583,-6.4017,-6.3713,-6.1184,-6.0937,-6.2196,-5.9979,-5.863,-5.7906,-5.6322,-5.5448,-5.5257,-5.6076,-5.7064,-5.8027,-5.9595,-5.9935,-5.9609,-5.9854,-5.9612,-5.902,-5.9724,-6.0618,-6.1544,-6.2647,-6.3354,-6.3731,-6.3497,-6.2836,-6.1428,-6.2181,-6.3221,-6.4261,-6.4698,-6.5146,-6.5474,-6.5474,-6.5146,-6.4438,-6.1815,-5.9092,-5.6656,-5.2819,-4.9643,-4.7609,-4.5837,-4.4308,-4.2998,-4.1298,0.0,0.0,0.0,0.0,0.0,0.0,0.0,0.0,0.0,-4.0149,-4.0965,0.0,-4.4492,0.0,-4.8147,-4.9443,-4.9459,-4.9487,0.0,0.0,-5.1347,-5.2503,-5.4108,-5.5783,-5.6594,-5.6157,-5.6719,-5.7426,-5.8048,-5.8418,-5.9104,-6.0272,-6.0039,-5.9402,-5.8574,-5.9147,-5.9423,-5.8616,-5.8234,-5.8064,-5.7898,-5.5893,-5.3401,-5.0455,-4.9906,-4.9705,-4.9521,-4.9318,-4.9318,-4.9354,-4.9817,-5.0138,-5.0192,-5.0851,-5.1279,-5.1154,-5.1279,-5.1582,-5.2135,-5.242,-5.2705,-6.7879,-6.667,-6.4159,-6.3057,-6.3055,-6.2657,-6.2443,-6.2487,-6.0753,-5.9666,-5.8825,-5.7771,-5.6541,-5.5078,-5.4621,0.0,-5.3102,-5.4146,-5.6726,-6.0274,-5.948,-6.0018,-6.184,-5.9911,-5.9277,-5.9861,-6.0257,-6.0878,-6.1622,-6.2335,-6.2116,-6.1071,-6.0219,-5.966,-5.902,-5.9475,-6.0195,-6.1071,-6.1699,-6.1973,-6.1973,-6.195,-6.195,-6.1973,-6.2004,-5.9807,-5.5136,-5.4704,-5.2448,-4.7764,-4.5405,-4.3876,-4.2901,0.0,0.0,0.0,0.0,0.0,0.0,0.0,0.0,0.0,0.0,0.0,0.0,0.0,0.0,-4.4931,-4.7292,0.0,-4.7836,-4.8397,0.0,0.0,0.0,-4.853,-4.9542,-5.1589,-5.3375,-5.4757,0.0,0.0,-5.6684,-5.7426,-5.7862,-5.764,-5.834,-5.8489,-5.7576,-5.8149,-5.851,-5.7512,-5.6663,-5.6132,-5.6281,-5.5292,-5.383,-5.1563,-5.1617,-5.0709,-4.9561,-4.9194,-4.9283,-4.9211,-4.9354,-4.9408,-4.9408,-4.9996,-5.0352,-4.9657,-5.0085,-5.0584,-5.0762,-5.1332,-5.1885,-6.5973,-6.2569,-6.1124,-6.047,-6.0146,-5.9432,-5.9368,-5.9519,-5.8499,-5.765,-5.6814,-5.4863,-5.333,-5.1746,-5.0321,0.0,0.0,0.0,-5.4396,-5.7105,-5.8561,-5.9571,-6.0116,-5.9915,-6.0333,-6.1237,-6.1345,-6.1899,-6.2739,-6.2983,-6.1032,-5.6835,0.0,0.0,-5.6715,-5.8402,-5.9485,-5.9982,-6.1846,-6.2545,-6.1934,-6.2252,-6.2276,-6.2081,-6.2105,-6.1053,-5.8413,-5.6116,-5.3139,-4.9419,-4.5522,-4.2006,0.0,0.0,0.0,0.0,0.0,0.0,0.0,0.0,0.0,0.0,0.0,-3.5461,-3.6678,0.0,0.0,0.0,-4.3535,-4.5173,-4.5662,-4.6423,0.0,0.0,0.0,0.0,0.0,0.0,0.0,-5.1089,-5.2703,-5.401,-5.5062,-5.5291,-5.5325,-5.4774,-5.5092,-5.5198,-5.4816,0.0,-5.5411,-5.5602,-5.4816,-5.4413,-5.4986,-5.3251,-5.1381,-5.0061,-4.9056,-4.7898,-4.718,-4.7589,-4.7875,-4.7946,-4.8285,-4.8623,-4.8623,-4.8855,-4.8962,-4.8695,-4.9247,-4.9907,-5.0388,-5.1119,-5.1832,-6.2731,0.0,0.0,0.0,0.0,-5.5722,-5.5617,-5.57,-5.5469,-5.4615,-5.3444,-5.1888,0.0,0.0,0.0,0.0,0.0,0.0,-5.2311,-5.3926,-5.6664,-5.8039,-5.8038,-5.8344,-5.9238,-6.0542,-6.0863,-6.1156,-6.1541,-6.101,-5.7992,-5.2937,0.0,0.0,0.0,0.0,-5.8555,-5.9533,-6.2287,-6.3181,-6.2081,-6.2447,-6.2447,-6.2276,-6.23,-6.1558,-6.023,-5.6696,-5.3308,-5.0341,-4.5299,0.0,0.0,0.0,0.0,0.0,0.0,0.0,0.0,0.0,0.0,0.0,0.0,0.0,0.0,0.0,0.0,0.0,0.0,0.0,-4.2879,-4.4072,-4.3813,0.0,0.0,0.0,0.0,0.0,0.0,0.0,0.0,0.0,-5.2575,-5.3268,-5.3564,0.0,0.0,-5.3606,-5.2821,-5.316,-5.3436,-5.333,-5.2757,0.0,-5.3203,-5.0824,-4.8978,-4.8747,-4.7023,-4.5709,-4.5718,-4.6057,-4.6288,-4.6271,-4.6948,-4.7251,-4.668,-4.6484,-4.6538,-4.6823,-4.7447,-4.8196,-4.8962,-4.995,-5.0648,0.0,0.0,0.0,0.0,0.0,0.0,0.0,0.0,-5.1738,-5.0631,0.0,-4.8667,0.0,0.0,0.0,0.0,0.0,-4.8239,0.0,0.0,-5.3399,-5.4823,-5.6104,-5.4432,-5.4909,-5.7058,-5.8155,-5.7919,-5.6806,-5.4892,0.0,0.0,0.0,0.0,0.0,0.0,-5.7437,-5.9041,-6.2015,-6.2957,-6.1715,-6.1715,-6.191,-6.2105,-6.23,-6.1302,-5.9409,-5.6511,-5.3326,-4.9703,-4.4144,0.0,0.0,0.0,0.0,0.0,0.0,0.0,0.0,0.0,0.0,0.0,0.0,0.0,0.0,0.0,0.0,0.0,0.0,0.0,0.0,-4.1441,0.0,0.0,0.0,0.0,0.0,0.0,0.0,0.0,0.0,0.0,-4.9125,-5.1665,-5.3234,-5.2362,0.0,0.0,0.0,0.0,-5.3521,-5.0973,-5.0485,-5.0485,-5.0549,-4.884,-4.7838,-4.8356,0.0,0.0,-4.5593,-4.5148,-4.4684,-4.4519,-4.5308,-4.4927,-4.2884,-4.2563,-4.2777,-4.3454,-4.4221,-4.4803,-4.5754,-4.6812,-4.7597,0.0,0.0,0.0,0.0,0.0,0.0,0.0,0.0,0.0,-4.7293,-4.5352,-4.4799,0.0,0.0,0.0,0.0,0.0,0.0,0.0,0.0,-4.8858,-5.0403,-5.1918,-5.1052,-5.1816,0.0,-5.4163,-5.2,0.0,0.0,0.0,0.0,0.0,0.0,0.0,0.0,-5.7065,-5.7422,-6.2082,-6.3602,-6.1762,-6.1544,-6.1715,-6.1739,-6.191,-6.0754,-5.8201,-5.345,-4.9323,0.0,0.0,0.0,0.0,0.0,0.0,0.0,0.0,0.0,0.0,0.0,0.0,0.0,0.0,0.0,0.0,0.0,0.0,0.0,0.0,0.0,0.0,0.0,-3.9562,0.0,0.0,0.0,0.0,0.0,0.0,0.0,0.0,0.0,-4.7541,-4.9556,-5.0824,-5.0716,-5.1932,-5.2499,-5.1801,0.0,0.0,0.0,0.0,0.0,0.0,0.0,-4.7987,-4.6589,-4.4857,-4.3425,-4.2809,-4.2902,-4.2885,-4.308,0.0,0.0,-4.0407,-4.0371,-4.0781,-4.1066,-4.1333,-4.1619,-4.2076,-4.326,-4.4301,0.0,0.0,0.0,0.0,0.0,0.0,0.0,0.0,0.0,-4.3244,-4.1246,0.0,0.0,0.0,0.0,0.0,0.0,0.0,0.0,0.0,0.0,0.0,-4.7777,-4.7394,0.0,0.0,0.0,0.0,0.0,0.0,0.0,0.0,0.0,0.0,0.0,0.0,-5.6788,-5.7442,-6.2986,-6.477,-6.2423,-6.2229,-6.2058,-6.1739,-6.1739,-6.043,-5.762,0.0,0.0,0.0,0.0,0.0,0.0,0.0,0.0,0.0,0.0,0.0,0.0,0.0,0.0,0.0,0.0,0.0,0.0,0.0,0.0,0.0,0.0,0.0,0.0,0.0,-3.5706,0.0,0.0,0.0,0.0,0.0,0.0,0.0,0.0,0.0,0.0,0.0,-4.9301,-4.9192,-5.0552,-5.1588,-5.1249,-5.2077,-5.2863,0.0,0.0,0.0,0.0,0.0,0.0,0.0,0.0,0.0,0.0,0.0,0.0,0.0,0.0,-3.9229,-3.7685,-3.7809,-3.8077,-3.8342,0.0,0.0,0.0,0.0,0.0,0.0,0.0,0.0,0.0,0.0,0.0,0.0,0.0,0.0,0.0,-3.5585,0.0,0.0,-3.3443,0.0,0.0,0.0,0.0,0.0,0.0,0.0,0.0,0.0,0.0,0.0,0.0,0.0,0.0,0.0,0.0,0.0,0.0,0.0,0.0,0.0,0.0,-5.6658,-5.8814,-6.4482,-6.6213,-6.3585,-6.3609,-6.3078,-6.2252,-6.2034,-6.0693,-5.7502,0.0,0.0,0.0,0.0,0.0,0.0,0.0,0.0,0.0,0.0,0.0,0.0,0.0,0.0,0.0,0.0,0.0,0.0,0.0,0.0,0.0,0.0,0.0,0.0,0.0,0.0,-3.3578,-3.7116,-3.8806,0.0,0.0,0.0,0.0,0.0,0.0,0.0,0.0,0.0,0.0,-5.0521,-5.2097,-5.0648,-5.1186,-5.1886,-5.1886,-5.1865,-5.2141,-5.2798,-5.0758,-4.8627,0.0,0.0,0.0,0.0,0.0,0.0,0.0,0.0,0.0,0.0,0.0,0.0,0.0,0.0,0.0,0.0,0.0,0.0,0.0,0.0,0.0,0.0,0.0,0.0,0.0,0.0,0.0,0.0,0.0,0.0,0.0,0.0,0.0,0.0,0.0,0.0,0.0,0.0,0.0,0.0,0.0,0.0,0.0,0.0,0.0,0.0,0.0,0.0,0.0,0.0,0.0,0.0,0.0,0.0,-5.6215,-5.7752,-6.4047,-6.6351,-6.4039,-6.3896,-6.3585,-6.2739,-6.0977,-5.8565,0.0,0.0,0.0,0.0,0.0,0.0,0.0,0.0,0.0,0.0,0.0,0.0,0.0,0.0,0.0,0.0,0.0,0.0,0.0,0.0,0.0,0.0,0.0,0.0,0.0,0.0,0.0,0.0,-3.4742,-3.6488,-3.6785,0.0,0.0,0.0,0.0,0.0,0.0,0.0,0.0,0.0,0.0,-4.9961,-5.0371,-5.1695,-5.2693,-5.2693,-5.3245,-5.3195,-5.1735,-5.0425,-4.8408,-4.5061,0.0,0.0,0.0,0.0,0.0,0.0,0.0,0.0,0.0,0.0,0.0,0.0,0.0,0.0,0.0,0.0,0.0,0.0,0.0,0.0,0.0,0.0,0.0,0.0,0.0,0.0,0.0,0.0,0.0,0.0,0.0,0.0,0.0,0.0,0.0,0.0,0.0,0.0,0.0,0.0,0.0,0.0,0.0,0.0,0.0,0.0,0.0,0.0,0.0,0.0,0.0,0.0,0.0,-5.6574,-5.8083,-6.4805,-6.7457,-6.5949,-6.5203,-6.4564,-6.3896,-6.083,-5.7266,0.0,0.0,0.0,0.0,0.0,0.0,0.0,0.0,0.0,0.0,0.0,0.0,0.0,0.0,0.0,0.0,0.0,0.0,0.0,0.0,0.0,0.0,0.0,0.0,0.0,0.0,0.0,0.0,-2.9837,-3.2157,-3.4056,0.0,0.0,0.0,0.0,0.0,0.0,0.0,0.0,0.0,0.0,-4.8322,-4.9221,-5.0385,0.0,0.0,-5.165,-5.1425,-5.0182,-4.9198,-4.7325,-4.3615,-4.138,0.0,0.0,0.0,0.0,0.0,0.0,0.0,0.0,0.0,0.0,0.0,0.0,0.0,0.0,0.0,0.0,0.0,0.0,0.0,0.0,0.0,0.0,0.0,0.0,0.0,0.0,0.0,0.0,0.0,0.0,0.0,0.0,0.0,0.0,0.0,0.0,0.0,0.0,0.0,0.0,0.0,0.0,0.0,0.0,0.0,0.0,0.0,0.0,0.0,0.0,0.0,0.0,-5.7212,-5.9687,-6.6029,-6.9047,-6.8627,-6.7161,-6.6049,-6.5408,-6.129,-5.6509,0.0,0.0,0.0,0.0,0.0,0.0,0.0,0.0,0.0,0.0,0.0,0.0,0.0,0.0,0.0,0.0,0.0,0.0,0.0,0.0,0.0,0.0,0.0,0.0,0.0,0.0,0.0,0.0,0.0,0.0,0.0,0.0,0.0,0.0,0.0,0.0,0.0,0.0,0.0,0.0,0.0,-4.69,-4.7279,-4.7766,-4.835,0.0,-4.8264,-4.7795,-4.8296,-4.7341,-4.5803,-4.2907,0.0,0.0,0.0,0.0,0.0,0.0,0.0,0.0,0.0,0.0,0.0,0.0,0.0,0.0,0.0,0.0,0.0,0.0,0.0,0.0,0.0,0.0,0.0,0.0,0.0,0.0,0.0,0.0,0.0,0.0,0.0,0.0,0.0,0.0,0.0,0.0,0.0,0.0,0.0,0.0,0.0,0.0,0.0,0.0,0.0,0.0,0.0,0.0,0.0,0.0,0.0,0.0,0.0,0.0,-5.9872,-6.6177,-6.91,-6.8282,-6.7025,-6.5885,-6.4988,-5.9803,0.0,0.0,0.0,0.0,0.0,0.0,0.0,0.0,0.0,0.0,0.0,0.0,0.0,0.0,0.0,0.0,0.0,0.0,0.0,0.0,0.0,0.0,0.0,0.0,0.0,0.0,0.0,-1.4108,0.0,0.0,0.0,0.0,0.0,0.0,0.0,0.0,0.0,0.0,0.0,0.0,0.0,0.0,-4.2759,-4.3362,-4.4671,-4.5408,0.0,0.0,-4.6698,-4.5008,-4.4775,-4.3616,0.0,0.0,0.0,0.0,0.0,0.0,0.0,0.0,0.0,0.0,0.0,0.0,0.0,0.0,0.0,0.0,0.0,0.0,0.0,0.0,0.0,0.0,0.0,0.0,0.0,0.0,0.0,0.0,0.0,0.0,0.0,0.0,0.0,0.0,0.0,0.0,0.0,0.0,0.0,0.0,0.0,0.0,0.0,0.0,0.0,0.0,0.0,0.0,0.0,0.0,0.0,0.0,0.0,0.0,-5.6795,-6.0134,-6.5343,-6.8747,-6.9674,-6.8308,-6.7322,-6.6736,-6.0786,-5.5564,0.0,0.0,0.0,0.0,0.0,0.0,0.0,0.0,0.0,0.0,0.0,0.0,0.0,0.0,0.0,0.0,0.0,0.0,0.0,0.0,0.0,0.0,0.0,0.0,0.0,0.0,0.0,0.0,0.0,0.0,0.0,0.0,0.0,0.0,0.0,0.0,0.0,0.0,0.0,0.0,0.0,0.0,-4.1282,-4.1669,0.0,0.0,0.0,-4.3104,-4.0933,0.0,0.0,0.0,0.0,0.0,0.0,0.0,0.0,0.0,0.0,0.0,0.0,0.0,0.0,0.0,0.0,0.0,0.0,0.0,0.0,0.0,0.0,0.0,0.0,0.0,0.0,0.0,0.0,0.0,0.0,0.0,0.0,0.0,0.0,0.0,0.0,0.0,0.0,0.0,0.0,0.0,0.0,0.0,0.0,0.0,0.0,0.0,0.0,0.0,0.0,0.0,0.0,0.0,0.0,0.0,0.0,0.0,-6.01,-6.4415,-6.8296,-7.1289,-7.0012,-6.9178,-6.8733,-6.2646,-5.6934,0.0,0.0,0.0,0.0,0.0,0.0,0.0,0.0,0.0,0.0,0.0,0.0,0.0,0.0,0.0,0.0,0.0,0.0,0.0,0.0,0.0,0.0,0.0,0.0,0.0,0.0,0.0,0.0,0.0,0.0,0.0,0.0,0.0,0.0,0.0,0.0,0.0,0.0,0.0,0.0,0.0,-3.7652,-3.9538,-3.8529,-3.7899,0.0,0.0,-3.8234,-3.6749,-3.768,0.0,0.0,0.0,0.0,0.0,0.0,0.0,0.0,0.0,0.0,0.0,0.0,0.0,0.0,0.0,0.0,0.0,0.0,0.0,0.0,0.0,0.0,0.0,0.0,0.0,0.0,0.0,0.0,0.0,0.0,0.0,0.0,0.0,0.0,0.0,0.0,0.0,0.0,0.0,0.0,0.0,0.0,0.0,0.0,0.0,0.0,0.0,0.0,0.0,0.0,0.0,0.0,0.0,0.0,0.0,0.0,-5.884,-6.4575,-6.8296,-6.975,-6.9152,-6.802,-6.6275,-6.2307,-5.7098,0.0,0.0,0.0,0.0,0.0,0.0,0.0,0.0,0.0,0.0,0.0,0.0,0.0,0.0,0.0,0.0,0.0,0.0,0.0,0.0,0.0,0.0,0.0,0.0,0.0,0.0,0.0,0.0,0.0,0.0,0.0,0.0,0.0,0.0,0.0,0.0,0.0,0.0,0.0,0.0,0.0,-3.2509,-3.3234,-3.3234,0.0,0.0,0.0,0.0,-3.4374,-3.399,0.0,0.0,0.0,0.0,0.0,0.0,0.0,0.0,0.0,0.0,0.0,0.0,0.0,0.0,0.0,0.0,0.0,0.0,0.0,0.0,0.0,0.0,0.0,0.0,0.0,0.0,0.0,0.0,0.0,0.0,0.0,0.0,0.0,0.0,0.0,0.0,0.0,0.0,0.0,0.0,0.0,0.0,0.0,0.0,0.0,0.0,0.0,0.0,0.0,0.0,0.0,0.0,0.0,0.0,0.0,0.0,-5.8175,-6.304,-6.7039,-7.0497,-7.0731,-6.9595,-6.7355,-6.4395,-5.925,0.0,0.0,0.0,0.0,0.0,0.0,0.0,0.0,0.0,0.0,0.0,0.0,0.0,0.0,0.0,0.0,0.0,0.0,0.0,0.0,0.0,0.0,0.0,0.0,0.0,0.0,0.0,0.0,0.0,0.0,0.0,0.0,0.0,0.0,0.0,0.0,0.0,0.0,0.0,0.0,-2.5464,-2.7502,-2.8424,0.0,0.0,0.0,0.0,0.0,0.0,-3.0743,-2.962,0.0,0.0,0.0,0.0,0.0,0.0,0.0,0.0,0.0,0.0,0.0,0.0,0.0,0.0,0.0,0.0,0.0,0.0,0.0,0.0,0.0,0.0,0.0,0.0,0.0,0.0,0.0,0.0,0.0,0.0,0.0,0.0,0.0,0.0,0.0,0.0,0.0,0.0,0.0,0.0,0.0,0.0,0.0,0.0,0.0,0.0,0.0,0.0,0.0,0.0,0.0,0.0,0.0,0.0,0.0,-5.7217,-6.0901,-6.5515,-7.0815,-7.2168,-7.137,-6.8733,-6.6253,-6.1126,-5.3133,0.0,0.0,0.0,0.0,0.0,0.0,0.0,0.0,0.0,0.0,0.0,0.0,0.0,0.0,0.0,0.0,0.0,0.0,0.0,0.0,0.0,0.0,0.0,0.0,0.0,0.0,0.0,0.0,0.0,0.0,0.0,0.0,0.0,0.0,0.0,0.0,0.0,0.0,0.0,-1.9672,-2.2033,0.0,0.0,0.0,0.0,0.0,0.0,0.0,0.0,-2.5785,0.0,0.0,0.0,0.0,0.0,0.0,0.0,0.0,0.0,0.0,0.0,0.0,0.0,0.0,0.0,0.0,0.0,0.0,0.0,0.0,0.0,0.0,0.0,0.0,0.0,0.0,0.0,0.0,0.0,0.0,0.0,0.0,0.0,0.0,0.0,0.0,0.0,0.0,0.0,0.0,0.0,0.0,0.0,0.0,0.0,0.0,0.0,0.0,0.0,0.0,0.0,0.0,0.0,0.0,0.0,0.0,-5.9473,-6.4036,-6.7275,-6.9843,-6.9571,-6.6112,-6.3974,-5.9926,-5.3472,0.0,0.0,0.0,0.0,0.0,0.0,0.0,0.0,0.0,0.0,0.0,0.0,0.0,0.0,0.0,0.0,0.0,0.0,0.0,0.0,0.0,0.0,0.0,0.0,0.0,0.0,0.0,0.0,0.0,0.0,0.0,0.0,0.0,0.0,0.0,0.0,0.0,0.0,-0.4528,-1.0686,0.0,0.0,0.0,0.0,0.0,0.0,0.0,0.0,-2.0678,0.0,0.0,0.0,0.0,0.0,0.0,0.0,0.0,0.0,0.0,0.0,0.0,0.0,0.0,0.0,0.0,0.0,0.0,0.0,0.0,0.0,0.0,0.0,0.0,0.0,0.0,0.0,0.0,0.0,0.0,0.0,0.0,0.0,0.0,0.0,0.0,0.0,0.0,0.0,0.0,0.0,0.0,0.0,0.0,0.0,0.0,0.0,0.0,0.0,0.0,0.0,0.0,0.0,0.0,0.0,0.0,0.0,0.0,-6.2985,-6.6861,-7.0651,-7.0939,-6.7515,-6.3151,-5.8015,0.0,0.0,0.0,0.0,0.0,0.0,0.0,0.0,0.0,0.0,0.0,0.0,0.0,0.0,0.0,0.0,0.0,0.0,0.0,0.0,0.0,0.0,0.0,0.0,0.0,0.0,0.0,0.0,0.0,0.0,0.0,0.0,0.0,0.0,0.0,0.0,0.0,0.0,0.0,0.0,0.0,0.0,0.0,0.0,0.0,0.0,0.0,0.0,0.0,0.0,0.0,0.0,0.0,0.0,0.0,0.0,0.0,0.0,0.0,0.0,0.0,0.0,0.0,0.0,0.0,0.0,0.0,0.0,0.0,0.0,0.0,0.0,0.0,0.0,0.0,0.0,0.0,0.0,0.0,0.0,0.0,0.0,0.0,0.0,0.0,0.0,0.0,0.0,0.0,0.0,0.0,0.0,0.0,0.0,0.0,0.0,0.0,0.0,0.0,0.0,0.0,0.0,0.0,0.0,0.0,0.0,0.0,0.0,-6.0911,-6.5762,-7.0335,-7.1495,-6.86,-6.2214,-5.6153,0.0,0.0,0.0,0.0,0.0,0.0,0.0,0.0,0.0,0.0,0.0,0.0,0.0,0.0,0.0,0.0,0.0,0.0,0.0,0.0,0.0,0.0,0.0,0.0,0.0,0.0,0.0,0.0,0.0,0.0,0.0,0.0,0.0,0.0,0.0,0.0,0.0,0.0,0.0,0.0,0.0,0.0,0.0,0.0,0.0,0.0,0.0,0.0,-1.076,0.0,0.0,0.0,0.0,0.0,0.0,0.0,0.0,0.0,0.0,0.0,0.0,0.0,0.0,0.0,0.0,0.0,0.0,0.0,0.0,0.0,0.0,0.0,0.0,0.0,0.0,0.0,0.0,0.0,0.0,0.0,0.0,0.0,0.0,0.0,0.0,0.0,0.0,0.0,0.0,0.0,0.0,0.0,0.0,0.0,0.0,0.0,0.0,0.0,0.0,0.0,0.0,0.0,0.0,0.0,0.0,0.0,0.0,0.0,-5.6916,-6.1126,-6.581,-6.7457,-6.5874,-6.0453,-5.4513,0.0,0.0,0.0,0.0,0.0,0.0,0.0,0.0,0.0,0.0,0.0,0.0,0.0,0.0,0.0,0.0,0.0,0.0,0.0,0.0,0.0,0.0,0.0,0.0,0.0,0.0,0.0,0.0,0.0,0.0,0.0,0.0,0.0,0.0,0.0,0.0,0.0,0.0,0.0,0.0,0.0,0.0,0.0,0.0,0.0,0.0,0.0,0.0,0.0,0.0,0.0,0.0,0.0,0.0,0.0,0.0,0.0,0.0,0.0,0.0,0.0,0.0,0.0,0.0,0.0,0.0,0.0,0.0,0.0,0.0,0.0,0.0,0.0,0.0,0.0,0.0,0.0,0.0,0.0,0.0,0.0,0.0,0.0,0.0,0.0,0.0,0.0,0.0,0.0,0.0,0.0,0.0,0.0,0.0,0.0,0.0,0.0,0.0,0.0,0.0,0.0,0.0,0.0,0.0,0.0,0.0,0.0,0.0,-5.4398,-6.0141,-6.4394,-6.4687,-6.039,-5.5951,-5.0908,0.0,0.0,0.0,0.0,0.0,0.0,0.0,0.0,0.0,0.0,0.0,0.0,0.0,0.0,0.0,0.0,0.0,0.0,0.0,0.0,0.0,0.0,0.0,0.0,0.0,0.0,0.0,0.0,0.0,0.0,0.0,0.0,0.0,0.0,0.0,0.0,0.0,0.0,0.0,0.0,0.0,0.0,0.0,0.0,0.0,0.0,0.0,0.0,0.0,0.0,0.0,0.0,0.0,0.0,0.0,0.0,0.0,0.0,0.0,0.0,0.0,0.0,0.0,0.0,0.0,0.0,0.0,0.0,0.0,0.0,0.0,0.0,0.0,0.0,0.0,0.0,0.0,0.0,0.0,0.0,0.0,0.0,0.0,0.0,0.0,0.0,0.0,0.0,0.0,0.0,0.0,0.0,0.0,0.0,0.0,0.0,0.0,0.0,0.0,0.0,0.0,0.0,0.0,0.0,0.0,0.0,0.0,0.0,0.0,-5.7263,-6.0317,-5.9716,-5.5527,-5.1486,-4.6657,0.0,0.0,0.0,0.0,0.0,0.0,0.0,0.0,0.0,0.0,0.0,0.0,0.0,0.0,0.0,0.0,0.0,0.0,0.0,0.0,0.0,0.0,0.0,0.0,0.0,0.0,0.0,0.0,0.0,0.0,0.0,0.0,0.0,0.0,0.0,0.0,0.0,0.0,0.0,0.0,0.0,0.0,0.0,0.0,0.0,0.0,0.0,0.0,0.0,0.0,0.0,0.0,0.0,0.0,0.0,0.0,0.0,0.0,0.0,0.0,0.0,0.0,0.0,0.0,0.0,0.0,0.0,0.0,0.0,0.0,0.0,0.0,0.0,0.0,0.0,0.0,0.0,0.0,0.0,0.0,0.0,0.0,0.0,0.0,0.0,0.0,0.0,0.0,0.0,0.0,0.0,0.0,0.0,0.0,0.0,0.0,0.0,0.0,0.0,0.0,0.0,0.0,0.0,0.0,0.0,0.0,0.0,0.0,0.0,-5.0442,-5.0737,-5.1404,-5.2448,-4.7704,-4.2183,0.0,0.0,0.0,0.0,0.0,0.0,0.0,0.0,0.0,0.0,0.0,0.0,0.0,0.0,0.0,0.0,0.0,0.0,0.0,0.0,0.0,0.0,0.0,0.0,0.0,0.0,0.0,0.0,0.0,0.0,0.0,0.0,0.0,0.0,0.0,0.0,0.0,0.0,0.0,0.0,0.0,0.0,0.0,0.0,0.0,0.0,0.0,0.0,0.0,0.0,0.0,0.0,0.0,0.0,0.0,0.0,0.0,0.0,0.0,0.0,0.0,0.0,0.0,0.0,0.0,0.0,0.0,0.0,0.0,0.0,0.0,0.0,0.0,0.0,0.0,0.0,0.0,0.0,0.0,0.0,0.0,0.0,0.0,0.0,0.0,0.0,0.0,0.0,0.0,0.0,0.0,0.0,0.0,0.0,0.0,0.0,0.0,0.0,0.0,0.0,0.0,0.0,0.0,0.0,0.0,0.0,0.0,0.0,0.0,-4.0903,-4.3333,-4.5171,-4.6035,-4.1901,-3.7239,-3.1948,0.0,0.0,0.0,0.0,0.0,0.0,0.0,0.0,0.0,0.0,0.0,0.0,0.0,0.0,0.0,0.0,0.0,0.0,0.0,0.0,0.0,0.0,0.0,0.0,0.0,0.0,0.0,0.0,0.0,0.0,0.0,0.0,0.0,0.0,0.0,0.0,0.0,0.0,0.0,0.0,0.0,0.0,0.0,0.0,0.0,0.0,0.0,0.0,0.0,0.0,0.0,0.0,0.0,0.0,0.0,0.0,0.0,0.0,0.0,0.0,0.0,0.0,0.0,0.0,0.0,0.0,0.0,0.0,0.0,0.0,0.0,0.0,0.0,0.0,0.0,0.0,0.0,0.0,0.0,0.0,0.0,0.0,0.0,0.0,0.0,0.0,0.0,0.0,0.0,0.0,0.0,0.0,0.0,0.0,0.0,0.0,0.0,0.0,0.0,0.0,0.0,0.0,0.0,0.0,0.0,0.0,0.0,0.0,-3.4814,-3.7534,-3.901,-3.9356,-3.5952,-3.1763,0.0,0.0,0.0,0.0,0.0,0.0,0.0,0.0,0.0,0.0,0.0,0.0,0.0,0.0,0.0,0.0,0.0,0.0,0.0,0.0,0.0,0.0,0.0,0.0,0.0,0.0,0.0,0.0,0.0,0.0,0.0,0.0,0.0,0.0,0.0,0.0,0.0,0.0,0.0,0.0,0.0,0.0,0.0,0.0,0.0,0.0,0.0,0.0,0.0,0.0,0.0,0.0,0.0,0.0,0.0,0.0,0.0,0.0,0.0,0.0,0.0,0.0,0.0,0.0,0.0,0.0,0.0,0.0,0.0,0.0,0.0,0.0,0.0,0.0,0.0,0.0,0.0,0.0,0.0,0.0,0.0,0.0,0.0,0.0,0.0,0.0,0.0,0.0,0.0,0.0,0.0,0.0,0.0,0.0,0.0,0.0,0.0,0.0,0.0,0.0,0.0,0.0,0.0,0.0,0.0,0.0,0.0,0.0,-1.2551,-3.2387,-3.2694,-3.2669,-3.3349,-2.9853,-2.5885,0.0,0.0,0.0,0.0,0.0,0.0,0.0,0.0,0.0,0.0,0.0,0.0,0.0,0.0,0.0,0.0,0.0,0.0,0.0,0.0,0.0,0.0,0.0,0.0,0.0,0.0,0.0,0.0,0.0,0.0,0.0,0.0,0.0,0.0,0.0,0.0,0.0,0.0,0.0,0.0,0.0,0.0,0.0,0.0,0.0,0.0,0.0,0.0,0.0,0.0,0.0,0.0,0.0,0.0,0.0,0.0,0.0,0.0,0.0,0.0,0.0,0.0,0.0,0.0,0.0,0.0,0.0,0.0,0.0,0.0,0.0,0.0,0.0,0.0,0.0,0.0,0.0,0.0,0.0,0.0,0.0,0.0,0.0,0.0,0.0,0.0,0.0,0.0,0.0,0.0,0.0,0.0,0.0,0.0,0.0,0.0,0.0,0.0,0.0,0.0,0.0,0.0,0.0,0.0,0.0,0.0,0.0,0.0,0.0,-1.0667,0.0,-2.3542,0.0,-2.1741,-1.803,0.0,0.0,0.0,0.0,0.0,0.0,0.0,0.0,0.0,0.0,0.0,0.0,0.0,0.0,0.0,0.0,0.0,0.0,0.0,0.0,0.0,0.0,0.0,0.0,0.0,0.0,0.0,0.0,0.0,0.0,0.0,0.0,0.0,0.0,0.0,0.0,0.0,0.0,0.0,0.0,0.0,0.0,0.0,0.0,0.0,0.0,0.0,0.0,0.0,0.0,0.0,0.0,0.0,0.0,0.0,0.0,0.0,0.0,0.0,0.0,0.0,0.0,0.0,0.0,0.0,0.0,0.0,0.0,0.0,0.0,0.0,0.0,0.0,0.0,0.0,0.0,0.0,0.0,0.0,0.0,0.0,0.0,0.0,0.0,0.0,0.0,0.0,0.0,0.0,0.0,0.0,0.0,0.0,0.0,0.0,0.0,0.0,0.0,0.0,0.0,0.0,0.0,0.0,0.0,0.0,0.0,0.0,0.0,0.0,0.6294,-0.3861,-1.0724,-1.3995,-1.1883,-0.8703,0.0,0.0,0.0,0.0,0.0,0.0,0.0,0.0,0.0,0.0,0.0,0.0,0.0,0.0,0.0,0.0,0.0,0.0,0.0,0.0,0.0,0.0,0.0,0.0,0.0,0.0,0.0,0.0,0.0,0.0,0.0,0.0,0.0,0.0,0.0,0.0,0.0,0.0,0.0,0.0,0.0,0.0,0.0,0.0,0.0,0.0,0.0,0.0,0.0,0.0,0.0,0.0,0.0,0.0,0.0,0.0,0.0,0.0,0.0,0.0,0.0,0.0,0.0,0.0,0.0,0.0,0.0,0.0,0.0,0.0,0.0,0.0,0.0,0.0,0.0,0.0,0.0,0.0,0.0,0.0,0.0,0.0,0.0,0.0,0.0,0.0,0.0,0.0,0.0,0.0,0.0,0.0,0.0,0.0,0.0,0.0,0.0,0.0,0.0,0.0,0.0,0.0,0.0,0.0,0.0,0.0,0.0,0.0,0.0,1.8058,1.099,0.4697,-0.101,-0.0276,0.2022,0.0,0.0,0.0,0.0,0.0,0.0,0.0,0.0,0.0,0.0,0.0,0.0,0.0,0.0,0.0,0.0,0.0,0.0,0.0,0.0,0.0,0.0,0.0,0.0,0.0,0.0,0.0,0.0,0.0,0.0,0.0,0.0,0.0,0.0,0.0,0.0,0.0,0.0,0.0,0.0,0.0,0.0,0.0,0.0,0.0,0.0,0.0,0.0,0.0,0.0,0.0,0.0,0.0,0.0,0.0,0.0,0.0,0.0,0.0,0.0,0.0,0.0,0.0,0.0,0.0,0.0,0.0,0.0,0.0,0.0,0.0,0.0,0.0,0.0,0.0,0.0,0.0,0.0,0.0,0.0,0.0,0.0,0.0,0.0,0.0,0.0,0.0,0.0,0.0,0.0,0.0,0.0,0.0,0.0,0.0,0.0,0.0,0.0,0.0,0.0,0.0,0.0,0.0,0.0,0.0,0.0,0.0,0.0,0.0,0.0,2.3028,1.8636,1.4551,1.2945,1.3213,1.5411,0.0,0.0,0.0,0.0,0.0,0.0,0.0,0.0,0.0,0.0,0.0,0.0,0.0,0.0,0.0,0.0,0.0,0.0,0.0,0.0,0.0,0.0,0.0,0.0,0.0,0.0,0.0,0.0,0.0,0.0,0.0,0.0,0.0,0.0,0.0,0.0,0.0,0.0,0.0,0.0,0.0,0.0,0.0,0.0,0.0,0.0,0.0,0.0,0.0,0.0,0.0,0.0,0.0,0.0,0.0,0.0,0.0,0.0,0.0,0.0,0.0,0.0,0.0,0.0,0.0,0.0,0.0,0.0,0.0,0.0,0.0,0.0,0.0,0.0,0.0,0.0,0.0,0.0,0.0,0.0,0.0,0.0,0.0,0.0,0.0,0.0,0.0,0.0,0.0,0.0,0.0,0.0,0.0,0.0,0.0,0.0,0.0,0.0,0.0,0.0,0.0,0.0,0.0,0.0,0.0,0.0,0.0,0.0,0.0,0.0,3.0513,2.6752,2.4537,2.3648,0.0,0.0,0.0,0.0,0.0,0.0,0.0,0.0,0.0,0.0,0.0,0.0,0.0,0.0,0.0,0.0,0.0,0.0,0.0,0.0,0.0,0.0,0.0,0.0,0.0,0.0,0.0,0.0,0.0,0.0,0.0,0.0,0.0,0.0,0.0,0.0,0.0,0.0,0.0,0.0,0.0,0.0,0.0,0.0,0.0,0.0,0.0,0.0,0.0,0.0,0.0,0.0,0.0,0.0,0.0,0.0,0.0,0.0,0.0,0.0,0.0,0.0,0.0,0.0,0.0,0.0,0.0,0.0,0.0,0.0,0.0,0.0,0.0,0.0,0.0,0.0,0.0,0.0,0.0,0.0,0.0,0.0,0.0,0.0,0.0,0.0,0.0,0.0,0.0,0.0,0.0,0.0,0.0,0.0,0.0,0.0,0.0,0.0,0.0,0.0,0.0,0.0,0.0,0.0,0.0,0.0,0.0,0.0,0.0,0.0,0.0,4.037,3.6245,3.4483,0.0,3.2444,0.0,0.0,0.0,0.0,0.0,0.0,0.0,0.0,0.0,0.0,0.0,0.0,0.0,0.0,0.0,0.0,0.0,0.0,0.0,0.0,0.0,0.0,0.0,0.0,0.0,0.0,0.0,0.0,0.0,0.0,0.0,0.0,0.0,0.0,0.0,0.0,0.0,0.0,0.0,0.0,0.0,0.0,0.0,0.0,0.0,0.0,0.0,0.0,0.0,0.0,0.0,0.0,0.0,0.0,0.0,0.0,0.0,0.0,0.0,0.0,0.0,0.0,0.0,0.0,0.0,0.0,0.0,0.0,0.0,0.0,0.0,0.0,0.0,0.0,0.0,0.0,0.0,0.0,0.0,0.0,0.0,0.0,0.0,0.0,0.0,0.0,0.0,0.0,0.0,0.0,0.0,0.0,0.0,0.0,0.0,0.0,0.0,0.0,0.0,0.0,0.0,0.0,0.0,0.0,0.0,0.0,0.0,0.0,0.0,0.0,0.0,0.0,4.1484,4.0296,3.8241,0.0,0.0,0.0,0.0,0.0,0.0,0.0,0.0,0.0,0.0,0.0,0.0,0.0,0.0,0.0,0.0,0.0,0.0,0.0,0.0,0.0,0.0,0.0,0.0,0.0,0.0,0.0,0.0,0.0,0.0,0.0,0.0,0.0,0.0,0.0,0.0,0.0,0.0,0.0,0.0,0.0,0.0,0.0,0.0,0.0,0.0,0.0,0.0,0.0,0.0,0.0,0.0,0.0,0.0,0.0,0.0,0.0,0.0,0.0,0.0,0.0,0.0,0.0,0.0,0.0,0.0,0.0,0.0,0.0,0.0,0.0,0.0,0.0,0.0,0.0,0.0,0.0,0.0,0.0,0.0,0.0,0.0,0.0,0.0,0.0,0.0,0.0,0.0,0.0,0.0,0.0,0.0,0.0,0.0,0.0,0.0,0.0,0.0,0.0,0.0,0.0,0.0,0.0,0.0,0.0,0.0,0.0,0.0,0.0,0.0,5.0389,4.5635,4.5926,4.4872,4.2049,0.0,0.0,0.0,0.0,0.0,0.0,0.0,0.0,0.0,0.0,0.0,0.0,0.0,0.0,0.0,0.0,0.0,0.0,0.0,0.0,0.0,0.0,0.0,0.0,0.0,0.0,0.0,0.0,0.0,0.0,0.0,0.0,0.0,0.0,0.0,0.0,0.0,0.0,0.0,0.0,0.0,0.0,0.0,0.0,0.0,0.0,0.0,0.0,0.0,0.0,0.0,0.0,0.0,0.0,0.0,0.0,0.0,0.0,0.0,0.0,0.0,0.0,0.0,0.0,0.0,0.0,0.0,0.0,0.0,0.0,0.0,0.0,0.0,0.0,0.0,0.0,0.0,0.0,0.0,0.0,0.0,0.0,0.0,0.0,0.0,0.0,0.0,0.0,0.0,0.0,0.0,0.0,0.0,0.0,0.0,0.0,0.0,0.0,0.0,0.0,0.0,0.0,0.0,0.0,0.0,0.0,0.0,0.0,0.0,0.0,0.0,0.0,0.0,0.0,4.4694,0.0,0.0,0.0,0.0,0.0,0.0,0.0,0.0,0.0,0.0,0.0,0.0,0.0,0.0,0.0,0.0,0.0,0.0,0.0,0.0,0.0,0.0,0.0,0.0,0.0,0.0,0.0,0.0,0.0,0.0,0.0,0.0,0.0,0.0,0.0,0.0,0.0,0.0,0.0,0.0,0.0,0.0,0.0,0.0,0.0,0.0,0.0,0.0,0.0,0.0,0.0,0.0,0.0,0.0,0.0,0.0,0.0,0.0,0.0,0.0,0.0,0.0,0.0,0.0,0.0,0.0,0.0,0.0,0.0,0.0,0.0,0.0,0.0,0.0,0.0,0.0,0.0,0.0,0.0,0.0,0.0,0.0,0.0,0.0,0.0,0.0,0.0,0.0,0.0,0.0,0.0,0.0,0.0,0.0,0.0,0.0,0.0,0.0,0.0,0.0,0.0,0.0,0.0,0.0,0.0,0.0,0.0,0.0,0.0,0.0,0.0,0.0,0.0,0.0,0.0,0.0,0.0,0.0,0.0,0.0,0.0,0.0,0.0,0.0,0.0,0.0,0.0,0.0,0.0,0.0,0.0,0.0,0.0,0.0,0.0,0.0,0.0,0.0,0.0,0.0,0.0,0.0,0.0,0.0,0.0,0.0,0.0,0.0,0.0,0.0,0.0,0.0,0.0,0.0,0.0,0.0,0.0,0.0,0.0,0.0,0.0,0.0,0.0,0.0,0.0,0.0,0.0,0.0,0.0,0.0,0.0,0.0,0.0,0.0,0.0,0.0,0.0,0.0,0.0,0.0,0.0,0.0,0.0,0.0,0.0,0.0,0.0,0.0,0.0,0.0,0.0,0.0,0.0,0.0,0.0,0.0,0.0,0.0,0.0,0.0,0.0,0.0,0.0,0.0,0.0,0.0,0.0,0.0,0.0,0.0,0.0,0.0,0.0,0.0,0.0,0.0,0.0,0.0,0.0,0.0,0.0,0.0,0.0,0.0,0.0,0.0,0.0,0.0,0.0,0.0,0.0,0.0,0.0,0.0,0.0,0.0,0.0,0.0,0.0,0.0,0.0,0.0,0.0,0.0,0.0,0.0,0.0,0.0,0.0,0.0,0.0,0.0,0.0,0.0,0.0,0.0,0.0,0.0,0.0,0.0,0.0,0.0,0.0,0.0,0.0,0.0,0.0,0.0,0.0,0.0,0.0,0.0,0.0,0.0,0.0,0.0,0.0,0.0,0.0,0.0,0.0,0.0,0.0,0.0,0.0,0.0,0.0,0.0,0.0,0.0,0.0,0.0,0.0,0.0,0.0,0.0,0.0,0.0,0.0,0.0,0.0,0.0,0.0,0.0,0.0,0.0,0.0,0.0,0.0,0.0,0.0,0.0,0.0,0.0,0.0,0.0,0.0,0.0,0.0,0.0,0.0,0.0,0.0,0.0,0.0,0.0,0.0,0.0,0.0,0.0,0.0,0.0,0.0,0.0,0.0,0.0,0.0,0.0,0.0,0.0,0.0,0.0,0.0,0.0,0.0,0.0,0.0,0.0,0.0,0.0,0.0,0.0,0.0,0.0,0.0,0.0,0.0,0.0,0.0,0.0,0.0,0.0,0.0,0.0,0.0,0.0,0.0,0.0,0.0,0.0,0.0,0.0,0.0,0.0,0.0,0.0,0.0,0.0,0.0,0.0,0.0,0.0,0.0,0.0,0.0,0.0,0.0,0.0,0.0,0.0,0.0,0.0,0.0,0.0,0.0,0.0,0.0,0.0,0.0,0.0,0.0,0.0,0.0,0.0,0.0,0.0,0.0,0.0,0.0,0.0,0.0,0.0,0.0,0.0,0.0,0.0,0.0,0.0,0.0,0.0,0.0,0.0,0.0,0.0,0.0,0.0,0.0,0.0,0.0,0.0,0.0,0.0,0.0,0.0,0.0,0.0,0.0,0.0,0.0,0.0,0.0,0.0,0.0,0.0,0.0,0.0,0.0,0.0,0.0,0.0,0.0,0.0,0.0,0.0,0.0,0.0,0.0,0.0,0.0,0.0,0.0,0.0,0.0,0.0,0.0,0.0,0.0,0.0,0.0,0.0,0.0,0.0,0.0,0.0,0.0,0.0,0.0,0.0,0.0,0.0,0.0,0.0,0.0,0.0,0.0,0.0,0.0,0.0,0.0,0.0,0.0,0.0,0.0,0.0,0.0,0.0,0.0,0.0,0.0,0.0,0.0,0.0,0.0,0.0,0.0,0.0,0.0,0.0,0.0,0.0,0.0,0.0,0.0,0.0,0.0,0.0,0.0,0.0,0.0,0.0,0.0,0.0,0.0,0.0,0.0,0.0,0.0,0.0,0.0,0.0,0.0,0.0,0.0,0.0,0.0,0.0,0.0,0.0,0.0,0.0,0.0,0.0,0.0,0.0,0.0,0.0,0.0,0.0,0.0,0.0,0.0,0.0,0.0,0.0,0.0,0.0,0.0,0.0,0.0,0.0,0.0,0.0,0.0,0.0,0.0,0.0,0.0,0.0,0.0,0.0,0.0,0.0,0.0,0.0,0.0,0.0,0.0,0.0,0.0,0.0,0.0,0.0,0.0,0.0,0.0,0.0,0.0,0.0,0.0,0.0,0.0,0.0,0.0,0.0,0.0,0.0,0.0,0.0,0.0,0.0,0.0,0.0,0.0,0.0,0.0,0.0,0.0,0.0,0.0,0.0,0.0,0.0,0.0,0.0,0.0,0.0,0.0,0.0,0.0,0.0,0.0,0.0,0.0,0.0,0.0,0.0,0.0,0.0,0.0,0.0,0.0,0.0,0.0,0.0,0.0,0.0,0.0,0.0,0.0,0.0,0.0,0.0,0.0,0.0,0.0,0.0,0.0,0.0,0.0,0.0,0.0,0.0,0.0,0.0,0.0,0.0,0.0,0.0,0.0,0.0,0.0,0.0,0.0,0.0,0.0,0.0,0.0,0.0,0.0,0.0,0.0,0.0,0.0,0.0,0.0,0.0,0.0,0.0,0.0,0.0,0.0,0.0,0.0,0.0,0.0,0.0,0.0,0.0,0.0,0.0,0.0,0.0,0.0,0.0,0.0,0.0,0.0,0.0,0.0,0.0,0.0,0.0,0.0,0.0,0.0,0.0,0.0,0.0,0.0,0.0,0.0,0.0,0.0,0.0,0.0,0.0,0.0,0.0,0.0,0.0,0.0,0.0,0.0,0.0,0.0,0.0,0.0,0.0,0.0,0.0,0.0,0.0,0.0,0.0,0.0,0.0,0.0,0.0,0.0,0.0,0.0,0.0,0.0,0.0,0.0,0.0,0.0,0.0,0.0,0.0,0.0,0.0,0.0,0.0,0.0,0.0,0.0,0.0,0.0,0.0,0.0,0.0,0.0,0.0,0.0,0.0,0.0,0.0,0.0,0.0,0.0,0.0,0.0,0.0,0.0,0.0,0.0,0.0,0.0,0.0,0.0,0.0,0.0,0.0,0.0,0.0,0.0,0.0,0.0,0.0,0.0,0.0,0.0,0.0,0.0,0.0,0.0,0.0,0.0,0.0,0.0,0.0,0.0,0.0,0.0,0.0,0.0,0.0,0.0,0.0,0.0,0.0,0.0,0.0,0.0,0.0,0.0,0.0,0.0,0.0,0.0,0.0,0.0,0.0,0.0,0.0,0.0,0.0,0.0,0.0,0.0,0.0,0.0,0.0,0.0,0.0,0.0,0.0,0.0,0.0,0.0,0.0,0.0,0.0,0.0,0.0,0.0,0.0,0.0,0.0,0.0,0.0,0.0,0.0,0.0,0.0,0.0,0.0,0.0,0.0,0.0,0.0,0.0,0.0,0.0,0.0,0.0,0.0,0.0,0.0,0.0,0.0,0.0,0.0,0.0,0.0,0.0,0.0,0.0,0.0,0.0,0.0,0.0,0.0,0.0,0.0,0.0,0.0,0.0,0.0,0.0,0.0,0.0,0.0,0.0,0.0,0.0,0.0,0.0,0.0,0.0,0.0,0.0,0.0,0.0,0.0,0.0,0.0,0.0,0.0,0.0,0.0,0.0,0.0,0.0,0.0,0.0,0.0,0.0,0.0,0.0,0.0,0.0,0.0,0.0,0.0,0.0,0.0,0.0,0.0,0.0,0.0,0.0,0.0,0.0,0.0,0.0,0.0,0.0,0.0,0.0,0.0,0.0,0.0,0.0,0.0,0.0,0.0,0.0,0.0,0.0,0.0,0.0,0.0,0.0,0.0,0.0,0.0,0.0,0.0,0.0,0.0,0.0,0.0,0.0,0.0,0.0,0.0,0.0,0.0,0.0,0.0,0.0,0.0,0.0,0.0,0.0,0.0,0.0,0.0,0.0,0.0,0.0,0.0,0.0,0.0,0.0,0.0]}],[{"header":{"parameterUnit":"kt","parameterCategory":2,"dx":1,"dy":1,"la1":29.587661999999998,"la2":31.0,"lo1":-88.76705300000003,"lo2":-86.6583820000003,"nx":115,"ny":88,"refTime":"2022-09-20T00:00:00:Z","depth":0,"parameterNumber":2,"parameterNumberName":"V-component_of_WINDS"},"data":[-5.075,-5.394,-5.5899,-5.6703,-5.7133,-5.8815,-6.0028,-6.0905,-6.199,-6.3023,-6.412,-6.5278,-6.6958,-6.9747,-6.8773,-6.8592,-6.8955,-6.8521,-6.9257,-7.0049,-7.0081,-7.1436,-7.2735,-7.3418,-7.4815,-7.5655,-7.59,-7.4904,-7.333,-7.3399,-7.3135,-7.2153,-7.1803,-7.1811,-7.1811,-7.1818,-7.1598,-7.1598,-7.1708,-7.1967,-7.2624,-7.3484,-7.444,-7.4953,-7.5441,-7.5256,-7.5163,-7.5497,-7.5735,-7.5826,-7.5808,-7.5717,-7.5681,-7.57,-7.5753,-7.5627,-7.5663,-7.5573,-7.5537,-7.5537,-7.5447,-7.5076,-7.4752,-7.4775,-7.4904,-7.4813,-7.4918,-7.5225,-7.575,-7.6875,-7.7314,-7.7388,-7.7578,-7.7727,-7.7799,-7.7871,-7.7944,-7.7906,-7.7906,-7.7906,-7.7908,-7.7801,-7.769,-7.7727,-7.7801,-7.7645,-7.7568,-7.7996,-7.8185,-7.8913,-7.9659,-8.1321,-8.3016,-8.4972,-8.684,-8.7275,-8.7273,-8.741,-8.734,-8.6907,-8.7133,-8.8139,-8.8137,-8.7426,-8.6932,-8.6125,-8.5181,-8.4448,-8.352,-8.2251,-8.1753,-8.134,-8.0788,-8.0505,-8.0816,-5.3529,-5.8362,-6.0362,-6.127,-6.1801,-6.2936,-6.359,-6.4212,-6.5428,-6.6516,-6.7629,-6.8718,-6.9632,-7.0443,-7.0491,-7.0538,-7.0605,-7.0496,-6.968,-7.0205,-7.1139,-7.2176,-7.3202,-7.4097,-7.5266,-7.6225,-7.6765,-7.5335,-7.3266,-7.4195,-7.4195,-7.3004,-7.2727,-7.2836,-7.2696,-7.2802,-7.3079,-7.3079,-7.3147,-7.335,-7.4282,-7.5205,-7.5888,-7.6336,-7.6599,-7.6562,-7.6515,-7.6599,-7.6599,-7.6728,-7.6893,-7.6884,-7.6929,-7.7137,-7.7145,-7.7056,-7.7093,-7.7129,-7.71,-7.71,-7.7027,-7.6801,-7.6372,-7.6372,-7.6718,-7.6801,-7.6901,-7.7102,-7.7356,-7.7939,-7.826,-7.8511,-7.874,-7.8872,-7.8933,-7.9015,-7.9015,-7.9015,-7.9015,-7.9015,-7.9008,-7.8976,-7.8903,-7.8837,-7.8738,-7.8536,-7.8677,-7.9135,-7.9657,-8.0212,-8.1657,-8.3544,-8.5049,-8.6596,-8.8378,-8.8668,-8.8446,-8.8489,-8.8305,-8.8594,-8.8756,-8.8621,-8.8529,-8.8487,-8.8155,-8.731,-8.6384,-8.5047,-8.337,-8.188,-8.1625,-8.1502,-8.0989,-8.1029,-8.1178,-5.8204,-6.0271,-6.2484,-6.3426,-6.3704,-6.4936,-6.5818,-6.6409,-6.7203,-6.9055,-7.1629,-7.2273,-7.2694,-7.3035,-7.3035,-7.3067,-7.2933,-7.2831,-7.2211,-7.2104,-7.3044,-7.3382,-7.4254,-7.5589,-7.6324,-7.6989,-7.7363,-7.6055,-7.3484,-7.4242,-7.4948,-7.3707,-7.4252,-7.4597,-7.4537,-7.4424,-7.4556,-7.4485,-7.4521,-7.5261,-7.6526,-7.6968,-7.746,-7.7608,-7.7721,-7.779,-7.779,-7.779,-7.7753,-7.7832,-7.7911,-7.7797,-7.7911,-7.8098,-7.8135,-7.8061,-7.8023,-7.8132,-7.8171,-7.8172,-7.8207,-7.8046,-7.7747,-7.7495,-7.7857,-7.8225,-7.8314,-7.826,-7.8511,-7.8579,-7.8951,-7.9065,-7.9231,-7.9302,-7.9356,-7.9371,-7.9371,-7.9371,-7.9409,-7.9409,-7.9377,-7.9327,-7.931,-7.9271,-7.9284,-7.9065,-7.9027,-7.9378,-8.0542,-8.1383,-8.389,-8.5945,-8.719,-8.8638,-8.9258,-8.9278,-8.9223,-8.9163,-8.8933,-8.903,-8.9038,-8.8945,-8.8756,-8.8451,-8.8158,-8.806,-8.7093,-8.5337,-8.3727,-8.3278,-8.2736,-8.2047,-8.1738,-8.1738,-8.3053,-6.3127,-6.3534,-6.5343,-6.6441,-6.686,-6.7965,-6.8901,-6.9309,-6.9853,-7.2128,-7.4697,-7.4986,-7.4957,-7.5032,-7.505,-7.5032,-7.4993,-7.4882,-7.4938,-7.4675,-7.4917,-7.5356,-7.6188,-7.6411,-7.7207,-7.7618,-7.6647,-7.4923,-7.4574,-7.4476,-7.4515,-7.4636,-7.4042,-7.5327,-7.5945,-7.54,-7.575,-7.6236,-7.6322,-7.7011,-7.7948,-7.8393,-7.8634,-7.8691,-7.87,-7.8755,-7.8793,-7.8801,-7.8808,-7.8816,-7.8816,-7.8816,-7.8853,-7.8808,-7.8778,-7.8816,-7.8763,-7.8808,-7.8838,-7.8869,-7.8878,-7.8776,-7.8762,-7.8727,-7.8835,-7.9291,-7.942,-7.9357,-7.9344,-7.9332,-7.9382,-7.942,-7.9458,-7.9458,-7.9458,-7.947,-7.947,-7.9458,-7.9496,-7.9496,-7.9496,-7.9458,-7.9416,-7.9462,-7.9598,-7.9734,-7.9831,-8.0679,-8.2061,-8.3669,-8.6186,-8.7601,-8.8973,-8.9227,-8.9324,-8.941,-8.9458,-8.9394,-8.9343,-8.9323,-8.9258,-8.9409,-8.9523,-8.8887,-8.885,-9.0022,-8.9672,-8.7159,-8.5939,-8.5723,-8.5188,-8.4326,-8.39,-8.4088,-8.5608,-6.7784,-7.0334,-7.0751,-7.1656,-7.3623,-7.3359,-7.3598,-7.4218,-7.4689,-7.5906,-7.6457,-7.6163,-7.62,-7.652,-7.6554,-7.6606,-7.6636,-7.6673,-7.6435,-7.5763,-7.6389,-7.6616,-7.688,-7.698,-7.7659,-7.6525,-7.5384,-7.4946,-7.6316,-7.5607,-7.4944,-7.6709,-7.4686,-7.4721,-7.6417,-7.6048,-7.6427,-7.7356,-7.7984,-7.8233,-7.8848,-7.9075,-7.9225,-7.9469,-7.9515,-7.9553,-7.9553,-7.9605,-7.962,-7.9605,-7.9605,-7.9544,-7.9544,-7.9506,-7.9506,-7.9492,-7.9349,-7.9356,-7.9333,-7.9326,-7.9251,-7.9233,-7.9286,-7.9155,-7.9069,-7.9268,-7.9384,-7.9386,-7.9538,-7.9576,-8.0409,-8.0674,-8.0822,-8.0898,-8.0623,-8.0388,-8.0156,-7.9852,-7.9814,-7.97,-7.97,-7.9685,-7.9697,-8.0335,-8.0486,-8.1246,-8.1891,-8.3107,-8.4553,-8.6169,-8.7851,-8.9067,-8.9523,-8.9559,-8.9633,-8.9588,-8.9633,-8.9674,-8.9712,-8.9664,-8.9522,-8.9787,-9.0202,-9.0064,-8.9904,-9.1319,-9.1746,-9.0411,-8.8856,-8.7979,-8.685,-8.639,-8.6659,-8.7093,-8.7975,-7.2295,-7.2996,-7.357,-7.4239,-7.4971,-7.5154,-7.5835,-7.6715,-7.7314,-7.7654,-7.7909,-7.7619,-7.7746,-7.7998,-7.8026,-7.8031,-7.809,-7.8013,-7.7904,-7.7577,-7.8013,-7.7923,-7.7932,-7.8194,-7.8306,-7.7713,-7.6621,-7.5207,-7.4636,-7.4147,-7.3478,-7.4146,-7.413,-7.4823,-7.5984,-7.6458,-7.7071,-7.8313,-7.9134,-7.9291,-7.9431,-7.9546,-7.9656,-7.9804,-7.988,-7.988,-7.9918,-7.9918,-7.9886,-7.9848,-7.9916,-7.9873,-7.9683,-7.9759,-7.9797,-7.9647,-7.9612,-7.9536,-7.9499,-7.946,-7.9538,-7.9536,-7.9531,-7.9384,-7.9215,-7.9097,-7.923,-7.9557,-7.9659,-8.0076,-8.1181,-8.2083,-8.2291,-8.2421,-8.1924,-8.1417,-8.0927,-8.0396,-8.013,-7.994,-7.9908,-7.9877,-8.0259,-8.098,-8.1626,-8.2338,-8.336,-8.4774,-8.6369,-8.7822,-8.9013,-8.9682,-8.9765,-8.9817,-8.9796,-8.9775,-8.974,-8.9781,-8.9805,-8.9813,-8.975,-8.9863,-8.993,-9.031,-9.083,-9.0884,-9.0998,-9.0745,-9.0849,-8.9016,-8.7598,-8.7844,-8.8429,-8.8891,-8.9035,-7.5131,-7.5131,-7.5709,-7.6069,-7.6196,-7.6441,-7.7235,-7.836,-7.8623,-7.8726,-7.8749,-7.8821,-7.8839,-7.9179,-7.9293,-7.9102,-7.9058,-7.9023,-7.9083,-7.9031,-7.8895,-7.9045,-7.9102,-7.9042,-7.916,-7.8612,-7.7616,-7.6164,-7.5053,-7.3602,-7.2922,-7.2203,-7.2467,-7.4349,-7.5642,-7.6471,-7.7908,-7.9076,-7.9559,-7.962,-7.9643,-7.969,-7.9761,-7.9826,-7.9864,-7.9864,-7.9902,-7.9902,-7.9864,-7.9848,-7.9936,-7.9925,-7.9671,-7.9643,-7.9636,-7.9507,-7.944,-7.9422,-7.9404,-7.9404,-7.9377,-7.9319,-7.925,-7.9082,-7.8856,-7.874,-7.9062,-7.9758,-8.0248,-8.1629,-8.2859,-8.3142,-8.3215,-8.292,-8.2286,-8.1842,-8.1409,-8.0822,-8.0039,-7.9925,-7.9925,-7.9945,-8.0156,-8.0986,-8.2405,-8.329,-8.4504,-8.6116,-8.7638,-8.8745,-8.9697,-8.9747,-8.9796,-8.9817,-8.9808,-8.9732,-8.9757,-8.9823,-8.9817,-8.9823,-8.9796,-8.9767,-8.9712,-9.0166,-9.1034,-9.1024,-9.0631,-9.1258,-9.2009,-9.0265,-8.9053,-8.9568,-8.9913,-8.9647,-8.9657,-7.6112,-7.7343,-7.7352,-7.7625,-7.8211,-7.7914,-7.8293,-7.8952,-7.8993,-7.9027,-7.9268,-7.9354,-7.9536,-7.9459,-7.9868,-7.9811,-7.9509,-7.9583,-7.9519,-7.9455,-7.9303,-7.9438,-7.9508,-7.9527,-7.9473,-7.9046,-7.822,-7.7178,-7.6882,-7.4888,-7.4008,-7.3608,-7.1814,-7.3792,-7.5943,-7.7166,-7.7981,-7.9114,-7.9635,-7.9581,-7.9541,-7.9635,-7.9673,-7.9735,-7.9773,-7.9773,-7.9773,-7.9773,-7.9735,-7.9733,-7.9726,-7.9722,-7.9591,-7.9328,-7.9219,-7.9091,-7.8953,-7.8897,-7.8868,-7.8868,-7.8886,-7.9177,-7.8831,-7.8598,-7.8766,-7.9277,-8.0155,-8.0896,-8.1697,-8.3171,-8.4522,-8.4539,-8.4579,-8.3911,-8.3234,-8.2406,-8.2006,-8.0937,-8.0114,-7.9786,-7.9786,-8.014,-8.0402,-8.1576,-8.3068,-8.4268,-8.5921,-8.7392,-8.8291,-8.943,-8.9485,-8.9577,-8.961,-8.9693,-8.9708,-8.9565,-8.9608,-8.9697,-8.9709,-8.9731,-8.9822,-8.9796,-8.9765,-9.0142,-9.1134,-9.1644,-9.1495,-9.1935,-9.2479,-9.2283,-9.1031,-9.1281,-9.1559,-9.1104,-9.1259,-7.5384,-7.7012,-7.7367,-7.7675,-7.77,-7.6908,-7.6759,-7.713,-7.7797,-7.8094,-7.8531,-7.9839,-8.0376,-8.0834,-8.1712,-8.2163,-8.0791,-8.0829,-8.0676,-7.9272,-7.9272,-7.9564,-7.9582,-7.9414,-7.9787,-7.9334,-7.8642,-7.7373,-7.5965,-7.4993,-7.3879,-7.267,-7.1624,-7.395,-7.6061,-7.7472,-7.8054,-7.9311,-7.9869,-7.9741,-7.9639,-7.9591,-7.9625,-7.9795,-7.9799,-7.9799,-7.9723,-7.9648,-7.9648,-7.9628,-7.9618,-7.9655,-7.9489,-7.9369,-7.9376,-7.929,-7.91,-7.8925,-7.8717,-7.859,-7.9022,-7.9496,-7.9545,-7.9981,-8.0872,-8.0647,-8.1693,-8.27,-8.367,-8.4973,-8.6201,-8.7065,-8.6904,-8.6396,-8.5403,-8.3713,-8.2804,-8.0603,-7.9574,-7.9384,-7.9459,-8.0214,-8.0875,-8.2329,-8.4009,-8.5649,-8.7196,-8.7998,-8.8818,-8.9006,-8.9082,-8.9105,-8.9091,-8.9196,-8.9217,-8.9314,-8.947,-8.9545,-8.956,-8.9572,-8.9632,-8.9594,-8.9748,-8.9969,-9.0272,-9.0756,-9.1513,-9.1723,-9.1231,-9.1155,-9.18,-9.2631,-9.3124,-9.3347,-9.3609,-7.3452,-7.5389,-7.6196,-7.6204,-7.5654,-7.5353,-7.5593,-7.6169,-7.7377,-7.8232,-7.8812,-8.0335,-8.1244,-8.1706,-8.2697,-8.2915,-8.2078,-8.1996,-8.1769,-8.0521,-8.0581,-8.0402,-8.0649,-8.0895,-8.0555,-8.0121,-7.9952,-7.8739,-7.5933,-7.5619,-7.3859,-7.2588,-7.3463,-7.5134,-7.7512,-7.9216,-7.9438,-8.0581,-8.0706,-8.0714,-8.0766,-8.0841,-8.0934,-8.1043,-8.1071,-8.1109,-8.1146,-8.1184,-8.1184,-8.1118,-8.0256,-8.0331,-8.0368,-7.8905,-7.8942,-7.8905,-7.871,-7.8574,-7.8412,-7.8729,-7.9154,-7.9998,-8.0338,-8.056,-8.1584,-8.184,-8.2743,-8.3452,-8.3771,-8.487,-8.6672,-8.7443,-8.7724,-8.7319,-8.6293,-8.4687,-8.3021,-8.0799,-7.9175,-7.8998,-7.983,-8.073,-8.1732,-8.312,-8.5129,-8.6925,-8.7704,-8.8473,-8.869,-8.8727,-8.8756,-8.8756,-8.8719,-8.8775,-8.8904,-8.9121,-8.9332,-8.9265,-8.9271,-8.9314,-8.9355,-8.9317,-8.9394,-8.9374,-8.9447,-8.9534,-9.0127,-9.051,-9.0023,-9.0744,-9.2298,-9.3385,-9.3885,-9.4473,-9.5194,-7.0348,-7.2536,-7.3811,-7.3505,-7.2646,-7.4046,-7.5207,-7.59,-7.7729,-7.9056,-7.9803,-8.1375,-8.2034,-8.2363,-8.3331,-8.342,-8.3072,-8.2928,-8.256,-8.2287,-8.1944,-8.2448,-8.2555,-8.2446,-8.1859,-8.1383,-8.1145,-8.0542,-7.887,-7.757,-7.6825,-7.5964,-7.5854,-7.7239,-8.0963,-8.3121,-8.4088,-8.4152,-8.3723,-8.3367,-8.3078,-8.2939,-8.2727,-8.2648,-8.2577,-8.2465,-8.2465,-8.2465,-8.2391,-8.2316,-8.1533,-8.1309,-8.1346,-7.9648,-7.8576,-7.8355,-7.7947,-7.775,-7.7691,-7.8668,-7.9937,-8.1223,-8.1199,-8.1271,-8.0938,-8.1119,-8.2085,-8.3779,-8.3812,-8.4465,-8.5344,-8.6434,-8.6793,-8.6542,-8.5559,-8.4227,-8.2735,-8.0872,-7.934,-7.8557,-8.002,-8.1518,-8.2569,-8.395,-8.6073,-8.7389,-8.8097,-8.8428,-8.8458,-8.8525,-8.8615,-8.8577,-8.8509,-8.8546,-8.8621,-8.8923,-8.901,-8.8887,-8.8867,-8.892,-8.8971,-8.9044,-8.902,-8.8882,-8.902,-8.9217,-8.9337,-8.9507,-9.0622,-9.1678,-9.311,-9.4378,-9.4722,-9.5274,-9.6264,-6.8343,-7.1071,-7.1703,-7.2043,-7.2665,-7.4272,-7.5068,-7.5572,-7.7101,-7.8149,-7.8804,-8.1386,-8.265,-8.3436,-8.4561,-8.5114,-8.4066,-8.3771,-8.326,-8.2853,-8.2515,-8.2378,-8.2419,-8.2542,-8.2699,-8.214,-8.196,-8.1328,-7.9762,-7.9136,-7.8543,-7.8506,-7.9023,-7.99,-8.191,-8.2287,-8.2768,-8.3037,-8.315,-8.315,-8.3261,-8.3299,-8.3224,-8.3373,-8.3373,-8.3373,-8.3334,-8.337,-8.3372,-8.3112,-8.2778,-8.2442,-8.1809,-8.0843,-7.9505,-7.8689,-7.8207,-7.8061,-7.8296,-7.9206,-8.0761,-8.2028,-8.2099,-8.2748,-8.3529,-8.4022,-8.3349,-8.4346,-8.46,-8.4995,-8.5366,-8.5793,-8.6074,-8.5782,-8.476,-8.3425,-8.1992,-8.0973,-7.9494,-7.8464,-7.9334,-8.0599,-8.1902,-8.3735,-8.5594,-8.6896,-8.7512,-8.7907,-8.791,-8.7988,-8.8138,-8.8101,-8.8026,-8.8138,-8.825,-8.8323,-8.8321,-8.8278,-8.8482,-8.8577,-8.8698,-8.8802,-8.8829,-8.884,-8.8878,-8.8969,-8.9309,-8.9786,-9.1016,-9.258,-9.4279,-9.594,-9.6275,-9.6795,-9.7596,-6.7526,-6.9798,-6.9394,-7.0091,-7.1632,-7.3124,-7.4236,-7.5102,-7.6579,-7.7721,-7.914,-8.1739,-8.3178,-8.3605,-8.5148,-8.5288,-8.4469,-8.4288,-8.3723,-8.3125,-8.2962,-8.3052,-8.3318,-8.3443,-8.3221,-8.3012,-8.3015,-8.2279,-8.0836,-8.0688,-8.0264,-8.1223,-8.2645,-8.3312,-8.3722,-8.4303,-8.4627,-8.4802,-8.5004,-8.489,-8.481,-8.4769,-8.4612,-8.4417,-8.4374,-8.4288,-8.4007,-8.4036,-8.4036,-8.3834,-8.3346,-8.3346,-8.3153,-8.1461,-8.0047,-7.901,-7.9202,-7.9156,-7.9292,-8.0582,-8.1656,-8.2687,-8.302,-8.3399,-8.3941,-8.443,-8.4537,-8.4603,-8.4531,-8.4358,-8.4861,-8.5077,-8.5141,-8.4755,-8.3771,-8.2397,-8.1245,-8.0547,-7.9474,-7.9138,-7.9585,-8.0558,-8.2187,-8.3706,-8.5096,-8.6371,-8.6916,-8.7345,-8.7262,-8.7271,-8.7234,-8.7197,-8.6976,-8.6976,-8.7243,-8.745,-8.7665,-8.7907,-8.8101,-8.825,-8.8393,-8.8595,-8.9001,-8.8894,-8.8866,-8.9595,-9.0039,-9.0227,-9.1474,-9.3543,-9.5369,-9.6913,-9.7788,-9.844,-9.863,-6.7474,-6.8692,-6.7499,-6.8343,-7.0094,-7.1293,-7.313,-7.5142,-7.6413,-7.8117,-7.9788,-8.1981,-8.2853,-8.3506,-8.3858,-8.4275,-8.4,-8.4002,-8.3889,-8.3889,-8.4001,-8.4012,-8.4287,-8.4564,-8.4756,-8.4107,-8.4167,-8.3649,-8.2754,-8.2462,-8.3471,-8.5057,-8.4574,-8.5727,-8.5963,-8.5415,-8.5949,-8.6422,-8.6754,-8.6976,-8.7044,-8.7029,-8.6847,-8.6312,-8.6198,-8.6055,-8.5465,-8.5148,-8.5025,-8.501,-8.4103,-8.3776,-8.3907,-8.2271,-8.0837,-8.0021,-8.0075,-8.031,-8.0823,-8.1907,-8.2519,-8.2463,-8.2658,-8.3075,-8.3068,-8.3138,-8.3173,-8.3103,-8.3033,-8.3177,-8.3576,-8.4036,-8.4168,-8.3798,-8.302,-8.1835,-8.1234,-8.0396,-7.9876,-7.9766,-8.0637,-8.2068,-8.3631,-8.417,-8.546,-8.587,-8.6364,-8.6678,-8.6575,-8.6729,-8.6575,-8.6471,-8.6198,-8.6235,-8.6471,-8.6605,-8.6952,-8.7234,-8.7916,-8.8204,-8.8417,-8.8829,-8.9394,-8.9509,-9.0262,-9.0637,-9.1123,-9.254,-9.3918,-9.505,-9.5948,-9.6946,-9.7884,-9.8439,-9.8704,-6.6471,-6.8868,-6.9499,-7.0591,-7.2028,-7.2915,-7.4133,-7.5623,-7.6863,-7.7858,-7.8792,-7.9495,-8.0804,-8.2071,-8.3321,-8.3861,-8.3932,-8.4002,-8.4002,-8.4002,-8.4002,-8.4001,-8.4242,-8.4644,-8.4745,-8.4547,-8.4822,-8.474,-8.4293,-8.3986,-8.3693,-8.4275,-8.468,-8.474,-8.4804,-8.505,-8.5406,-8.5873,-8.6164,-8.645,-8.6678,-8.6693,-8.6766,-8.6766,-8.6575,-8.622,-8.5999,-8.5597,-8.5297,-8.5236,-8.4598,-8.4357,-8.4418,-8.3097,-8.1884,-8.1177,-8.0745,-8.1184,-8.2244,-8.262,-8.2762,-8.2423,-8.2272,-8.2298,-8.1785,-8.1342,-8.139,-8.1588,-8.1554,-8.1472,-8.1554,-8.2307,-8.2809,-8.276,-8.2268,-8.187,-8.1318,-8.0477,-7.9915,-8.041,-8.1572,-8.3226,-8.3721,-8.451,-8.496,-8.5344,-8.5646,-8.5902,-8.6147,-8.6364,-8.642,-8.6474,-8.631,-8.6382,-8.6603,-8.6602,-8.6454,-8.681,-8.7836,-8.8453,-8.9123,-8.9638,-9.0133,-9.1018,-9.1893,-9.2351,-9.2846,-9.4889,-9.6665,-9.6665,-9.6821,-9.743,-9.7702,-9.8056,-9.8407,-6.6377,-6.8107,-6.8811,-6.9779,-7.1115,-7.2171,-7.3457,-7.4688,-7.6033,-7.7029,-7.7726,-7.8018,-7.9212,-8.1176,-8.2567,-8.3169,-8.3279,-8.3169,-8.3244,-8.3169,-8.3169,-8.3283,-8.354,-8.379,-8.4242,-8.4271,-8.468,-8.4941,-8.4746,-8.4207,-8.4002,-8.4037,-8.4036,-8.4036,-8.4374,-8.4275,-8.4471,-8.4697,-8.5077,-8.5442,-8.5772,-8.5886,-8.5943,-8.5906,-8.5619,-8.5261,-8.4988,-8.4668,-8.4471,-8.4471,-8.4471,-8.4364,-8.4042,-8.3578,-8.2941,-8.2198,-8.187,-8.2151,-8.3042,-8.2884,-8.2844,-8.2532,-8.2263,-8.1739,-8.1342,-8.0973,-8.0719,-8.0702,-8.0667,-8.0719,-8.0889,-8.1507,-8.1866,-8.1846,-8.166,-8.1387,-8.1067,-8.036,-8.0325,-8.1308,-8.2293,-8.2657,-8.3117,-8.3398,-8.3542,-8.4069,-8.4578,-8.504,-8.555,-8.609,-8.638,-8.6598,-8.6779,-8.6851,-8.7055,-8.739,-8.7427,-8.7884,-8.8902,-8.9555,-9.0108,-9.0706,-9.1357,-9.2185,-9.3147,-9.3998,-9.4738,-9.5822,-9.6721,-9.727,-9.7779,-9.775,-9.772,-9.8,-9.8085,-6.6764,-6.6895,-6.6895,-6.7621,-6.9033,-7.0574,-7.1969,-7.3325,-7.4937,-7.6105,-7.7132,-7.7332,-7.8403,-8.0057,-8.1244,-8.1644,-8.1808,-8.1773,-8.1854,-8.205,-8.205,-8.2368,-8.2873,-8.2949,-8.3467,-8.3755,-8.3967,-8.3932,-8.3754,-8.3682,-8.3682,-8.3682,-8.3755,-8.4034,-8.3755,-8.3965,-8.4632,-8.4761,-8.4797,-8.4925,-8.505,-8.5175,-8.505,-8.4761,-8.4537,-8.4338,-8.4069,-8.379,-8.3612,-8.354,-8.3502,-8.343,-8.3391,-8.3391,-8.3391,-8.3099,-8.3099,-8.3024,-8.2727,-8.2263,-8.1946,-8.2026,-8.1877,-8.1773,-8.1249,-8.0865,-8.0645,-8.0695,-8.0607,-8.0531,-8.0688,-8.1179,-8.1541,-8.1336,-8.1099,-8.1073,-8.1127,-8.0729,-8.0951,-8.1768,-8.1718,-8.2078,-8.2507,-8.2324,-8.2254,-8.2943,-8.3679,-8.4356,-8.4984,-8.5963,-8.6591,-8.7302,-8.7691,-8.7942,-8.8187,-8.8713,-8.8994,-8.9318,-9.0143,-9.0876,-9.136,-9.1924,-9.2557,-9.331,-9.4457,-9.5332,-9.5462,-9.5889,-9.6671,-9.7017,-9.6966,-9.7204,-9.7567,-9.7742,-9.7787,-6.5723,-6.6895,-6.6895,-6.7621,-6.8908,-7.0453,-7.1883,-7.3325,-7.4937,-7.5823,-7.6138,-7.6449,-7.723,-7.8148,-7.8687,-7.9187,-7.9857,-7.9947,-8.0476,-8.0821,-8.0992,-8.1528,-8.2254,-8.2721,-8.3024,-8.3173,-8.343,-8.3465,-8.2679,-8.2446,-8.2559,-8.2524,-8.2637,-8.2679,-8.2756,-8.3064,-8.3094,-8.3283,-8.343,-8.3612,-8.386,-8.4307,-8.4668,-8.5113,-8.4603,-8.4271,-8.4,-8.3612,-8.343,-8.3391,-8.3391,-8.3391,-8.3391,-8.3391,-8.2686,-8.1472,-8.1259,-8.1224,-8.1328,-8.1145,-8.1112,-8.1249,-8.0253,-8.0216,-8.0365,-8.0939,-8.0855,-8.1421,-8.1056,-8.0324,-8.028,-8.0109,-7.9992,-8.0078,-8.048,-8.086,-8.1002,-8.1174,-8.1342,-8.1163,-8.1231,-8.1548,-8.2049,-8.2034,-8.2443,-8.3055,-8.4023,-8.4673,-8.5336,-8.6269,-8.6875,-8.7765,-8.8584,-8.8869,-8.9725,-9.0365,-9.0683,-9.0895,-9.1382,-9.2002,-9.2529,-9.3047,-9.3591,-9.4097,-9.5128,-9.5291,-9.5674,-9.5999,-9.6301,-9.6357,-9.6244,-9.6357,-9.672,-9.6966,-9.7302,-6.5023,-6.5723,-6.6604,-6.739,-6.8362,-6.9779,-7.0965,-7.1944,-7.3551,-7.436,-7.436,-7.4579,-7.5378,-7.6595,-7.6866,-7.7921,-7.9001,-7.9312,-7.9553,-7.9857,-8.0002,-8.0529,-8.1411,-8.1704,-8.214,-8.2411,-8.1946,-8.1293,-8.0856,-8.0856,-8.0736,-8.0907,-8.1279,-8.1445,-8.1562,-8.2039,-8.2516,-8.2826,-8.2978,-8.3204,-8.343,-8.3683,-8.4,-8.4239,-8.4069,-8.393,-8.3825,-8.3502,-8.343,-8.3283,-8.2949,-8.2762,-8.2609,-8.2368,-8.1933,-8.1711,-8.1163,-8.1179,-8.2415,-8.148,-8.1523,-8.1671,-8.1656,-8.1535,-8.1651,-8.1652,-8.1984,-8.2009,-8.131,-8.085,-8.0225,-8.0318,-7.9957,-7.9731,-8.0112,-8.0685,-8.0889,-8.0973,-8.0513,-8.0023,-8.0645,-8.1288,-8.175,-8.2292,-8.2606,-8.3388,-8.4386,-8.5148,-8.5856,-8.6365,-8.676,-8.7874,-8.925,-9.0194,-9.1935,-9.2224,-9.2404,-9.2368,-9.2583,-9.3117,-9.3577,-9.3915,-9.439,-9.4584,-9.4654,-9.4801,-9.5083,-9.5305,-9.5592,-9.5775,-9.5836,-9.5859,-9.6035,-9.6357,-9.6826,-6.4316,-6.4725,-6.6206,-6.7157,-6.7678,-6.9092,-7.0054,-7.0602,-7.2177,-7.2725,-7.2725,-7.2725,-7.4014,-7.5356,-7.5808,-7.6866,-7.8181,-7.8469,-7.8753,-7.9001,-7.9094,-7.9553,-8.0267,-8.0495,-8.0907,-8.111,-8.0476,-7.9734,-7.9495,-7.9312,-7.9677,-7.9553,-8.0179,-8.0529,-8.0821,-8.1362,-8.1924,-8.205,-8.2446,-8.2791,-8.3059,-8.3356,-8.3575,-8.3575,-8.3575,-8.3502,-8.3465,-8.3465,-8.3283,-8.3099,-8.242,-8.2258,-8.2271,-8.1604,-8.1705,-8.2008,-8.1603,-8.179,-8.3152,-8.2497,-8.2828,-8.3695,-8.3449,-8.308,-8.3513,-8.358,-8.3207,-8.2927,-8.279,-8.2461,-8.1014,-8.0792,-8.0543,-7.9957,-7.9822,-8.0023,-8.0125,-8.0341,-8.0293,-8.0676,-8.0787,-8.1154,-8.188,-8.2505,-8.2944,-8.3719,-8.4955,-8.6037,-8.7055,-8.7467,-8.7626,-8.8629,-8.9767,-9.1568,-9.3302,-9.3053,-9.3175,-9.2815,-9.3186,-9.362,-9.3944,-9.4546,-9.4548,-9.4267,-9.4231,-9.4339,-9.4444,-9.4618,-9.4854,-9.4988,-9.5213,-9.5431,-9.5468,-9.553,-9.613,-6.3463,-6.4725,-6.6206,-6.7027,-6.7678,-6.915,-7.005,-7.054,-7.2061,-7.2624,-7.2641,-7.261,-7.3449,-7.4579,-7.486,-7.558,-7.6681,-7.7188,-7.7757,-7.8185,-7.8086,-7.8626,-7.9413,-7.9639,-7.9899,-7.9677,-7.9521,-7.9428,-7.9428,-7.9346,-7.9508,-7.9387,-7.9778,-8.024,-8.015,-8.0491,-8.1351,-8.159,-8.2257,-8.2785,-8.2602,-8.3223,-8.3485,-8.352,-8.3555,-8.3555,-8.359,-8.352,-8.3159,-8.2298,-8.2106,-8.2464,-8.2819,-8.2547,-8.2248,-8.2282,-8.2084,-8.2516,-8.3079,-8.2678,-8.2312,-8.2479,-8.2635,-8.3157,-8.4019,-8.4211,-8.4105,-8.4434,-8.4532,-8.473,-8.371,-8.1814,-8.0362,-7.9833,-7.8842,-7.8443,-7.8542,-7.9502,-8.1122,-8.1946,-8.2045,-8.2375,-8.284,-8.3306,-8.3544,-8.4055,-8.5739,-8.7151,-8.8437,-8.9223,-8.9339,-9.0119,-8.9931,-9.1183,-9.1787,-9.1801,-9.2699,-9.2863,-9.35,-9.3721,-9.3867,-9.4014,-9.4014,-9.3825,-9.3935,-9.3974,-9.4085,-9.4195,-9.4195,-9.4049,-9.4303,-9.4618,-9.4755,-9.4823,-9.5054,-6.147,-6.246,-6.486,-6.615,-6.6924,-6.9055,-7.0299,-7.0834,-7.1552,-7.2097,-7.246,-7.1866,-7.315,-7.5456,-7.5693,-7.6708,-7.8152,-7.856,-7.8459,-7.7962,-7.7387,-7.7694,-7.841,-7.9306,-7.9891,-7.9924,-7.996,-7.9891,-7.9858,-7.9957,-7.9828,-7.996,-8.0626,-8.0787,-8.0986,-8.2414,-8.2451,-8.2417,-8.3819,-8.4157,-8.3579,-8.4289,-8.4733,-8.4137,-8.4137,-8.422,-8.4233,-8.4185,-8.397,-8.3545,-8.3178,-8.2895,-8.2815,-8.2474,-8.2625,-8.2987,-8.279,-8.2757,-8.3908,-8.3941,-8.3579,-8.4639,-8.4623,-8.4623,-8.4459,-8.5247,-8.5247,-8.4721,-8.4763,-8.45,-8.233,-8.0554,-7.9732,-7.9074,-7.8285,-7.8318,-7.9107,-8.0357,-8.1972,-8.2998,-8.3256,-8.3816,-8.4547,-8.5008,-8.5338,-8.5279,-8.6788,-8.7222,-8.8633,-8.8951,-8.9539,-8.9798,-8.9746,-8.999,-9.0414,-9.1078,-9.1955,-9.2519,-9.3025,-9.3182,-9.3373,-9.3373,-9.3373,-9.3638,-9.3825,-9.3825,-9.3935,-9.3935,-9.3974,-9.3899,-9.3974,-9.3899,-9.4085,-9.4515,-9.4687,-6.0766,-6.1207,-6.4468,-6.6174,-6.7044,-6.958,-7.1022,-7.1312,-7.1414,-7.1981,-7.2303,-7.1638,-7.3126,-7.6145,-7.6035,-7.7377,-7.8963,-7.9107,-7.9284,-7.8353,-7.7414,-7.7762,-7.8629,-7.9707,-8.044,-8.044,-8.0459,-8.0427,-8.0472,-8.0388,-8.0459,-8.0549,-8.1113,-8.182,-8.1897,-8.2945,-8.3959,-8.3733,-8.5013,-8.4933,-8.4189,-8.4955,-8.5311,-8.474,-8.4774,-8.4876,-8.4979,-8.4979,-8.5078,-8.5083,-8.4642,-8.4112,-8.3728,-8.3519,-8.3875,-8.4368,-8.3678,-8.3678,-8.5256,-8.4598,-8.4401,-8.5058,-8.5223,-8.5519,-8.4269,-8.5157,-8.5124,-8.3875,-8.3743,-8.2856,-8.0949,-8.0455,-8.0225,-7.9666,-7.9239,-7.95,-8.051,-8.1826,-8.319,-8.4217,-8.4737,-8.5297,-8.6368,-8.636,-8.6492,-8.6722,-8.7078,-8.7324,-8.7679,-8.7959,-8.8298,-8.8568,-8.8665,-8.9087,-8.9546,-9.0079,-9.0776,-9.1377,-9.1892,-9.2262,-9.2509,-9.2625,-9.2706,-9.3025,-9.3562,-9.3825,-9.3935,-9.3935,-9.3935,-9.3935,-9.3935,-9.3935,-9.3974,-9.4267,-9.4515,-6.3231,-6.3838,-6.6894,-6.8635,-6.9446,-7.1268,-7.2297,-7.2534,-7.2534,-7.2679,-7.287,-7.2608,-7.3607,-7.4861,-7.5616,-7.5807,-7.712,-7.767,-7.7836,-7.8666,-7.9379,-7.9899,-8.0118,-8.0814,-8.0975,-8.0942,-8.0588,-8.0749,-8.1007,-8.0814,-8.0653,-8.1085,-8.1239,-8.1295,-8.1943,-8.2067,-8.1912,-8.2455,-8.3945,-8.4304,-8.4109,-8.4847,-8.535,-8.5129,-8.5095,-8.5155,-8.5146,-8.5112,-8.5263,-8.6343,-8.65,-8.5832,-8.589,-8.5979,-8.6045,-8.565,-8.4532,-8.3908,-8.4335,-8.3415,-8.2724,-8.3119,-8.4138,-8.3973,-8.3119,-8.3743,-8.3645,-8.131,-8.1738,-8.1639,-8.062,-8.1076,-8.1137,-8.0963,-8.1569,-8.1871,-8.2409,-8.3397,-8.473,-8.6186,-8.6383,-8.6407,-8.6713,-8.6854,-8.7037,-8.6821,-8.7144,-8.7251,-8.743,-8.7641,-8.7745,-8.7816,-8.8093,-8.8298,-8.8701,-8.9227,-8.9771,-9.0241,-9.079,-9.1236,-9.1498,-9.1585,-9.1842,-9.2345,-9.2866,-9.3295,-9.3562,-9.3825,-9.3935,-9.3935,-9.3935,-9.3935,-9.3935,-9.4158,-9.4267,-6.2842,-6.435,-6.6634,-6.8513,-7.0034,-7.2515,-7.3707,-7.3814,-7.3919,-7.4269,-7.4667,-7.4247,-7.4985,-7.6958,-7.6972,-7.7606,-7.8812,-7.8873,-7.9187,-7.986,-8.0287,-8.0963,-8.183,-8.2712,-8.3003,-8.2971,-8.3003,-8.2825,-8.2793,-8.2971,-8.2971,-8.2906,-8.3148,-8.3148,-8.3164,-8.3896,-8.4224,-8.3973,-8.5367,-8.5644,-8.4909,-8.5983,-8.6218,-8.5713,-8.5881,-8.5983,-8.5983,-8.5983,-8.5275,-8.4277,-8.4097,-8.4171,-8.4089,-8.4097,-8.4072,-8.4039,-8.3513,-8.3119,-8.2987,-8.2625,-8.2231,-8.233,-8.2658,-8.2362,-8.1606,-8.2264,-8.2461,-8.0455,-8.062,-8.1047,-8.1076,-8.0363,-8.0021,-8.0569,-8.2963,-8.4811,-8.4865,-8.5292,-8.6045,-8.6407,-8.6637,-8.6637,-8.6637,-8.6746,-8.6854,-8.6929,-8.7177,-8.7144,-8.7218,-8.7536,-8.7641,-8.785,-8.799,-8.8195,-8.8501,-8.8702,-8.9099,-8.9197,-8.9649,-8.9934,-9.0089,-8.9995,-9.0609,-9.1498,-9.2179,-9.2706,-9.3139,-9.3485,-9.3674,-9.3899,-9.3935,-9.3935,-9.3935,-9.4048,-9.4048,-6.2933,-6.4608,-6.6343,-6.8402,-7.076,-7.3384,-7.4708,-7.5151,-7.5201,-7.5588,-7.6214,-7.5618,-7.6195,-7.804,-7.7971,-7.8583,-7.9088,-7.9329,-7.9691,-8.0084,-8.0083,-8.0982,-8.2224,-8.3232,-8.3558,-8.3376,-8.3098,-8.3923,-8.4159,-8.3967,-8.4233,-8.469,-8.4581,-8.4677,-8.4921,-8.5523,-8.5798,-8.583,-8.7052,-8.6986,-8.6111,-8.6839,-8.7111,-8.6352,-8.6538,-8.6647,-8.6713,-8.6308,-8.4787,-8.241,-8.2193,-8.2193,-8.2416,-8.2423,-8.2494,-8.2362,-8.2001,-8.1639,-8.1573,-8.1212,-8.1014,-8.108,-8.131,-8.1014,-7.9732,-8.0485,-8.0649,-8.0455,-8.0225,-8.0817,-8.1602,-8.0551,-7.9936,-8.0242,-8.2169,-8.4189,-8.5185,-8.6164,-8.6637,-8.6637,-8.6637,-8.6637,-8.6637,-8.6746,-8.6746,-8.6746,-8.6854,-8.6929,-8.7037,-8.7251,-8.7536,-8.7745,-8.7953,-8.809,-8.8193,-8.8227,-8.833,-8.8398,-8.8871,-8.9404,-8.9373,-8.9271,-8.9881,-9.0621,-9.1252,-9.1927,-9.2427,-9.3017,-9.3485,-9.3825,-9.3899,-9.3935,-9.3935,-9.3899,-9.3899,-6.4724,-6.566,-6.7335,-6.9325,-7.1811,-7.3483,-7.5014,-7.6291,-7.6431,-7.646,-7.6576,-7.636,-7.6593,-7.6629,-7.6929,-7.7038,-7.6856,-7.7134,-7.7753,-7.8577,-7.8915,-7.948,-8.0473,-8.0727,-8.0856,-8.0918,-8.1261,-8.1823,-8.289,-8.3042,-8.3535,-8.4626,-8.4677,-8.4857,-8.4989,-8.5298,-8.546,-8.5555,-8.6066,-8.6429,-8.6242,-8.6571,-8.6713,-8.6505,-8.6571,-8.6505,-8.6078,-8.496,-8.3678,-8.2461,-8.1935,-8.1771,-8.2066,-8.2165,-8.1935,-8.1803,-8.0883,-8.0357,-7.9929,-7.9305,-7.8548,-7.8713,-7.9434,-7.9568,-7.8317,-7.831,-7.8596,-7.9589,-8.0121,-8.0945,-8.1826,-8.1472,-8.2124,-8.318,-8.1803,-8.1481,-8.2775,-8.5136,-8.5988,-8.6385,-8.6637,-8.6637,-8.6527,-8.6637,-8.6637,-8.6637,-8.6746,-8.6746,-8.6854,-8.7177,-8.743,-8.7641,-8.7953,-8.809,-8.8193,-8.833,-8.833,-8.8633,-8.9137,-8.9442,-8.9441,-8.9207,-8.9341,-8.9859,-9.0422,-9.1128,-9.1671,-9.2319,-9.2847,-9.3175,-9.3485,-9.3825,-9.3935,-9.3899,-9.3899,-6.5696,-6.7084,-6.802,-7.0343,-7.3294,-7.3939,-7.5157,-7.6494,-7.6635,-7.6635,-7.6635,-7.6635,-7.6635,-7.6635,-7.6635,-7.6635,-7.6635,-7.6635,-7.6885,-7.7273,-7.7382,-7.7668,-7.8142,-7.8181,-7.8204,-7.8538,-8.0797,-8.1942,-8.164,-8.235,-8.3412,-8.4337,-8.3905,-8.3567,-8.3938,-8.478,-8.5006,-8.4833,-8.5531,-8.6275,-8.6495,-8.6637,-8.6209,-8.5519,-8.6143,-8.5683,-8.3842,-8.2461,-8.1442,-8.0883,-7.9962,-7.9535,-7.9502,-7.9535,-7.9502,-7.9403,-7.9009,-7.8746,-7.868,-7.8252,-7.7924,-7.7858,-7.7752,-7.7346,-7.6951,-7.6065,-7.6346,-7.7444,-7.8141,-7.8897,-8.0529,-8.0518,-8.1037,-8.2924,-8.179,-8.1761,-8.2287,-8.3527,-8.4148,-8.4381,-8.4843,-8.5217,-8.562,-8.5988,-8.6637,-8.6637,-8.6637,-8.6637,-8.6746,-8.7103,-8.7251,-8.7569,-8.8217,-8.8559,-8.8394,-8.8531,-8.8497,-8.9134,-8.9872,-9.014,-9.0341,-9.0039,-8.9704,-9.032,-9.0412,-9.1237,-9.1205,-9.1776,-9.2192,-9.2319,-9.2509,-9.2981,-9.3331,-9.3485,-9.4042,-6.5835,-6.7245,-6.7726,-6.975,-7.2578,-7.3294,-7.4348,-7.5758,-7.6494,-7.6635,-7.6635,-7.6635,-7.6635,-7.6635,-7.6635,-7.6635,-7.6606,-7.6169,-7.6257,-7.6576,-7.6635,-7.6666,-7.6657,-7.6287,-7.6249,-7.713,-7.9207,-7.9959,-7.9648,-7.9905,-8.1503,-8.286,-8.2049,-8.1973,-8.3017,-8.3726,-8.4208,-8.393,-8.4637,-8.527,-8.5805,-8.5946,-8.5453,-8.4524,-8.5354,-8.4302,-8.1113,-8.039,-7.9896,-7.9403,-7.845,-7.7924,-7.7924,-7.7924,-7.7924,-7.7924,-7.7924,-7.7924,-7.7891,-7.7595,-7.7363,-7.7162,-7.6281,-7.5759,-7.5548,-7.4715,-7.5068,-7.6893,-7.7208,-7.8194,-8.0307,-8.0268,-8.0394,-8.1355,-8.1851,-8.1911,-8.1948,-8.2071,-8.2164,-8.2653,-8.3376,-8.385,-8.4116,-8.4613,-8.5249,-8.554,-8.5909,-8.6569,-8.7053,-8.7863,-8.8054,-8.8865,-8.9284,-9.0068,-9.0609,-9.1016,-9.0743,-9.0944,-9.1447,-9.1782,-9.1849,-9.1682,-9.138,-9.1393,-9.1267,-9.1228,-9.1035,-9.1227,-9.1572,-9.1776,-9.2277,-9.2591,-9.2696,-9.3238,-9.4029,-6.5203,-6.5721,-6.6074,-6.7778,-6.9932,-7.1441,-7.2794,-7.4409,-7.5785,-7.6233,-7.614,-7.6349,-7.6175,-7.6402,-7.6169,-7.646,-7.6227,-7.5326,-7.5471,-7.6547,-7.6635,-7.6518,-7.6338,-7.5397,-7.5446,-7.6352,-7.5426,-7.565,-7.7038,-7.6615,-7.7893,-8.03,-8.0076,-8.0671,-8.3096,-8.2648,-8.2637,-8.3416,-8.3375,-8.3375,-8.3916,-8.4491,-8.4393,-8.3916,-8.4122,-8.2527,-7.8483,-7.937,-7.937,-7.822,-7.7924,-7.7924,-7.7924,-7.7924,-7.7924,-7.7924,-7.7924,-7.7924,-7.7793,-7.6928,-7.6552,-7.6073,-7.5228,-7.4657,-7.4407,-7.3857,-7.4636,-7.7166,-7.8276,-7.9428,-8.1534,-8.2103,-8.1601,-7.9457,-8.0662,-8.132,-8.0975,-8.0841,-8.1162,-8.2353,-8.2971,-8.2748,-8.2748,-8.3611,-8.4433,-8.4938,-8.5488,-8.6564,-8.8109,-8.9228,-9.0511,-9.1553,-9.1769,-9.1642,-9.266,-9.3399,-9.2922,-9.2754,-9.3224,-9.3626,-9.376,-9.3157,-9.2855,-9.2587,-9.2474,-9.2109,-9.1943,-9.1431,-9.161,-9.188,-9.2369,-9.2747,-9.3526,-9.4387,-9.4892,-6.3713,-6.5835,-6.6539,-6.7804,-6.9465,-7.1109,-7.2174,-7.3018,-7.4527,-7.4708,-7.4006,-7.3946,-7.3969,-7.394,-7.3959,-7.4424,-7.5151,-7.4861,-7.5355,-7.6547,-7.6635,-7.614,-7.5326,-7.4831,-7.4861,-7.5006,-7.3959,-7.4589,-7.6529,-7.713,-7.9126,-8.2106,-8.0789,-8.0894,-8.2323,-8.3668,-8.3658,-8.3236,-8.4467,-8.5354,-8.5608,-8.482,-8.3835,-8.2981,-8.2712,-8.1564,-7.9568,-7.8877,-7.8351,-7.7989,-7.7924,-7.7924,-7.7924,-7.7924,-7.7924,-7.7924,-7.7924,-7.7562,-7.696,-7.713,-7.6724,-7.5196,-7.4625,-7.4108,-7.3336,-7.3175,-7.3982,-7.5655,-7.678,-7.8028,-7.9822,-8.1678,-8.2367,-8.1862,-8.1914,-8.2083,-8.2077,-8.2094,-8.2306,-8.2725,-8.3693,-8.4533,-8.4883,-8.5861,-8.6602,-8.7215,-8.7964,-8.8679,-8.9566,-9.0493,-9.1568,-9.222,-9.2739,-9.319,-9.3425,-9.4875,-9.5168,-9.5202,-9.557,-9.5872,-9.5905,-9.4866,-9.4263,-9.4028,-9.3701,-9.3344,-9.2739,-9.2171,-9.2109,-9.235,-9.2727,-9.3263,-9.4104,-9.539,-9.5838,-6.2658,-6.5684,-6.6549,-6.7483,-6.8654,-7.0346,-7.1272,-7.1542,-7.3146,-7.3435,-7.2778,-7.2623,-7.2673,-7.2679,-7.2301,-7.2534,-7.3319,-7.425,-7.5064,-7.5849,-7.6402,-7.6169,-7.5326,-7.4831,-7.4831,-7.5064,-7.4017,-7.4381,-7.5961,-7.6299,-7.8002,-8.0115,-7.9248,-7.9553,-8.1267,-8.2777,-8.3318,-8.2967,-8.4097,-8.5289,-8.5477,-8.4712,-8.3867,-8.302,-8.1826,-8.0842,-8.0127,-7.868,-7.7924,-7.7924,-7.7924,-7.7924,-7.7924,-7.7924,-7.7924,-7.7924,-7.7924,-7.7431,-7.6437,-7.6498,-7.58,-7.4093,-7.3488,-7.2817,-7.2217,-7.2227,-7.3047,-7.5054,-7.6708,-7.8383,-8.0119,-8.2183,-8.332,-8.2991,-8.32,-8.332,-8.2961,-8.2811,-8.2811,-8.2952,-8.3837,-8.4834,-8.502,-8.6356,-8.7474,-8.7851,-8.8439,-8.9483,-9.0588,-9.175,-9.2876,-9.3722,-9.4254,-9.433,-9.4363,-9.6174,-9.7179,-9.7179,-9.7179,-9.7079,-9.7045,-9.604,-9.5704,-9.5503,-9.5336,-9.501,-9.4951,-9.4212,-9.2862,-9.3047,-9.33,-9.376,-9.408,-9.5979,-9.6785,-6.2058,-6.4594,-6.6245,-6.6863,-6.7084,-6.8861,-6.9592,-6.9586,-7.1596,-7.2342,-7.2169,-7.2343,-7.2563,-7.2476,-7.1312,-7.0963,-7.1516,-7.3406,-7.4453,-7.5064,-7.5966,-7.6547,-7.6518,-7.5355,-7.5384,-7.6286,-7.5239,-7.4773,-7.4852,-7.3774,-7.4295,-7.6928,-7.6128,-7.6997,-8.0111,-8.0328,-8.0962,-8.3103,-8.3163,-8.3211,-8.408,-8.3952,-8.3854,-8.3827,-8.1531,-8.0121,-7.9929,-7.868,-7.7924,-7.7924,-7.7924,-7.7924,-7.7924,-7.7924,-7.7924,-7.7924,-7.7924,-7.7464,-7.6183,-7.5311,-7.4124,-7.2738,-7.2035,-7.1295,-7.1475,-7.1944,-7.3389,-7.6088,-7.8041,-8.0268,-8.2632,-8.4128,-8.4307,-8.3499,-8.4157,-8.4187,-8.326,-8.3409,-8.305,-8.317,-8.3462,-8.4085,-8.4201,-8.4674,-8.5894,-8.6589,-8.7151,-8.8676,-9.1351,-9.2878,-9.434,-9.5957,-9.6765,-9.7146,-9.7112,-9.7179,-9.7179,-9.7213,-9.7213,-9.7179,-9.7179,-9.7213,-9.7112,-9.6978,-9.6643,-9.6509,-9.671,-9.604,-9.4665,-9.4212,-9.4413,-9.4556,-9.4961,-9.6658,-9.7416,-6.2734,-6.5098,-6.6431,-6.6863,-6.6923,-6.7787,-6.7697,-6.7209,-6.8942,-6.9144,-6.846,-6.9589,-7.0527,-7.1138,-7.0091,-7.1109,-7.3232,-7.2447,-7.3406,-7.5849,-7.5413,-7.5733,-7.6547,-7.6227,-7.6286,-7.6518,-7.6227,-7.6082,-7.6024,-7.5675,-7.647,-7.8097,-7.7887,-7.8386,-8.0072,-8.1744,-8.2528,-8.2906,-8.4692,-8.5617,-8.5554,-8.354,-8.2446,-8.2712,-8.1001,-7.9933,-7.9993,-7.868,-7.7924,-7.7924,-7.7924,-7.7924,-7.7924,-7.7924,-7.7924,-7.7924,-7.7924,-7.7032,-7.5123,-7.5388,-7.4516,-7.2004,-7.2947,-7.3255,-7.3096,-7.4994,-7.7025,-7.819,-8.0764,-8.3192,-8.538,-8.5923,-8.5982,-8.5713,-8.5863,-8.6012,-8.5623,-8.5623,-8.5504,-8.5593,-8.5499,-8.5884,-8.6687,-8.7272,-8.7768,-8.8075,-8.9194,-9.0703,-9.1705,-9.3405,-9.4897,-9.5914,-9.6691,-9.7066,-9.7213,-9.7066,-9.7213,-9.7213,-9.7213,-9.7213,-9.7213,-9.7213,-9.7213,-9.7213,-9.7213,-9.7146,-9.7045,-9.7045,-9.6241,-9.604,-9.6194,-9.6347,-9.6018,-9.7381,-9.8005,-6.2303,-6.4729,-6.6228,-6.6635,-6.6319,-6.6149,-6.5801,-6.5194,-6.6371,-6.6864,-6.6782,-6.8235,-6.9684,-7.0905,-7.0673,-7.14,-7.3028,-7.265,-7.3697,-7.5617,-7.5588,-7.5849,-7.6576,-7.6635,-7.6635,-7.6635,-7.6635,-7.6635,-7.6635,-7.6635,-7.7134,-7.7978,-7.7871,-7.8397,-7.9456,-8.1108,-8.2123,-8.2169,-8.3964,-8.4792,-8.4381,-8.2653,-8.197,-8.2688,-8.1523,-8.0762,-8.0674,-7.9568,-7.8516,-7.7957,-7.7924,-7.7924,-7.7924,-7.7924,-7.7924,-7.7891,-7.7463,-7.6217,-7.392,-7.4407,-7.3694,-7.1145,-7.2832,-7.3952,-7.3872,-7.6069,-7.8518,-8.0298,-8.2742,-8.487,-8.6282,-8.6611,-8.6641,-8.6641,-8.6641,-8.6758,-8.7052,-8.7228,-8.7374,-8.7664,-8.7664,-8.7892,-8.8637,-8.895,-8.8981,-8.9262,-8.9619,-9.0257,-9.0994,-9.2311,-9.3742,-9.4781,-9.4934,-9.5325,-9.5947,-9.6097,-9.6395,-9.6919,-9.7213,-9.7213,-9.7213,-9.7213,-9.7213,-9.7213,-9.7213,-9.7213,-9.7213,-9.7213,-9.7213,-9.7045,-9.7146,-9.7213,-9.7213,-9.7703,-9.7999,-6.1259,-6.3635,-6.5618,-6.5999,-6.509,-6.4331,-6.3954,-6.3954,-6.4205,-6.5174,-6.6491,-6.7707,-6.9184,-7.1109,-7.2039,-7.2156,-7.1923,-7.3552,-7.457,-7.5143,-7.5966,-7.6518,-7.6746,-7.6635,-7.6635,-7.6635,-7.6635,-7.6635,-7.6635,-7.6635,-7.6635,-7.6635,-7.6635,-7.7243,-7.8518,-7.9288,-8.0272,-8.1386,-8.1637,-8.1668,-8.1292,-8.1386,-8.2101,-8.3312,-8.2477,-8.2052,-8.2075,-8.0846,-7.9502,-7.8252,-7.7989,-7.7924,-7.7924,-7.7924,-7.7924,-7.7891,-7.6928,-7.542,-7.3382,-7.2778,-7.2269,-7.1265,-7.2403,-7.3627,-7.4704,-7.586,-7.8339,-8.2063,-8.3978,-8.5085,-8.6282,-8.6551,-8.6641,-8.6641,-8.6641,-8.6935,-8.7519,-8.7809,-8.7953,-8.8667,-8.8556,-8.906,-8.931,-8.92,-8.9122,-8.9122,-8.9262,-8.948,-9.0214,-9.0725,-9.1563,-9.3078,-9.2952,-9.2825,-9.4351,-9.4562,-9.5411,-9.6806,-9.7213,-9.7213,-9.7213,-9.7213,-9.7213,-9.7213,-9.7213,-9.7213,-9.7213,-9.7213,-9.7213,-9.7213,-9.7213,-9.7213,-9.7213,-9.7292,-9.7292,-6.1371,-6.2392,-6.3739,-6.417,-6.3815,-6.277,-6.2333,-6.243,-6.2712,-6.3644,-6.4968,-6.5251,-6.8026,-7.1965,-7.1603,-7.2796,-7.489,-7.3843,-7.4356,-7.6352,-7.5855,-7.6226,-7.7411,-7.7164,-7.7025,-7.6995,-7.6775,-7.6635,-7.6635,-7.6635,-7.6635,-7.6635,-7.6635,-7.6885,-7.7519,-7.8623,-7.9491,-8.0074,-7.892,-7.8443,-7.8608,-7.9582,-8.0785,-8.2007,-8.2244,-8.2726,-8.3309,-8.1269,-7.9929,-7.9568,-7.8516,-7.7924,-7.7924,-7.7924,-7.7924,-7.7924,-7.7694,-7.6895,-7.5484,-7.3775,-7.2152,-7.1115,-7.3088,-7.4524,-7.4973,-7.6786,-7.9939,-8.3529,-8.4367,-8.4726,-8.5145,-8.5952,-8.6641,-8.6641,-8.6641,-8.6668,-8.6935,-8.6935,-8.7082,-8.7228,-8.7778,-8.8179,-8.8352,-8.8809,-8.895,-8.9091,-8.9122,-8.9091,-8.934,-8.994,-9.0424,-9.1065,-9.1065,-9.1857,-9.4813,-9.4868,-9.5292,-9.6919,-9.7213,-9.7213,-9.7213,-9.7213,-9.7213,-9.7213,-9.7213,-9.7213,-9.7213,-9.7213,-9.7213,-9.7213,-9.7213,-9.7213,-9.7213,-9.7213,-9.7213,-6.102,-6.1886,-6.3103,-6.3256,-6.2722,-6.2163,-6.1605,-6.1122,-6.2057,-6.3491,-6.5353,-6.6139,-6.8423,-7.1778,-7.1225,-7.2069,-7.3988,-7.3278,-7.4054,-7.5864,-7.6109,-7.6627,-7.7411,-7.7273,-7.7302,-7.747,-7.7164,-7.7054,-7.7054,-7.6914,-7.6885,-7.6885,-7.6635,-7.6746,-7.6885,-7.7764,-7.8249,-7.8548,-7.7823,-7.7313,-7.6919,-7.7712,-7.8629,-7.9557,-7.9443,-8.0178,-8.1798,-7.9364,-7.8022,-7.8121,-7.674,-7.6214,-7.6545,-7.6839,-7.7233,-7.7858,-7.7495,-7.6826,-7.621,-7.4029,-7.2152,-7.1085,-7.2819,-7.3956,-7.3956,-7.6349,-7.9042,-8.1674,-8.2602,-8.317,-8.3798,-8.4457,-8.4905,-8.4905,-8.5164,-8.5564,-8.5848,-8.61,-8.6765,-8.7565,-8.8107,-8.8492,-8.8797,-8.92,-8.934,-8.9091,-8.9122,-8.8809,-8.8525,-8.917,-8.9834,-8.9865,-8.9896,-9.1356,-9.3834,-9.427,-9.5098,-9.6839,-9.7213,-9.7213,-9.7213,-9.7213,-9.7213,-9.7213,-9.7213,-9.7213,-9.7213,-9.7213,-9.7213,-9.7213,-9.7213,-9.7213,-9.7213,-9.7213,-9.7213,-6.0376,-6.1732,-6.2697,-6.2519,-6.1655,-6.1655,-6.1122,-6.043,-6.155,-6.3676,-6.623,-6.7756,-6.9312,-7.0934,-7.1064,-7.1151,-7.1254,-7.2697,-7.372,-7.456,-7.6255,-7.7038,-7.7176,-7.7214,-7.744,-7.7745,-7.7745,-7.7745,-7.7775,-7.747,-7.7273,-7.7193,-7.709,-7.7066,-7.7037,-7.7288,-7.7654,-7.783,-7.8138,-7.7775,-7.6683,-7.7133,-7.7508,-7.7675,-7.7237,-7.7693,-7.917,-7.6873,-7.5595,-7.5787,-7.4471,-7.3983,-7.4742,-7.5231,-7.605,-7.7103,-7.6343,-7.583,-7.5752,-7.3967,-7.2433,-7.1445,-7.2253,-7.2909,-7.2968,-7.5122,-7.7097,-7.8413,-8.0089,-8.1285,-8.2093,-8.2772,-8.3192,-8.3453,-8.3923,-8.4645,-8.562,-8.6027,-8.7029,-8.8757,-8.9093,-8.9257,-9.0096,-9.0158,-9.0065,-8.9587,-8.9696,-8.9091,-8.8495,-8.8667,-8.895,-8.9262,-8.9416,-9.06,-9.2666,-9.3433,-9.4465,-9.6577,-9.7066,-9.7213,-9.7213,-9.7213,-9.7213,-9.7213,-9.7213,-9.7213,-9.7213,-9.7213,-9.7213,-9.7213,-9.7213,-9.7213,-9.7213,-9.7213,-9.7213,-5.8508,-6.0538,-6.0741,-6.0715,-6.0538,-6.0512,-6.0411,-6.0233,0.0,0.0,0.0,-6.6659,-6.8824,-7.0905,-7.1579,-7.2008,-7.2418,-7.3077,-7.3575,-7.4001,-7.5369,-7.6361,-7.682,-7.738,-7.7882,-7.8156,-7.7578,-7.744,-7.7775,-7.7745,-7.7637,-7.7726,-7.8697,-7.9198,-7.9198,-7.9198,-7.9728,-8.0873,-8.0932,-8.0843,-8.0637,-8.203,-8.1902,-8.0135,-8.052,-8.0242,-7.8985,-7.6708,-7.5562,-7.5754,-7.4471,-7.3781,-7.3852,-7.3791,-7.3828,-7.409,-7.3708,-7.3709,-7.4101,-7.3752,-7.3166,-7.244,-7.2711,-7.2909,-7.2909,-7.4315,-7.5751,-7.7067,-7.943,-8.0448,-7.958,-8.1927,-8.4122,-8.5243,-8.6002,-8.6816,-8.7998,-8.7933,-8.7779,-8.88,-8.9016,-8.9665,-9.1371,-9.1237,-9.1092,-9.1448,-9.0825,-9.0308,-8.9231,-8.9152,-8.9464,-8.9757,-8.9896,-9.058,-9.2277,-9.3082,-9.3899,-9.5746,-9.6658,-9.7213,-9.7213,-9.7213,-9.7213,-9.7213,-9.7213,-9.7213,-9.7213,-9.7213,-9.7213,-9.7213,-9.7213,-9.7213,-9.7213,-9.7213,-9.7213,-5.8536,0.0,-6.0233,-6.0233,0.0,-6.0233,-6.0233,-6.0233,-6.1026,-6.254,-6.4697,-6.6295,-6.7605,-6.8926,-7.0113,-7.0719,-7.1047,-7.2237,-7.2847,-7.2965,-7.4276,-7.5261,-7.5551,-7.5812,-7.6139,-7.6595,-7.6821,-7.7473,-7.8262,-7.8838,-7.9352,-8.0003,-8.0483,-8.0342,-7.9752,-8.0342,-8.1459,-8.2875,-8.205,-8.1256,-8.0891,-8.1952,-8.1805,-8.0455,-7.9567,0.0,0.0,0.0,0.0,0.0,0.0,0.0,0.0,0.0,0.0,-7.2307,-7.1175,-7.083,-7.1666,-7.1063,-7.0871,-7.1217,-7.052,-6.9854,-6.9281,-7.1055,-7.2891,-7.44,-7.6301,-7.7599,-7.771,-7.9297,-8.1039,-8.3109,-8.3591,-8.4784,-8.7038,-8.7167,-8.7475,-8.9007,-8.9236,-8.9474,-9.0718,-9.106,-9.1196,-9.1043,-9.0682,-9.0444,-9.0233,-9.0655,-9.0918,-9.0674,-9.0549,-9.1222,-9.2986,-9.3298,-9.3789,-9.583,-9.6806,-9.7179,-9.7213,-9.7213,-9.7213,-9.7213,-9.7213,-9.7213,-9.7213,-9.7213,-9.7213,-9.7213,-9.7213,-9.7213,-9.7213,-9.7213,-9.7213,-5.8858,-6.0233,-6.0233,-6.0233,-6.0233,-6.0233,-6.0233,-6.0379,-6.1833,-6.3186,-6.4589,-6.6129,-6.6867,-6.7219,-6.8559,-6.9217,-6.9584,-7.1209,-7.1861,-7.1737,-7.3301,-7.414,-7.4377,-7.4377,-7.4786,-7.5661,-7.6278,-7.7354,-7.8802,-7.9606,-8.0541,-8.1582,-8.1804,-8.1395,-8.0447,0.0,0.0,0.0,-8.2283,-8.1306,-8.0719,-8.0967,-8.0767,-8.0005,-7.7858,0.0,-7.8662,-7.5222,-7.387,-7.5293,-7.4274,0.0,0.0,0.0,0.0,0.0,0.0,0.0,0.0,0.0,0.0,0.0,-6.7695,-6.6463,-6.5948,-6.8151,-7.027,-7.1756,-7.331,-7.4651,-7.5774,-7.642,-7.7798,-7.9935,-8.0707,-8.2309,-8.5405,-8.6246,-8.7095,-8.9231,-8.9288,-8.9494,-9.037,-9.0778,-9.0976,-9.0638,-9.0544,-9.0819,-9.1457,-9.2012,-9.2368,-9.1781,-9.1309,-9.1753,-9.3239,-9.3168,-9.3756,-9.5914,-9.6691,-9.6919,-9.7066,-9.7213,-9.7213,-9.7213,-9.7213,-9.7213,-9.7213,-9.7213,-9.7213,-9.7213,-9.7213,-9.7213,-9.7213,-9.7213,-9.7213,-5.8238,-6.0233,-6.0233,-6.0233,-6.0233,-6.0233,-6.0233,-6.0379,-6.1833,-6.3186,-6.4589,-6.6331,-6.795,-6.8966,-6.8559,-6.8937,-6.9926,-7.0414,-7.0723,-7.1006,-7.2259,-7.3691,-7.4849,-7.4744,-7.5899,-7.807,-7.685,-7.7191,-7.8638,-7.8817,-7.8996,-7.9265,-8.1535,-8.261,-8.2431,-8.258,-8.2192,-8.1236,-8.2192,-8.258,-8.2401,-8.2572,-8.1592,-7.9763,-7.8295,-7.6907,-7.5819,-7.3998,-7.3244,-7.3918,-7.3814,-7.4104,-7.4916,-7.096,-6.6957,0.0,-6.2153,0.0,0.0,0.0,0.0,0.0,0.0,0.0,0.0,-6.8064,-6.9508,-7.0095,-7.2613,-7.3797,-7.2853,-7.5497,-7.758,-7.8165,-8.0762,-8.3225,-8.4951,-8.6726,-8.8124,-8.8911,-8.9548,-9.0663,-9.22,-9.1771,-9.1353,-9.1711,-9.2145,-9.2431,-9.2714,-9.1394,-9.1175,-9.284,-9.197,-9.0939,-9.1336,-9.2215,-9.3046,-9.4262,-9.516,-9.613,-9.6899,-9.7045,-9.7112,-9.7112,-9.7045,-9.7112,-9.7213,-9.7179,-9.7179,-9.7213,-9.7213,-9.7213,-9.728,-9.7347,-9.7213,-5.8064,-6.0233,-6.0233,-6.0233,-6.0353,-6.1026,-6.1431,-6.1548,-6.385,-6.4425,-6.4069,-6.6331,-6.7793,-6.8588,-6.9188,-6.9744,-7.0143,-6.9867,-6.9943,-7.0055,-7.063,-7.163,-7.3004,-7.3603,-7.481,-7.6458,-7.6607,-7.7324,-7.8608,-7.958,-8.0298,-8.1046,-8.2213,-8.1923,-8.0411,-8.1037,-8.1485,-8.1634,-8.1946,-8.2071,-8.1898,-8.1898,-8.1619,-8.1094,-7.9752,-7.8411,-7.712,-7.6235,-7.5552,-7.5074,-7.5695,-7.5166,-7.3206,-7.0215,-6.5892,0.0,0.0,0.0,0.0,0.0,0.0,0.0,0.0,0.0,0.0,0.0,-6.7372,-6.7251,-7.0744,-7.2758,-7.1853,-7.3418,-7.4826,-7.5759,-7.6667,-7.8495,-8.1819,-8.344,-8.4244,-8.385,-8.5727,-8.7708,-8.8905,-8.8943,-8.9508,-9.1374,-9.1133,-9.0679,-9.0018,-8.9721,-8.9494,-8.9829,-8.9294,-8.8885,-8.8854,-9.0108,-9.165,-9.2985,-9.3739,-9.4222,-9.4622,-9.4766,-9.4732,-9.4799,-9.5403,-9.5905,-9.5972,-9.6542,-9.7179,-9.7213,-9.7213,-9.7481,-9.8218,-9.842,-9.8721,-5.8238,-6.0182,-5.9793,-5.986,-6.0522,-6.1556,-6.2362,-6.3159,-6.5612,-6.5634,-6.4125,-6.6613,-6.715,-6.632,-6.772,-6.8779,-6.9467,-6.9248,-6.9225,-6.9461,-6.9777,-7.0485,-7.1355,-7.2287,-7.3615,-7.5203,-7.576,-7.6893,-7.8772,-7.9112,-8.0005,-8.1206,-8.0908,-7.935,-7.688,-7.8173,-7.948,-8.0787,-8.0973,-8.0809,-8.0494,-8.0494,-8.0809,-8.1374,-8.0196,-7.9495,-7.9064,-7.8677,-7.8301,-7.769,-7.7428,-7.5597,-7.1916,-6.8731,0.0,0.0,0.0,0.0,0.0,0.0,0.0,0.0,0.0,-6.0659,-5.9051,0.0,-6.4736,0.0,-6.8761,-7.1605,-7.1963,-7.1668,0.0,0.0,-7.1986,-7.2932,-7.6916,-7.8567,-7.9342,-7.9094,-8.176,-8.3947,-8.4856,-8.5798,-8.7214,-8.9357,-8.9011,-8.8067,-8.6839,-8.7689,-8.8098,-8.6902,-8.6336,-8.6084,-8.6242,-8.7734,-8.9759,-9.1968,-9.2396,-9.2505,-9.2647,-9.2754,-9.2754,-9.2821,-9.3693,-9.4296,-9.4397,-9.5637,-9.6442,-9.6207,-9.6442,-9.7012,-9.8051,-9.8587,-9.9124,-5.9006,-6.003,-5.8278,-5.8802,-6.0626,-6.1038,-6.2443,-6.4425,-6.6011,-6.5975,-6.5046,-6.794,-6.6494,-6.1981,-6.2283,0.0,-6.7058,-6.8071,-6.8814,-6.9644,-7.0572,-7.1211,-7.1452,-7.14,-7.3201,-7.6618,-7.4411,-7.5178,-7.8518,-7.6294,-7.5688,-7.6776,-7.5368,-7.3674,-7.2237,-7.3774,-7.5338,-7.6776,-7.8265,-7.8966,-7.8966,-7.8937,-7.8937,-7.8966,-7.8652,-7.9007,-8.0224,-7.9968,-8.0379,-8.1493,-7.7858,-7.4486,-7.1753,0.0,0.0,0.0,0.0,0.0,0.0,0.0,0.0,0.0,0.0,0.0,0.0,0.0,0.0,-6.2991,-6.7228,0.0,-7.2962,-7.108,0.0,0.0,0.0,-6.8352,-7.0101,-7.2326,-7.4829,-7.748,0.0,0.0,-8.2476,-8.3947,-8.4982,-8.5454,-8.6493,-8.6713,-8.536,-8.621,-8.6745,-8.5266,-8.4007,-8.322,-8.344,-8.5142,-8.7414,-9.0216,-9.1233,-9.1481,-9.2237,-9.252,-9.2687,-9.2553,-9.2821,-9.2922,-9.2922,-9.4028,-9.4699,-9.3391,-9.4196,-9.5134,-9.547,-9.6542,-9.7582,-5.6098,-5.5845,-5.5521,-5.5898,-5.7076,-5.9173,-6.1209,-6.327,-6.5543,-6.5737,-6.45,-6.5674,-6.3838,-6.0054,-5.997,0.0,0.0,0.0,-6.4827,-6.6861,-6.8264,-6.9748,-7.1327,-7.204,-7.3516,-7.5621,-7.4749,-7.5424,-7.7823,-7.6745,-7.3383,-6.8034,0.0,0.0,-6.7292,-7.0533,-7.3131,-7.5071,-7.81,-7.9338,-7.8563,-7.8262,-7.8292,-7.8398,-7.8427,-7.8144,-7.787,-7.9402,-7.8782,-7.5737,-7.465,-7.1313,0.0,0.0,0.0,0.0,0.0,0.0,0.0,0.0,0.0,0.0,0.0,-5.7304,-5.5944,0.0,0.0,0.0,-6.1887,-6.4216,-6.7063,-6.7232,0.0,0.0,0.0,0.0,0.0,0.0,0.0,-6.9359,-7.3209,-7.7494,-8.2018,-8.1588,-8.0876,-8.1205,-8.1677,-8.1835,-8.1268,0.0,-8.215,-8.2433,-8.1268,-8.067,-8.152,-8.2393,-8.3438,-8.4987,-8.6706,-8.8217,-8.8732,-8.9503,-9.0039,-9.0173,-9.081,-9.1447,-9.1447,-9.1883,-9.2084,-9.1581,-9.262,-9.3861,-9.4766,-9.614,-9.7481,-5.2405,0.0,0.0,0.0,0.0,-5.6703,-5.9122,-6.132,-6.381,-6.3945,-6.2299,-6.2667,0.0,0.0,0.0,0.0,0.0,0.0,-6.2066,-6.3982,-6.6639,-6.8559,-7.0094,-7.0777,-7.1861,-7.3443,-7.2534,-7.2883,-7.3996,-7.2708,-6.82,-6.0629,0.0,0.0,0.0,0.0,-7.0405,-7.319,-7.7262,-7.9075,-7.8398,-7.8156,-7.8156,-7.8292,-7.8321,-7.8086,-7.7438,-7.8755,-7.7564,-7.3246,-7.1795,0.0,0.0,0.0,0.0,0.0,0.0,0.0,0.0,0.0,0.0,0.0,0.0,0.0,0.0,0.0,0.0,0.0,0.0,0.0,-6.2389,-6.3826,-6.3451,0.0,0.0,0.0,0.0,0.0,0.0,0.0,0.0,0.0,-7.9432,-7.8603,-7.7573,0.0,0.0,-7.9474,-7.831,-7.8813,-7.9222,-7.9065,-7.8215,0.0,-7.8876,-7.9395,-7.9924,-8.1129,-8.3538,-8.5515,-8.5983,-8.662,-8.7056,-8.7022,-8.8296,-8.8866,-8.7793,-8.7424,-8.7525,-8.8061,-8.9235,-9.0643,-9.2084,-9.345,-9.4756,0.0,0.0,0.0,0.0,0.0,0.0,0.0,0.0,-6.0311,-5.9808,0.0,-5.9565,0.0,0.0,0.0,0.0,0.0,-5.957,0.0,0.0,-6.6237,-6.8308,-6.716,-6.6621,-6.7505,-6.9525,-6.6606,-6.5754,-6.6218,-6.2044,0.0,0.0,0.0,0.0,0.0,0.0,-6.6074,-7.0989,-7.523,-7.7745,-7.8638,-7.8638,-7.8533,-7.8427,-7.8321,-7.8816,-7.9922,-7.8139,-7.7229,-7.7272,-6.9965,0.0,0.0,0.0,0.0,0.0,0.0,0.0,0.0,0.0,0.0,0.0,0.0,0.0,0.0,0.0,0.0,0.0,0.0,0.0,0.0,-6.1439,0.0,0.0,0.0,0.0,0.0,0.0,0.0,0.0,0.0,0.0,-7.352,-7.4823,-7.5674,-7.6187,0.0,0.0,0.0,0.0,-7.9348,-7.5571,-7.4847,-7.4847,-7.4942,-7.5931,-7.7683,-8.0877,0.0,0.0,-8.5748,-8.491,-8.4039,-8.417,-8.5212,-8.4942,-8.0653,-8.005,-8.0452,-8.1726,-8.3167,-8.4707,-8.605,-8.712,-8.812,0.0,0.0,0.0,0.0,0.0,0.0,0.0,0.0,0.0,-5.6612,-5.5508,-5.5322,0.0,0.0,0.0,0.0,0.0,0.0,0.0,0.0,-6.0876,-6.28,-6.4114,-6.2764,-6.2579,0.0,-6.122,-5.75,0.0,0.0,0.0,0.0,0.0,0.0,0.0,0.0,-6.4785,-6.8433,-7.4978,-7.8542,-7.8698,-7.8772,-7.8638,-7.8668,-7.8533,-7.7413,-7.5168,-7.3231,-7.0441,0.0,0.0,0.0,0.0,0.0,0.0,0.0,0.0,0.0,0.0,0.0,0.0,0.0,0.0,0.0,0.0,0.0,0.0,0.0,0.0,0.0,0.0,0.0,-5.9772,0.0,0.0,0.0,0.0,0.0,0.0,0.0,0.0,0.0,-6.6959,-7.1435,-7.4296,-7.3449,-7.5562,-7.7106,-7.6799,0.0,0.0,0.0,0.0,0.0,0.0,0.0,-7.7547,-7.7155,-7.8088,-7.9153,-8.0091,-8.0687,-8.1082,-8.1022,0.0,0.0,-7.5994,-7.5927,-7.6698,-7.7234,-7.7737,-7.8273,-7.8718,-7.9675,-8.0751,0.0,0.0,0.0,0.0,0.0,0.0,0.0,0.0,0.0,-5.2227,-5.1163,0.0,0.0,0.0,0.0,0.0,0.0,0.0,0.0,0.0,0.0,0.0,-5.9796,-5.8007,0.0,0.0,0.0,0.0,0.0,0.0,0.0,0.0,0.0,0.0,0.0,0.0,-6.2793,-6.6371,-7.3422,-7.7532,-7.8126,-7.8232,-7.8368,-7.8668,-7.8668,-7.6654,-7.2438,0.0,0.0,0.0,0.0,0.0,0.0,0.0,0.0,0.0,0.0,0.0,0.0,0.0,0.0,0.0,0.0,0.0,0.0,0.0,0.0,0.0,0.0,0.0,0.0,0.0,-5.742,0.0,0.0,0.0,0.0,0.0,0.0,0.0,0.0,0.0,0.0,0.0,-7.041,-7.0254,-7.287,-7.5061,-7.598,-7.7208,-7.8373,0.0,0.0,0.0,0.0,0.0,0.0,0.0,0.0,0.0,0.0,0.0,0.0,0.0,0.0,-7.4169,-7.1249,-7.1484,-7.2372,-7.2876,0.0,0.0,0.0,0.0,0.0,0.0,0.0,0.0,0.0,0.0,0.0,0.0,0.0,0.0,0.0,-4.514,0.0,0.0,-4.3584,0.0,0.0,0.0,0.0,0.0,0.0,0.0,0.0,0.0,0.0,0.0,0.0,0.0,0.0,0.0,0.0,0.0,0.0,0.0,0.0,0.0,0.0,-5.9967,-6.4749,-7.0679,-7.484,-7.7134,-7.7164,-7.7549,-7.8262,-7.8338,-7.6301,-7.229,0.0,0.0,0.0,0.0,0.0,0.0,0.0,0.0,0.0,0.0,0.0,0.0,0.0,0.0,0.0,0.0,0.0,0.0,0.0,0.0,0.0,0.0,0.0,0.0,0.0,0.0,-5.5608,-5.6882,-5.7263,0.0,0.0,0.0,0.0,0.0,0.0,0.0,0.0,0.0,0.0,-7.2151,-7.5448,-7.4737,-7.5886,-7.6925,-7.6925,-7.6893,-7.7302,-7.8645,-7.8534,-7.858,0.0,0.0,0.0,0.0,0.0,0.0,0.0,0.0,0.0,0.0,0.0,0.0,0.0,0.0,0.0,0.0,0.0,0.0,0.0,0.0,0.0,0.0,0.0,0.0,0.0,0.0,0.0,0.0,0.0,0.0,0.0,0.0,0.0,0.0,0.0,0.0,0.0,0.0,0.0,0.0,0.0,0.0,0.0,0.0,0.0,0.0,0.0,0.0,0.0,0.0,0.0,0.0,0.0,0.0,-5.9497,-6.3302,-7.0202,-7.4667,-7.6658,-7.6827,-7.7134,-7.7823,-7.6317,-7.3627,0.0,0.0,0.0,0.0,0.0,0.0,0.0,0.0,0.0,0.0,0.0,0.0,0.0,0.0,0.0,0.0,0.0,0.0,0.0,0.0,0.0,0.0,0.0,0.0,0.0,0.0,0.0,0.0,-5.898,-5.8678,-5.6645,0.0,0.0,0.0,0.0,0.0,0.0,0.0,0.0,0.0,0.0,-7.2355,-7.4328,-7.6641,-7.8121,-7.8121,-7.8939,-7.9613,-7.9665,-7.9918,-7.9382,-7.7268,0.0,0.0,0.0,0.0,0.0,0.0,0.0,0.0,0.0,0.0,0.0,0.0,0.0,0.0,0.0,0.0,0.0,0.0,0.0,0.0,0.0,0.0,0.0,0.0,0.0,0.0,0.0,0.0,0.0,0.0,0.0,0.0,0.0,0.0,0.0,0.0,0.0,0.0,0.0,0.0,0.0,0.0,0.0,0.0,0.0,0.0,0.0,0.0,0.0,0.0,0.0,0.0,0.0,-5.884,-6.2014,-6.9191,-7.3617,-7.487,-7.5671,-7.6266,-7.6827,-7.5119,-7.1993,0.0,0.0,0.0,0.0,0.0,0.0,0.0,0.0,0.0,0.0,0.0,0.0,0.0,0.0,0.0,0.0,0.0,0.0,0.0,0.0,0.0,0.0,0.0,0.0,0.0,0.0,0.0,0.0,-5.7316,-5.8313,-5.6959,0.0,0.0,0.0,0.0,0.0,0.0,0.0,0.0,0.0,0.0,-6.9981,-7.2631,-7.5052,0.0,0.0,-7.8406,-7.9188,-7.9533,-8.0679,-8.0341,-7.6698,-7.5425,0.0,0.0,0.0,0.0,0.0,0.0,0.0,0.0,0.0,0.0,0.0,0.0,0.0,0.0,0.0,0.0,0.0,0.0,0.0,0.0,0.0,0.0,0.0,0.0,0.0,0.0,0.0,0.0,0.0,0.0,0.0,0.0,0.0,0.0,0.0,0.0,0.0,0.0,0.0,0.0,0.0,0.0,0.0,0.0,0.0,0.0,0.0,0.0,0.0,0.0,0.0,0.0,-5.822,-6.0738,-6.8077,-7.2128,-7.2318,-7.3939,-7.4984,-7.5243,-7.4351,-7.1042,0.0,0.0,0.0,0.0,0.0,0.0,0.0,0.0,0.0,0.0,0.0,0.0,0.0,0.0,0.0,0.0,0.0,0.0,0.0,0.0,0.0,0.0,0.0,0.0,0.0,0.0,0.0,0.0,0.0,0.0,0.0,0.0,0.0,0.0,0.0,0.0,0.0,0.0,0.0,0.0,0.0,-6.824,-7.0095,-7.1825,-7.3396,0.0,-7.5759,-7.6861,-7.8427,-8.0772,-8.0957,-7.701,0.0,0.0,0.0,0.0,0.0,0.0,0.0,0.0,0.0,0.0,0.0,0.0,0.0,0.0,0.0,0.0,0.0,0.0,0.0,0.0,0.0,0.0,0.0,0.0,0.0,0.0,0.0,0.0,0.0,0.0,0.0,0.0,0.0,0.0,0.0,0.0,0.0,0.0,0.0,0.0,0.0,0.0,0.0,0.0,0.0,0.0,0.0,0.0,0.0,0.0,0.0,0.0,0.0,0.0,-6.0396,-6.7933,-7.2183,-7.2904,-7.4113,-7.5128,-7.5756,-7.2871,0.0,0.0,0.0,0.0,0.0,0.0,0.0,0.0,0.0,0.0,0.0,0.0,0.0,0.0,0.0,0.0,0.0,0.0,0.0,0.0,0.0,0.0,0.0,0.0,0.0,0.0,0.0,-4.5788,0.0,0.0,0.0,0.0,0.0,0.0,0.0,0.0,0.0,0.0,0.0,0.0,0.0,0.0,-6.6796,-6.8393,-7.0799,-7.2668,0.0,0.0,-7.6956,-7.8351,-7.9139,-7.9091,0.0,0.0,0.0,0.0,0.0,0.0,0.0,0.0,0.0,0.0,0.0,0.0,0.0,0.0,0.0,0.0,0.0,0.0,0.0,0.0,0.0,0.0,0.0,0.0,0.0,0.0,0.0,0.0,0.0,0.0,0.0,0.0,0.0,0.0,0.0,0.0,0.0,0.0,0.0,0.0,0.0,0.0,0.0,0.0,0.0,0.0,0.0,0.0,0.0,0.0,0.0,0.0,0.0,0.0,-5.6548,-6.0134,-6.6784,-7.0571,-7.1522,-7.2932,-7.3792,-7.4118,-7.0857,-6.7705,0.0,0.0,0.0,0.0,0.0,0.0,0.0,0.0,0.0,0.0,0.0,0.0,0.0,0.0,0.0,0.0,0.0,0.0,0.0,0.0,0.0,0.0,0.0,0.0,0.0,0.0,0.0,0.0,0.0,0.0,0.0,0.0,0.0,0.0,0.0,0.0,0.0,0.0,0.0,0.0,0.0,0.0,-6.803,-6.9349,0.0,0.0,0.0,-7.5416,-7.739,0.0,0.0,0.0,0.0,0.0,0.0,0.0,0.0,0.0,0.0,0.0,0.0,0.0,0.0,0.0,0.0,0.0,0.0,0.0,0.0,0.0,0.0,0.0,0.0,0.0,0.0,0.0,0.0,0.0,0.0,0.0,0.0,0.0,0.0,0.0,0.0,0.0,0.0,0.0,0.0,0.0,0.0,0.0,0.0,0.0,0.0,0.0,0.0,0.0,0.0,0.0,0.0,0.0,0.0,0.0,0.0,0.0,-5.9578,-6.498,-6.8296,-6.975,-7.1245,-7.195,-7.2113,-6.9576,-6.6957,0.0,0.0,0.0,0.0,0.0,0.0,0.0,0.0,0.0,0.0,0.0,0.0,0.0,0.0,0.0,0.0,0.0,0.0,0.0,0.0,0.0,0.0,0.0,0.0,0.0,0.0,0.0,0.0,0.0,0.0,0.0,0.0,0.0,0.0,0.0,0.0,0.0,0.0,0.0,0.0,0.0,-6.5545,-6.8138,-6.7755,-6.7674,0.0,0.0,-7.3447,-7.6188,-7.7255,0.0,0.0,0.0,0.0,0.0,0.0,0.0,0.0,0.0,0.0,0.0,0.0,0.0,0.0,0.0,0.0,0.0,0.0,0.0,0.0,0.0,0.0,0.0,0.0,0.0,0.0,0.0,0.0,0.0,0.0,0.0,0.0,0.0,0.0,0.0,0.0,0.0,0.0,0.0,0.0,0.0,0.0,0.0,0.0,0.0,0.0,0.0,0.0,0.0,0.0,0.0,0.0,0.0,0.0,0.0,0.0,-5.8583,-6.4014,-6.8296,-7.1289,-7.1922,-7.2942,-7.4582,-7.2953,-6.9885,0.0,0.0,0.0,0.0,0.0,0.0,0.0,0.0,0.0,0.0,0.0,0.0,0.0,0.0,0.0,0.0,0.0,0.0,0.0,0.0,0.0,0.0,0.0,0.0,0.0,0.0,0.0,0.0,0.0,0.0,0.0,0.0,0.0,0.0,0.0,0.0,0.0,0.0,0.0,0.0,0.0,-6.5921,-6.7765,-6.7765,0.0,0.0,0.0,0.0,-7.7205,-7.6794,0.0,0.0,0.0,0.0,0.0,0.0,0.0,0.0,0.0,0.0,0.0,0.0,0.0,0.0,0.0,0.0,0.0,0.0,0.0,0.0,0.0,0.0,0.0,0.0,0.0,0.0,0.0,0.0,0.0,0.0,0.0,0.0,0.0,0.0,0.0,0.0,0.0,0.0,0.0,0.0,0.0,0.0,0.0,0.0,0.0,0.0,0.0,0.0,0.0,0.0,0.0,0.0,0.0,0.0,0.0,0.0,-5.8175,-6.1949,-6.6167,-7.0497,-7.0423,-7.1441,-7.3505,-7.1832,-6.9373,0.0,0.0,0.0,0.0,0.0,0.0,0.0,0.0,0.0,0.0,0.0,0.0,0.0,0.0,0.0,0.0,0.0,0.0,0.0,0.0,0.0,0.0,0.0,0.0,0.0,0.0,0.0,0.0,0.0,0.0,0.0,0.0,0.0,0.0,0.0,0.0,0.0,0.0,0.0,0.0,-6.4234,-6.5988,-6.7371,0.0,0.0,0.0,0.0,0.0,0.0,-7.5616,-7.4716,0.0,0.0,0.0,0.0,0.0,0.0,0.0,0.0,0.0,0.0,0.0,0.0,0.0,0.0,0.0,0.0,0.0,0.0,0.0,0.0,0.0,0.0,0.0,0.0,0.0,0.0,0.0,0.0,0.0,0.0,0.0,0.0,0.0,0.0,0.0,0.0,0.0,0.0,0.0,0.0,0.0,0.0,0.0,0.0,0.0,0.0,0.0,0.0,0.0,0.0,0.0,0.0,0.0,0.0,0.0,-5.7467,-5.9847,-6.3544,-6.8985,-6.8785,-6.983,-7.2113,-7.0122,-6.8186,-6.6499,0.0,0.0,0.0,0.0,0.0,0.0,0.0,0.0,0.0,0.0,0.0,0.0,0.0,0.0,0.0,0.0,0.0,0.0,0.0,0.0,0.0,0.0,0.0,0.0,0.0,0.0,0.0,0.0,0.0,0.0,0.0,0.0,0.0,0.0,0.0,0.0,0.0,0.0,0.0,-6.4851,-6.6331,0.0,0.0,0.0,0.0,0.0,0.0,0.0,0.0,-7.3836,0.0,0.0,0.0,0.0,0.0,0.0,0.0,0.0,0.0,0.0,0.0,0.0,0.0,0.0,0.0,0.0,0.0,0.0,0.0,0.0,0.0,0.0,0.0,0.0,0.0,0.0,0.0,0.0,0.0,0.0,0.0,0.0,0.0,0.0,0.0,0.0,0.0,0.0,0.0,0.0,0.0,0.0,0.0,0.0,0.0,0.0,0.0,0.0,0.0,0.0,0.0,0.0,0.0,0.0,0.0,0.0,-5.87,-6.348,-6.7865,-6.9539,-7.1729,-7.4726,-7.2309,-6.9242,-6.6032,0.0,0.0,0.0,0.0,0.0,0.0,0.0,0.0,0.0,0.0,0.0,0.0,0.0,0.0,0.0,0.0,0.0,0.0,0.0,0.0,0.0,0.0,0.0,0.0,0.0,0.0,0.0,0.0,0.0,0.0,0.0,0.0,0.0,0.0,0.0,0.0,0.0,0.0,-6.2784,-6.5613,0.0,0.0,0.0,0.0,0.0,0.0,0.0,0.0,-7.2114,0.0,0.0,0.0,0.0,0.0,0.0,0.0,0.0,0.0,0.0,0.0,0.0,0.0,0.0,0.0,0.0,0.0,0.0,0.0,0.0,0.0,0.0,0.0,0.0,0.0,0.0,0.0,0.0,0.0,0.0,0.0,0.0,0.0,0.0,0.0,0.0,0.0,0.0,0.0,0.0,0.0,0.0,0.0,0.0,0.0,0.0,0.0,0.0,0.0,0.0,0.0,0.0,0.0,0.0,0.0,0.0,0.0,0.0,-6.1626,-6.7153,-6.8227,-7.0322,-7.3358,-7.0755,-6.853,0.0,0.0,0.0,0.0,0.0,0.0,0.0,0.0,0.0,0.0,0.0,0.0,0.0,0.0,0.0,0.0,0.0,0.0,0.0,0.0,0.0,0.0,0.0,0.0,0.0,0.0,0.0,0.0,0.0,0.0,0.0,0.0,0.0,0.0,0.0,0.0,0.0,0.0,0.0,0.0,0.0,0.0,0.0,0.0,0.0,0.0,0.0,0.0,0.0,0.0,0.0,0.0,0.0,0.0,0.0,0.0,0.0,0.0,0.0,0.0,0.0,0.0,0.0,0.0,0.0,0.0,0.0,0.0,0.0,0.0,0.0,0.0,0.0,0.0,0.0,0.0,0.0,0.0,0.0,0.0,0.0,0.0,0.0,0.0,0.0,0.0,0.0,0.0,0.0,0.0,0.0,0.0,0.0,0.0,0.0,0.0,0.0,0.0,0.0,0.0,0.0,0.0,0.0,0.0,0.0,0.0,0.0,0.0,-6.0646,-6.605,-6.7626,-6.9648,-7.2606,-6.9096,-6.6921,0.0,0.0,0.0,0.0,0.0,0.0,0.0,0.0,0.0,0.0,0.0,0.0,0.0,0.0,0.0,0.0,0.0,0.0,0.0,0.0,0.0,0.0,0.0,0.0,0.0,0.0,0.0,0.0,0.0,0.0,0.0,0.0,0.0,0.0,0.0,0.0,0.0,0.0,0.0,0.0,0.0,0.0,0.0,0.0,0.0,0.0,0.0,0.0,-6.8908,0.0,0.0,0.0,0.0,0.0,0.0,0.0,0.0,0.0,0.0,0.0,0.0,0.0,0.0,0.0,0.0,0.0,0.0,0.0,0.0,0.0,0.0,0.0,0.0,0.0,0.0,0.0,0.0,0.0,0.0,0.0,0.0,0.0,0.0,0.0,0.0,0.0,0.0,0.0,0.0,0.0,0.0,0.0,0.0,0.0,0.0,0.0,0.0,0.0,0.0,0.0,0.0,0.0,0.0,0.0,0.0,0.0,0.0,0.0,-6.2112,-6.3575,-6.9653,-7.3617,-7.4785,-6.9237,-6.4679,0.0,0.0,0.0,0.0,0.0,0.0,0.0,0.0,0.0,0.0,0.0,0.0,0.0,0.0,0.0,0.0,0.0,0.0,0.0,0.0,0.0,0.0,0.0,0.0,0.0,0.0,0.0,0.0,0.0,0.0,0.0,0.0,0.0,0.0,0.0,0.0,0.0,0.0,0.0,0.0,0.0,0.0,0.0,0.0,0.0,0.0,0.0,0.0,0.0,0.0,0.0,0.0,0.0,0.0,0.0,0.0,0.0,0.0,0.0,0.0,0.0,0.0,0.0,0.0,0.0,0.0,0.0,0.0,0.0,0.0,0.0,0.0,0.0,0.0,0.0,0.0,0.0,0.0,0.0,0.0,0.0,0.0,0.0,0.0,0.0,0.0,0.0,0.0,0.0,0.0,0.0,0.0,0.0,0.0,0.0,0.0,0.0,0.0,0.0,0.0,0.0,0.0,0.0,0.0,0.0,0.0,0.0,0.0,-5.9887,-6.3099,-6.7857,-7.0285,-7.0396,-6.58,-6.2587,0.0,0.0,0.0,0.0,0.0,0.0,0.0,0.0,0.0,0.0,0.0,0.0,0.0,0.0,0.0,0.0,0.0,0.0,0.0,0.0,0.0,0.0,0.0,0.0,0.0,0.0,0.0,0.0,0.0,0.0,0.0,0.0,0.0,0.0,0.0,0.0,0.0,0.0,0.0,0.0,0.0,0.0,0.0,0.0,0.0,0.0,0.0,0.0,0.0,0.0,0.0,0.0,0.0,0.0,0.0,0.0,0.0,0.0,0.0,0.0,0.0,0.0,0.0,0.0,0.0,0.0,0.0,0.0,0.0,0.0,0.0,0.0,0.0,0.0,0.0,0.0,0.0,0.0,0.0,0.0,0.0,0.0,0.0,0.0,0.0,0.0,0.0,0.0,0.0,0.0,0.0,0.0,0.0,0.0,0.0,0.0,0.0,0.0,0.0,0.0,0.0,0.0,0.0,0.0,0.0,0.0,0.0,0.0,0.0,-6.1947,-6.4966,-6.6032,-6.5014,-6.2457,-6.053,0.0,0.0,0.0,0.0,0.0,0.0,0.0,0.0,0.0,0.0,0.0,0.0,0.0,0.0,0.0,0.0,0.0,0.0,0.0,0.0,0.0,0.0,0.0,0.0,0.0,0.0,0.0,0.0,0.0,0.0,0.0,0.0,0.0,0.0,0.0,0.0,0.0,0.0,0.0,0.0,0.0,0.0,0.0,0.0,0.0,0.0,0.0,0.0,0.0,0.0,0.0,0.0,0.0,0.0,0.0,0.0,0.0,0.0,0.0,0.0,0.0,0.0,0.0,0.0,0.0,0.0,0.0,0.0,0.0,0.0,0.0,0.0,0.0,0.0,0.0,0.0,0.0,0.0,0.0,0.0,0.0,0.0,0.0,0.0,0.0,0.0,0.0,0.0,0.0,0.0,0.0,0.0,0.0,0.0,0.0,0.0,0.0,0.0,0.0,0.0,0.0,0.0,0.0,0.0,0.0,0.0,0.0,0.0,0.0,-5.9321,-6.1549,-6.2082,-6.0601,-6.0242,-5.8327,0.0,0.0,0.0,0.0,0.0,0.0,0.0,0.0,0.0,0.0,0.0,0.0,0.0,0.0,0.0,0.0,0.0,0.0,0.0,0.0,0.0,0.0,0.0,0.0,0.0,0.0,0.0,0.0,0.0,0.0,0.0,0.0,0.0,0.0,0.0,0.0,0.0,0.0,0.0,0.0,0.0,0.0,0.0,0.0,0.0,0.0,0.0,0.0,0.0,0.0,0.0,0.0,0.0,0.0,0.0,0.0,0.0,0.0,0.0,0.0,0.0,0.0,0.0,0.0,0.0,0.0,0.0,0.0,0.0,0.0,0.0,0.0,0.0,0.0,0.0,0.0,0.0,0.0,0.0,0.0,0.0,0.0,0.0,0.0,0.0,0.0,0.0,0.0,0.0,0.0,0.0,0.0,0.0,0.0,0.0,0.0,0.0,0.0,0.0,0.0,0.0,0.0,0.0,0.0,0.0,0.0,0.0,0.0,0.0,-5.761,-5.937,-5.9944,-5.9187,-5.8204,-5.6529,-5.4237,0.0,0.0,0.0,0.0,0.0,0.0,0.0,0.0,0.0,0.0,0.0,0.0,0.0,0.0,0.0,0.0,0.0,0.0,0.0,0.0,0.0,0.0,0.0,0.0,0.0,0.0,0.0,0.0,0.0,0.0,0.0,0.0,0.0,0.0,0.0,0.0,0.0,0.0,0.0,0.0,0.0,0.0,0.0,0.0,0.0,0.0,0.0,0.0,0.0,0.0,0.0,0.0,0.0,0.0,0.0,0.0,0.0,0.0,0.0,0.0,0.0,0.0,0.0,0.0,0.0,0.0,0.0,0.0,0.0,0.0,0.0,0.0,0.0,0.0,0.0,0.0,0.0,0.0,0.0,0.0,0.0,0.0,0.0,0.0,0.0,0.0,0.0,0.0,0.0,0.0,0.0,0.0,0.0,0.0,0.0,0.0,0.0,0.0,0.0,0.0,0.0,0.0,0.0,0.0,0.0,0.0,0.0,0.0,-5.7655,-5.8917,-5.95,-5.918,-5.7535,-5.6141,0.0,0.0,0.0,0.0,0.0,0.0,0.0,0.0,0.0,0.0,0.0,0.0,0.0,0.0,0.0,0.0,0.0,0.0,0.0,0.0,0.0,0.0,0.0,0.0,0.0,0.0,0.0,0.0,0.0,0.0,0.0,0.0,0.0,0.0,0.0,0.0,0.0,0.0,0.0,0.0,0.0,0.0,0.0,0.0,0.0,0.0,0.0,0.0,0.0,0.0,0.0,0.0,0.0,0.0,0.0,0.0,0.0,0.0,0.0,0.0,0.0,0.0,0.0,0.0,0.0,0.0,0.0,0.0,0.0,0.0,0.0,0.0,0.0,0.0,0.0,0.0,0.0,0.0,0.0,0.0,0.0,0.0,0.0,0.0,0.0,0.0,0.0,0.0,0.0,0.0,0.0,0.0,0.0,0.0,0.0,0.0,0.0,0.0,0.0,0.0,0.0,0.0,0.0,0.0,0.0,0.0,0.0,0.0,-5.9046,-5.9961,-6.0529,-6.08,-6.0474,-5.8589,-5.7462,0.0,0.0,0.0,0.0,0.0,0.0,0.0,0.0,0.0,0.0,0.0,0.0,0.0,0.0,0.0,0.0,0.0,0.0,0.0,0.0,0.0,0.0,0.0,0.0,0.0,0.0,0.0,0.0,0.0,0.0,0.0,0.0,0.0,0.0,0.0,0.0,0.0,0.0,0.0,0.0,0.0,0.0,0.0,0.0,0.0,0.0,0.0,0.0,0.0,0.0,0.0,0.0,0.0,0.0,0.0,0.0,0.0,0.0,0.0,0.0,0.0,0.0,0.0,0.0,0.0,0.0,0.0,0.0,0.0,0.0,0.0,0.0,0.0,0.0,0.0,0.0,0.0,0.0,0.0,0.0,0.0,0.0,0.0,0.0,0.0,0.0,0.0,0.0,0.0,0.0,0.0,0.0,0.0,0.0,0.0,0.0,0.0,0.0,0.0,0.0,0.0,0.0,0.0,0.0,0.0,0.0,0.0,0.0,0.0,-6.0495,0.0,-6.3386,0.0,-6.0971,-5.9437,0.0,0.0,0.0,0.0,0.0,0.0,0.0,0.0,0.0,0.0,0.0,0.0,0.0,0.0,0.0,0.0,0.0,0.0,0.0,0.0,0.0,0.0,0.0,0.0,0.0,0.0,0.0,0.0,0.0,0.0,0.0,0.0,0.0,0.0,0.0,0.0,0.0,0.0,0.0,0.0,0.0,0.0,0.0,0.0,0.0,0.0,0.0,0.0,0.0,0.0,0.0,0.0,0.0,0.0,0.0,0.0,0.0,0.0,0.0,0.0,0.0,0.0,0.0,0.0,0.0,0.0,0.0,0.0,0.0,0.0,0.0,0.0,0.0,0.0,0.0,0.0,0.0,0.0,0.0,0.0,0.0,0.0,0.0,0.0,0.0,0.0,0.0,0.0,0.0,0.0,0.0,0.0,0.0,0.0,0.0,0.0,0.0,0.0,0.0,0.0,0.0,0.0,0.0,0.0,0.0,0.0,0.0,0.0,0.0,-5.9884,-6.3133,-6.4953,-6.5143,-6.2588,-6.0962,0.0,0.0,0.0,0.0,0.0,0.0,0.0,0.0,0.0,0.0,0.0,0.0,0.0,0.0,0.0,0.0,0.0,0.0,0.0,0.0,0.0,0.0,0.0,0.0,0.0,0.0,0.0,0.0,0.0,0.0,0.0,0.0,0.0,0.0,0.0,0.0,0.0,0.0,0.0,0.0,0.0,0.0,0.0,0.0,0.0,0.0,0.0,0.0,0.0,0.0,0.0,0.0,0.0,0.0,0.0,0.0,0.0,0.0,0.0,0.0,0.0,0.0,0.0,0.0,0.0,0.0,0.0,0.0,0.0,0.0,0.0,0.0,0.0,0.0,0.0,0.0,0.0,0.0,0.0,0.0,0.0,0.0,0.0,0.0,0.0,0.0,0.0,0.0,0.0,0.0,0.0,0.0,0.0,0.0,0.0,0.0,0.0,0.0,0.0,0.0,0.0,0.0,0.0,0.0,0.0,0.0,0.0,0.0,0.0,-5.8158,-6.2327,-6.5132,-6.6128,-6.3364,-6.1775,0.0,0.0,0.0,0.0,0.0,0.0,0.0,0.0,0.0,0.0,0.0,0.0,0.0,0.0,0.0,0.0,0.0,0.0,0.0,0.0,0.0,0.0,0.0,0.0,0.0,0.0,0.0,0.0,0.0,0.0,0.0,0.0,0.0,0.0,0.0,0.0,0.0,0.0,0.0,0.0,0.0,0.0,0.0,0.0,0.0,0.0,0.0,0.0,0.0,0.0,0.0,0.0,0.0,0.0,0.0,0.0,0.0,0.0,0.0,0.0,0.0,0.0,0.0,0.0,0.0,0.0,0.0,0.0,0.0,0.0,0.0,0.0,0.0,0.0,0.0,0.0,0.0,0.0,0.0,0.0,0.0,0.0,0.0,0.0,0.0,0.0,0.0,0.0,0.0,0.0,0.0,0.0,0.0,0.0,0.0,0.0,0.0,0.0,0.0,0.0,0.0,0.0,0.0,0.0,0.0,0.0,0.0,0.0,0.0,0.0,-5.8461,-6.1435,-6.3659,-6.1563,-6.0224,-6.013,0.0,0.0,0.0,0.0,0.0,0.0,0.0,0.0,0.0,0.0,0.0,0.0,0.0,0.0,0.0,0.0,0.0,0.0,0.0,0.0,0.0,0.0,0.0,0.0,0.0,0.0,0.0,0.0,0.0,0.0,0.0,0.0,0.0,0.0,0.0,0.0,0.0,0.0,0.0,0.0,0.0,0.0,0.0,0.0,0.0,0.0,0.0,0.0,0.0,0.0,0.0,0.0,0.0,0.0,0.0,0.0,0.0,0.0,0.0,0.0,0.0,0.0,0.0,0.0,0.0,0.0,0.0,0.0,0.0,0.0,0.0,0.0,0.0,0.0,0.0,0.0,0.0,0.0,0.0,0.0,0.0,0.0,0.0,0.0,0.0,0.0,0.0,0.0,0.0,0.0,0.0,0.0,0.0,0.0,0.0,0.0,0.0,0.0,0.0,0.0,0.0,0.0,0.0,0.0,0.0,0.0,0.0,0.0,0.0,0.0,-5.769,-5.9736,-5.8874,-5.7803,0.0,0.0,0.0,0.0,0.0,0.0,0.0,0.0,0.0,0.0,0.0,0.0,0.0,0.0,0.0,0.0,0.0,0.0,0.0,0.0,0.0,0.0,0.0,0.0,0.0,0.0,0.0,0.0,0.0,0.0,0.0,0.0,0.0,0.0,0.0,0.0,0.0,0.0,0.0,0.0,0.0,0.0,0.0,0.0,0.0,0.0,0.0,0.0,0.0,0.0,0.0,0.0,0.0,0.0,0.0,0.0,0.0,0.0,0.0,0.0,0.0,0.0,0.0,0.0,0.0,0.0,0.0,0.0,0.0,0.0,0.0,0.0,0.0,0.0,0.0,0.0,0.0,0.0,0.0,0.0,0.0,0.0,0.0,0.0,0.0,0.0,0.0,0.0,0.0,0.0,0.0,0.0,0.0,0.0,0.0,0.0,0.0,0.0,0.0,0.0,0.0,0.0,0.0,0.0,0.0,0.0,0.0,0.0,0.0,0.0,0.0,-5.3816,-5.4501,-5.5454,0.0,-5.1669,0.0,0.0,0.0,0.0,0.0,0.0,0.0,0.0,0.0,0.0,0.0,0.0,0.0,0.0,0.0,0.0,0.0,0.0,0.0,0.0,0.0,0.0,0.0,0.0,0.0,0.0,0.0,0.0,0.0,0.0,0.0,0.0,0.0,0.0,0.0,0.0,0.0,0.0,0.0,0.0,0.0,0.0,0.0,0.0,0.0,0.0,0.0,0.0,0.0,0.0,0.0,0.0,0.0,0.0,0.0,0.0,0.0,0.0,0.0,0.0,0.0,0.0,0.0,0.0,0.0,0.0,0.0,0.0,0.0,0.0,0.0,0.0,0.0,0.0,0.0,0.0,0.0,0.0,0.0,0.0,0.0,0.0,0.0,0.0,0.0,0.0,0.0,0.0,0.0,0.0,0.0,0.0,0.0,0.0,0.0,0.0,0.0,0.0,0.0,0.0,0.0,0.0,0.0,0.0,0.0,0.0,0.0,0.0,0.0,0.0,0.0,0.0,-5.0774,-5.0659,-4.8509,0.0,0.0,0.0,0.0,0.0,0.0,0.0,0.0,0.0,0.0,0.0,0.0,0.0,0.0,0.0,0.0,0.0,0.0,0.0,0.0,0.0,0.0,0.0,0.0,0.0,0.0,0.0,0.0,0.0,0.0,0.0,0.0,0.0,0.0,0.0,0.0,0.0,0.0,0.0,0.0,0.0,0.0,0.0,0.0,0.0,0.0,0.0,0.0,0.0,0.0,0.0,0.0,0.0,0.0,0.0,0.0,0.0,0.0,0.0,0.0,0.0,0.0,0.0,0.0,0.0,0.0,0.0,0.0,0.0,0.0,0.0,0.0,0.0,0.0,0.0,0.0,0.0,0.0,0.0,0.0,0.0,0.0,0.0,0.0,0.0,0.0,0.0,0.0,0.0,0.0,0.0,0.0,0.0,0.0,0.0,0.0,0.0,0.0,0.0,0.0,0.0,0.0,0.0,0.0,0.0,0.0,0.0,0.0,0.0,0.0,-4.4974,-4.407,-4.5726,-4.5862,-4.4311,0.0,0.0,0.0,0.0,0.0,0.0,0.0,0.0,0.0,0.0,0.0,0.0,0.0,0.0,0.0,0.0,0.0,0.0,0.0,0.0,0.0,0.0,0.0,0.0,0.0,0.0,0.0,0.0,0.0,0.0,0.0,0.0,0.0,0.0,0.0,0.0,0.0,0.0,0.0,0.0,0.0,0.0,0.0,0.0,0.0,0.0,0.0,0.0,0.0,0.0,0.0,0.0,0.0,0.0,0.0,0.0,0.0,0.0,0.0,0.0,0.0,0.0,0.0,0.0,0.0,0.0,0.0,0.0,0.0,0.0,0.0,0.0,0.0,0.0,0.0,0.0,0.0,0.0,0.0,0.0,0.0,0.0,0.0,0.0,0.0,0.0,0.0,0.0,0.0,0.0,0.0,0.0,0.0,0.0,0.0,0.0,0.0,0.0,0.0,0.0,0.0,0.0,0.0,0.0,0.0,0.0,0.0,0.0,0.0,0.0,0.0,0.0,0.0,0.0,-4.0066,0.0,0.0,0.0,0.0,0.0,0.0,0.0,0.0,0.0,0.0,0.0,0.0,0.0,0.0,0.0,0.0,0.0,0.0,0.0,0.0,0.0,0.0,0.0,0.0,0.0,0.0,0.0,0.0,0.0,0.0,0.0,0.0,0.0,0.0,0.0,0.0,0.0,0.0,0.0,0.0,0.0,0.0,0.0,0.0,0.0,0.0,0.0,0.0,0.0,0.0,0.0,0.0,0.0,0.0,0.0,0.0,0.0,0.0,0.0,0.0,0.0,0.0,0.0,0.0,0.0,0.0,0.0,0.0,0.0,0.0,0.0,0.0,0.0,0.0,0.0,0.0,0.0,0.0,0.0,0.0,0.0,0.0,0.0,0.0,0.0,0.0,0.0,0.0,0.0,0.0,0.0,0.0,0.0,0.0,0.0,0.0,0.0,0.0,0.0,0.0,0.0,0.0,0.0,0.0,0.0,0.0,0.0,0.0,0.0,0.0,0.0,0.0,0.0,0.0,0.0,0.0,0.0,0.0,0.0,0.0,0.0,0.0,0.0,0.0,0.0,0.0,0.0,0.0,0.0,0.0,0.0,0.0,0.0,0.0,0.0,0.0,0.0,0.0,0.0,0.0,0.0,0.0,0.0,0.0,0.0,0.0,0.0,0.0,0.0,0.0,0.0,0.0,0.0,0.0,0.0,0.0,0.0,0.0,0.0,0.0,0.0,0.0,0.0,0.0,0.0,0.0,0.0,0.0,0.0,0.0,0.0,0.0,0.0,0.0,0.0,0.0,0.0,0.0,0.0,0.0,0.0,0.0,0.0,0.0,0.0,0.0,0.0,0.0,0.0,0.0,0.0,0.0,0.0,0.0,0.0,0.0,0.0,0.0,0.0,0.0,0.0,0.0,0.0,0.0,0.0,0.0,0.0,0.0,0.0,0.0,0.0,0.0,0.0,0.0,0.0,0.0,0.0,0.0,0.0,0.0,0.0,0.0,0.0,0.0,0.0,0.0,0.0,0.0,0.0,0.0,0.0,0.0,0.0,0.0,0.0,0.0,0.0,0.0,0.0,0.0,0.0,0.0,0.0,0.0,0.0,0.0,0.0,0.0,0.0,0.0,0.0,0.0,0.0,0.0,0.0,0.0,0.0,0.0,0.0,0.0,0.0,0.0,0.0,0.0,0.0,0.0,0.0,0.0,0.0,0.0,0.0,0.0,0.0,0.0,0.0,0.0,0.0,0.0,0.0,0.0,0.0,0.0,0.0,0.0,0.0,0.0,0.0,0.0,0.0,0.0,0.0,0.0,0.0,0.0,0.0,0.0,0.0,0.0,0.0,0.0,0.0,0.0,0.0,0.0,0.0,0.0,0.0,0.0,0.0,0.0,0.0,0.0,0.0,0.0,0.0,0.0,0.0,0.0,0.0,0.0,0.0,0.0,0.0,0.0,0.0,0.0,0.0,0.0,0.0,0.0,0.0,0.0,0.0,0.0,0.0,0.0,0.0,0.0,0.0,0.0,0.0,0.0,0.0,0.0,0.0,0.0,0.0,0.0,0.0,0.0,0.0,0.0,0.0,0.0,0.0,0.0,0.0,0.0,0.0,0.0,0.0,0.0,0.0,0.0,0.0,0.0,0.0,0.0,0.0,0.0,0.0,0.0,0.0,0.0,0.0,0.0,0.0,0.0,0.0,0.0,0.0,0.0,0.0,0.0,0.0,0.0,0.0,0.0,0.0,0.0,0.0,0.0,0.0,0.0,0.0,0.0,0.0,0.0,0.0,0.0,0.0,0.0,0.0,0.0,0.0,0.0,0.0,0.0,0.0,0.0,0.0,0.0,0.0,0.0,0.0,0.0,0.0,0.0,0.0,0.0,0.0,0.0,0.0,0.0,0.0,0.0,0.0,0.0,0.0,0.0,0.0,0.0,0.0,0.0,0.0,0.0,0.0,0.0,0.0,0.0,0.0,0.0,0.0,0.0,0.0,0.0,0.0,0.0,0.0,0.0,0.0,0.0,0.0,0.0,0.0,0.0,0.0,0.0,0.0,0.0,0.0,0.0,0.0,0.0,0.0,0.0,0.0,0.0,0.0,0.0,0.0,0.0,0.0,0.0,0.0,0.0,0.0,0.0,0.0,0.0,0.0,0.0,0.0,0.0,0.0,0.0,0.0,0.0,0.0,0.0,0.0,0.0,0.0,0.0,0.0,0.0,0.0,0.0,0.0,0.0,0.0,0.0,0.0,0.0,0.0,0.0,0.0,0.0,0.0,0.0,0.0,0.0,0.0,0.0,0.0,0.0,0.0,0.0,0.0,0.0,0.0,0.0,0.0,0.0,0.0,0.0,0.0,0.0,0.0,0.0,0.0,0.0,0.0,0.0,0.0,0.0,0.0,0.0,0.0,0.0,0.0,0.0,0.0,0.0,0.0,0.0,0.0,0.0,0.0,0.0,0.0,0.0,0.0,0.0,0.0,0.0,0.0,0.0,0.0,0.0,0.0,0.0,0.0,0.0,0.0,0.0,0.0,0.0,0.0,0.0,0.0,0.0,0.0,0.0,0.0,0.0,0.0,0.0,0.0,0.0,0.0,0.0,0.0,0.0,0.0,0.0,0.0,0.0,0.0,0.0,0.0,0.0,0.0,0.0,0.0,0.0,0.0,0.0,0.0,0.0,0.0,0.0,0.0,0.0,0.0,0.0,0.0,0.0,0.0,0.0,0.0,0.0,0.0,0.0,0.0,0.0,0.0,0.0,0.0,0.0,0.0,0.0,0.0,0.0,0.0,0.0,0.0,0.0,0.0,0.0,0.0,0.0,0.0,0.0,0.0,0.0,0.0,0.0,0.0,0.0,0.0,0.0,0.0,0.0,0.0,0.0,0.0,0.0,0.0,0.0,0.0,0.0,0.0,0.0,0.0,0.0,0.0,0.0,0.0,0.0,0.0,0.0,0.0,0.0,0.0,0.0,0.0,0.0,0.0,0.0,0.0,0.0,0.0,0.0,0.0,0.0,0.0,0.0,0.0,0.0,0.0,0.0,0.0,0.0,0.0,0.0,0.0,0.0,0.0,0.0,0.0,0.0,0.0,0.0,0.0,0.0,0.0,0.0,0.0,0.0,0.0,0.0,0.0,0.0,0.0,0.0,0.0,0.0,0.0,0.0,0.0,0.0,0.0,0.0,0.0,0.0,0.0,0.0,0.0,0.0,0.0,0.0,0.0,0.0,0.0,0.0,0.0,0.0,0.0,0.0,0.0,0.0,0.0,0.0,0.0,0.0,0.0,0.0,0.0,0.0,0.0,0.0,0.0,0.0,0.0,0.0,0.0,0.0,0.0,0.0,0.0,0.0,0.0,0.0,0.0,0.0,0.0,0.0,0.0,0.0,0.0,0.0,0.0,0.0,0.0,0.0,0.0,0.0,0.0,0.0,0.0,0.0,0.0,0.0,0.0,0.0,0.0,0.0,0.0,0.0,0.0,0.0,0.0,0.0,0.0,0.0,0.0,0.0,0.0,0.0,0.0,0.0,0.0,0.0,0.0,0.0,0.0,0.0,0.0,0.0,0.0,0.0,0.0,0.0,0.0,0.0,0.0,0.0,0.0,0.0,0.0,0.0,0.0,0.0,0.0,0.0,0.0,0.0,0.0,0.0,0.0,0.0,0.0,0.0,0.0,0.0,0.0,0.0,0.0,0.0,0.0,0.0,0.0,0.0,0.0,0.0,0.0,0.0,0.0,0.0,0.0,0.0,0.0,0.0,0.0,0.0,0.0,0.0,0.0,0.0,0.0,0.0,0.0,0.0,0.0,0.0,0.0,0.0,0.0,0.0,0.0,0.0,0.0,0.0,0.0,0.0,0.0,0.0,0.0,0.0,0.0,0.0,0.0,0.0,0.0,0.0,0.0,0.0,0.0,0.0,0.0,0.0,0.0,0.0,0.0,0.0,0.0,0.0,0.0,0.0,0.0,0.0,0.0,0.0,0.0,0.0,0.0,0.0,0.0,0.0,0.0,0.0,0.0,0.0,0.0,0.0,0.0,0.0,0.0,0.0,0.0,0.0,0.0,0.0,0.0,0.0,0.0,0.0,0.0,0.0,0.0,0.0,0.0,0.0,0.0,0.0,0.0,0.0,0.0,0.0,0.0,0.0,0.0,0.0,0.0,0.0,0.0,0.0,0.0,0.0,0.0,0.0,0.0,0.0,0.0,0.0,0.0,0.0,0.0,0.0,0.0,0.0,0.0,0.0,0.0,0.0,0.0,0.0,0.0,0.0,0.0,0.0,0.0,0.0,0.0,0.0,0.0,0.0,0.0,0.0,0.0,0.0,0.0,0.0,0.0,0.0,0.0,0.0,0.0,0.0,0.0,0.0,0.0,0.0,0.0,0.0,0.0,0.0]}]]]